[[{"header":{"parameterUnit":"m.s-1","parameterCategory":1,"la1":31.0,"la2":29.5877,"lo1":-88.7671,"lo2":-86.6584,"dy":0.0162,"dx":0.0185,"nx":115,"ny":88,"refTime":"2023-03-28T18:00:00:Z","depth":0,"parameterNumber":2,"parameterNumberName":"U-component_of_WINDS"},"data":[0.0,0.0,0.0,0.0,0.0,0.0,0.0,0.0,0.0,0.0,0.0,0.0,0.0,0.0,0.0,0.0,0.0,0.0,0.0,0.0,0.0,0.0,0.0,0.0,0.0,0.0,0.0,0.0,0.0,0.0,0.0,0.0,0.0,0.0,0.0,0.0,0.0,0.0,0.0,0.0,0.0,0.0,0.0,0.0,0.0,0.0,0.0,0.0,0.0,0.0,0.0,0.0,0.0,0.0,0.0,0.0,0.0,0.0,0.0,0.0,0.0,0.0,0.0,0.0,0.0,0.0,0.0,0.0,0.0,0.0,0.0,0.0,0.0,0.0,0.0,0.0,0.0,0.0,0.0,0.0,0.0,0.0,0.0,0.0,0.0,0.0,0.0,0.0,0.0,0.0,0.0,0.0,0.0,0.0,0.0,0.0,0.0,0.0,0.0,0.0,0.0,0.0,0.0,0.0,0.0,0.0,0.0,0.0,0.0,0.0,0.0,0.0,0.0,0.0,0.0,0.0,0.0,0.0,0.0,0.0,0.0,0.0,0.0,0.0,0.0,0.0,0.0,0.0,0.0,0.0,0.0,0.0,0.0,0.0,0.0,0.0,0.0,0.0,0.0,0.0,0.0,0.0,0.0,0.0,0.0,0.0,0.0,0.0,0.0,0.0,0.0,0.0,0.0,0.0,0.0,0.0,0.0,0.0,0.0,0.0,0.0,0.0,0.0,0.0,0.0,0.0,0.0,0.0,0.0,0.0,0.0,0.0,0.0,0.0,0.0,0.0,0.0,0.0,0.0,0.0,0.0,0.0,0.0,0.0,0.0,0.0,0.0,0.0,0.0,0.0,0.0,0.0,0.0,0.0,0.0,0.0,0.0,0.0,0.0,0.0,0.0,0.0,0.0,0.0,0.0,0.0,0.0,0.0,0.0,0.0,0.0,0.0,0.0,0.0,0.0,0.0,0.0,0.0,0.0,0.0,0.0,0.0,0.0,0.0,0.0,0.0,0.0,0.0,0.0,0.0,0.0,0.0,0.0,0.0,0.0,0.0,0.0,0.0,0.0,0.0,0.0,0.0,0.0,0.0,0.0,0.0,0.0,0.0,0.0,0.0,0.0,0.0,0.0,0.0,0.0,0.0,0.0,0.0,0.0,0.0,0.0,0.0,0.0,0.0,0.0,0.0,0.0,0.0,0.0,0.0,0.0,0.0,0.0,0.0,0.0,0.0,0.0,0.0,0.0,0.0,0.0,0.0,0.0,0.0,0.0,0.0,0.0,0.0,0.0,0.0,0.0,0.0,0.0,0.0,0.0,0.0,0.0,0.0,0.0,0.0,0.0,0.0,0.0,0.0,0.0,0.0,0.0,0.0,0.0,0.0,0.0,0.0,0.0,0.0,0.0,0.0,0.0,0.0,0.0,0.0,0.0,0.0,0.0,0.0,0.0,0.0,0.0,0.0,0.0,0.0,0.0,0.0,0.0,0.0,0.0,0.0,0.0,0.0,0.0,0.0,0.0,0.0,0.0,0.0,0.0,0.0,0.0,0.0,0.0,0.0,0.0,0.0,0.0,0.0,0.0,0.0,0.0,0.0,0.0,0.0,0.0,0.0,0.0,0.0,0.0,0.0,0.0,0.0,0.0,0.0,0.0,0.0,0.0,0.0,0.0,0.0,0.0,0.0,0.0,0.0,0.0,0.0,0.0,0.0,0.0,0.0,0.0,0.0,0.0,0.0,0.0,0.0,0.0,0.0,0.0,0.0,0.0,0.0,0.0,0.0,0.0,0.0,0.0,0.0,0.0,0.0,0.0,0.0,0.0,0.0,0.0,0.0,0.0,0.0,0.0,0.0,0.0,0.0,0.0,0.0,0.0,0.0,0.0,0.0,0.0,0.0,0.0,0.0,0.0,0.0,0.0,0.0,0.0,0.0,0.0,0.0,0.0,0.0,0.0,0.0,0.0,0.0,0.0,0.0,0.0,0.0,0.0,0.0,0.0,0.0,0.0,0.0,0.0,0.0,0.0,0.0,0.0,0.0,0.0,0.0,0.0,0.0,0.0,0.0,0.0,0.0,0.0,0.0,0.0,0.0,0.0,0.0,0.0,0.0,0.0,0.0,0.0,0.0,0.0,0.0,0.0,0.0,0.0,0.0,0.0,0.0,0.0,0.0,0.0,0.0,0.0,0.0,0.0,0.0,0.0,0.0,0.0,0.0,0.0,0.0,0.0,0.0,0.0,0.0,0.0,0.0,0.0,0.0,0.0,0.0,0.0,0.0,0.0,0.0,0.0,0.0,0.0,0.0,0.0,0.0,0.0,0.0,0.0,0.0,0.0,0.0,0.0,0.0,0.0,0.0,0.0,0.0,0.0,0.0,0.0,0.0,0.0,0.0,0.0,0.0,0.0,0.0,0.0,0.0,0.0,0.0,0.0,0.0,0.0,0.0,0.0,0.0,0.0,0.0,0.0,0.0,0.0,0.0,0.0,0.0,0.0,0.0,0.0,0.0,0.0,0.0,0.0,0.0,0.0,0.0,0.0,0.0,0.0,0.0,0.0,0.0,0.0,0.0,0.0,0.0,0.0,0.0,0.0,0.0,0.0,0.0,0.0,0.0,0.0,0.0,0.0,0.0,0.0,0.0,0.0,0.0,0.0,0.0,0.0,0.0,0.0,0.0,0.0,0.0,0.0,0.0,0.0,0.0,0.0,0.0,0.0,0.0,0.0,0.0,0.0,0.0,0.0,0.0,0.0,0.0,0.0,0.0,0.0,0.0,0.0,0.0,0.0,0.0,0.0,0.0,0.0,0.0,0.0,0.0,0.0,0.0,0.0,0.0,0.0,0.0,0.0,0.0,0.0,0.0,0.0,0.0,0.0,0.0,0.0,0.0,0.0,0.0,0.0,0.0,0.0,0.0,0.0,0.0,0.0,0.0,0.0,0.0,0.0,0.0,0.0,0.0,0.0,0.0,0.0,0.0,0.0,0.0,0.0,0.0,0.0,0.0,0.0,0.0,0.0,0.0,0.0,0.0,0.0,0.0,0.0,0.0,0.0,0.0,0.0,0.0,0.0,0.0,0.0,0.0,0.0,0.0,0.0,0.0,0.0,0.0,0.0,0.0,0.0,0.0,0.0,0.0,0.0,0.0,0.0,0.0,0.0,0.0,0.0,0.0,0.0,0.0,0.0,0.0,0.0,0.0,0.0,0.0,0.0,0.0,0.0,0.0,0.0,0.0,0.0,0.0,0.0,0.0,0.0,0.0,0.0,0.0,0.0,0.0,0.0,0.0,0.0,0.0,0.0,0.0,0.0,0.0,0.0,0.0,0.0,0.0,0.0,0.0,0.0,0.0,0.0,0.0,0.0,0.0,0.0,0.0,0.0,0.0,0.0,0.0,0.0,0.0,0.0,0.0,0.0,0.0,0.0,0.0,0.0,0.0,0.0,0.0,0.0,0.0,0.0,0.0,0.0,0.0,0.0,0.0,0.0,0.0,0.0,0.0,0.0,0.0,0.0,0.0,0.0,0.0,0.0,0.0,0.0,0.0,0.0,0.0,0.0,0.0,0.0,0.0,0.0,0.0,0.0,0.0,0.0,0.0,0.0,0.0,0.0,0.0,0.0,0.0,0.0,0.0,0.0,0.0,0.0,0.0,0.0,0.0,0.0,0.0,0.0,0.0,0.0,0.0,0.0,0.0,0.0,0.0,0.0,0.0,0.0,0.0,0.0,0.0,0.0,0.0,0.0,0.0,0.0,0.0,0.0,0.0,0.0,0.0,0.0,0.0,0.0,0.0,0.0,0.0,0.0,0.0,0.0,0.0,0.0,0.0,0.0,0.0,0.0,0.0,0.0,0.0,0.0,0.0,0.0,0.0,0.0,0.0,0.0,0.0,0.0,0.0,0.0,0.0,0.0,0.0,0.0,0.0,0.0,0.0,0.0,0.0,0.0,0.0,0.0,0.0,0.0,0.0,0.0,0.0,0.0,0.0,0.0,0.0,0.0,0.0,0.0,0.0,0.0,0.0,0.0,0.0,0.0,0.0,0.0,0.0,0.0,0.0,0.0,0.0,0.0,0.0,0.0,0.0,0.0,0.0,0.0,0.0,0.0,0.0,0.0,0.0,0.0,0.0,0.0,0.0,0.0,0.0,0.0,0.0,0.0,0.0,0.0,0.0,0.0,0.0,0.0,0.0,0.0,0.0,0.0,0.0,0.0,0.0,0.0,0.0,0.0,0.0,0.0,0.0,0.0,0.0,0.0,0.0,0.0,0.0,0.0,0.0,0.0,0.0,5.5083,0.0,0.0,0.0,0.0,0.0,0.0,0.0,0.0,0.0,0.0,0.0,0.0,0.0,0.0,0.0,0.0,0.0,0.0,0.0,0.0,0.0,0.0,0.0,0.0,0.0,0.0,0.0,0.0,0.0,0.0,0.0,0.0,0.0,0.0,0.0,0.0,0.0,0.0,0.0,0.0,0.0,0.0,0.0,0.0,0.0,0.0,0.0,0.0,0.0,0.0,0.0,0.0,0.0,0.0,0.0,0.0,0.0,0.0,0.0,0.0,0.0,0.0,0.0,0.0,0.0,0.0,0.0,0.0,0.0,0.0,0.0,0.0,0.0,0.0,0.0,0.0,0.0,0.0,0.0,0.0,0.0,0.0,0.0,0.0,0.0,0.0,0.0,0.0,0.0,0.0,0.0,0.0,0.0,0.0,0.0,0.0,0.0,0.0,0.0,0.0,0.0,0.0,0.0,0.0,0.0,0.0,0.0,0.0,0.0,0.0,5.8909,5.848,5.6411,5.5318,5.5279,0.0,0.0,0.0,0.0,0.0,0.0,0.0,0.0,0.0,0.0,0.0,0.0,0.0,0.0,0.0,0.0,0.0,0.0,0.0,0.0,0.0,0.0,0.0,0.0,0.0,0.0,0.0,0.0,0.0,0.0,0.0,0.0,0.0,0.0,0.0,0.0,0.0,0.0,0.0,0.0,0.0,0.0,0.0,0.0,0.0,0.0,0.0,0.0,0.0,0.0,0.0,0.0,0.0,0.0,0.0,0.0,0.0,0.0,0.0,0.0,0.0,0.0,0.0,0.0,0.0,0.0,0.0,0.0,0.0,0.0,0.0,0.0,0.0,0.0,0.0,0.0,0.0,0.0,0.0,0.0,0.0,0.0,0.0,0.0,0.0,0.0,0.0,0.0,0.0,0.0,0.0,0.0,0.0,0.0,0.0,0.0,0.0,0.0,0.0,0.0,0.0,0.0,0.0,0.0,0.0,0.0,0.0,0.0,0.0,0.0,0.0,0.0,5.6723,5.5591,5.5591,0.0,0.0,0.0,0.0,0.0,0.0,0.0,0.0,0.0,0.0,0.0,0.0,0.0,0.0,0.0,0.0,0.0,0.0,0.0,0.0,0.0,0.0,0.0,0.0,0.0,0.0,0.0,0.0,0.0,0.0,0.0,0.0,0.0,0.0,0.0,0.0,0.0,0.0,0.0,0.0,0.0,0.0,0.0,0.0,0.0,0.0,0.0,0.0,0.0,0.0,0.0,0.0,0.0,0.0,0.0,0.0,0.0,0.0,0.0,0.0,0.0,0.0,0.0,0.0,0.0,0.0,0.0,0.0,0.0,0.0,0.0,0.0,0.0,0.0,0.0,0.0,0.0,0.0,0.0,0.0,0.0,0.0,0.0,0.0,0.0,0.0,0.0,0.0,0.0,0.0,0.0,0.0,0.0,0.0,0.0,0.0,0.0,0.0,0.0,0.0,0.0,0.0,0.0,0.0,0.0,0.0,0.0,0.0,0.0,0.0,5.8714,5.7933,5.6996,0.0,5.6489,0.0,0.0,0.0,0.0,0.0,0.0,0.0,0.0,0.0,0.0,0.0,0.0,0.0,0.0,0.0,0.0,0.0,0.0,0.0,0.0,0.0,0.0,0.0,0.0,0.0,0.0,0.0,0.0,0.0,0.0,0.0,0.0,0.0,0.0,0.0,0.0,0.0,0.0,0.0,0.0,0.0,0.0,0.0,0.0,0.0,0.0,0.0,0.0,0.0,0.0,0.0,0.0,0.0,0.0,0.0,0.0,0.0,0.0,0.0,0.0,0.0,0.0,0.0,0.0,0.0,0.0,0.0,0.0,0.0,0.0,0.0,0.0,0.0,0.0,0.0,0.0,0.0,0.0,0.0,0.0,0.0,0.0,0.0,0.0,0.0,0.0,0.0,0.0,0.0,0.0,0.0,0.0,0.0,0.0,0.0,0.0,0.0,0.0,0.0,0.0,0.0,0.0,0.0,0.0,0.0,0.0,0.0,0.0,0.0,0.0,5.8168,5.7816,5.7035,5.6606,0.0,0.0,0.0,0.0,0.0,0.0,0.0,0.0,0.0,0.0,0.0,0.0,0.0,0.0,0.0,0.0,0.0,0.0,0.0,0.0,0.0,0.0,0.0,0.0,0.0,0.0,0.0,0.0,0.0,0.0,0.0,0.0,0.0,0.0,0.0,0.0,0.0,0.0,0.0,0.0,0.0,0.0,0.0,0.0,0.0,0.0,0.0,0.0,0.0,0.0,0.0,0.0,0.0,0.0,0.0,0.0,0.0,0.0,0.0,0.0,0.0,0.0,0.0,0.0,0.0,0.0,0.0,0.0,0.0,0.0,0.0,0.0,0.0,0.0,0.0,0.0,0.0,0.0,0.0,0.0,0.0,0.0,0.0,0.0,0.0,0.0,0.0,0.0,0.0,0.0,0.0,0.0,0.0,0.0,0.0,0.0,0.0,0.0,0.0,0.0,0.0,0.0,0.0,0.0,0.0,0.0,0.0,0.0,0.0,0.0,5.8011,5.7699,5.7465,5.6918,5.6606,5.6606,0.0,0.0,0.0,0.0,0.0,0.0,0.0,0.0,0.0,0.0,0.0,0.0,0.0,0.0,0.0,0.0,0.0,0.0,0.0,0.0,0.0,0.0,0.0,0.0,0.0,0.0,0.0,0.0,0.0,0.0,0.0,0.0,0.0,0.0,0.0,0.0,0.0,0.0,0.0,0.0,0.0,0.0,0.0,0.0,0.0,0.0,0.0,0.0,0.0,0.0,0.0,0.0,0.0,0.0,0.0,0.0,0.0,0.0,0.0,0.0,0.0,0.0,0.0,0.0,0.0,0.0,0.0,0.0,0.0,0.0,0.0,0.0,0.0,0.0,0.0,0.0,0.0,0.0,0.0,0.0,0.0,0.0,0.0,0.0,0.0,0.0,0.0,0.0,0.0,0.0,0.0,0.0,0.0,0.0,0.0,0.0,0.0,0.0,0.0,0.0,0.0,0.0,0.0,0.0,0.0,0.0,0.0,0.0,5.6801,5.7426,5.7426,5.6723,5.6606,5.6606,0.0,0.0,0.0,0.0,0.0,0.0,0.0,0.0,0.0,0.0,0.0,0.0,0.0,0.0,0.0,0.0,0.0,0.0,0.0,0.0,0.0,0.0,0.0,0.0,0.0,0.0,0.0,0.0,0.0,0.0,0.0,0.0,0.0,0.0,0.0,0.0,0.0,0.0,0.0,0.0,0.0,0.0,0.0,0.0,0.0,0.0,0.0,0.0,0.0,0.0,0.0,0.0,0.0,0.0,0.0,0.0,0.0,0.0,0.0,0.0,0.0,0.0,0.0,0.0,0.0,0.0,0.0,0.0,0.0,0.0,0.0,0.0,0.0,0.0,0.0,0.0,0.0,0.0,0.0,0.0,0.0,0.0,0.0,0.0,0.0,0.0,0.0,0.0,0.0,0.0,0.0,0.0,0.0,0.0,0.0,0.0,0.0,0.0,0.0,0.0,0.0,0.0,0.0,0.0,0.0,0.0,0.0,0.0,0.0,5.6553,5.6821,5.6815,5.6542,5.6542,5.6542,0.0,0.0,0.0,0.0,0.0,0.0,0.0,0.0,0.0,0.0,0.0,0.0,0.0,0.0,0.0,0.0,0.0,0.0,0.0,0.0,0.0,0.0,0.0,0.0,0.0,0.0,0.0,0.0,0.0,0.0,0.0,0.0,0.0,0.0,0.0,0.0,0.0,0.0,0.0,0.0,0.0,0.0,0.0,0.0,0.0,0.0,0.0,0.0,0.0,0.0,0.0,0.0,0.0,0.0,0.0,0.0,0.0,0.0,0.0,0.0,0.0,0.0,0.0,0.0,0.0,0.0,0.0,0.0,0.0,0.0,0.0,0.0,0.0,0.0,0.0,0.0,0.0,0.0,0.0,0.0,0.0,0.0,0.0,0.0,0.0,0.0,0.0,0.0,0.0,0.0,0.0,0.0,0.0,0.0,0.0,0.0,0.0,0.0,0.0,0.0,0.0,0.0,0.0,0.0,0.0,0.0,0.0,0.0,0.0,5.6491,0.0,5.6471,5.6464,5.6464,5.651,0.0,0.0,0.0,0.0,0.0,0.0,0.0,0.0,0.0,0.0,0.0,0.0,0.0,0.0,0.0,0.0,0.0,0.0,0.0,0.0,0.0,0.0,0.0,0.0,0.0,0.0,0.0,0.0,0.0,0.0,0.0,0.0,0.0,0.0,0.0,0.0,0.0,0.0,0.0,0.0,0.0,0.0,0.0,0.0,0.0,0.0,0.0,0.0,0.0,0.0,0.0,0.0,0.0,0.0,0.0,0.0,0.0,0.0,0.0,0.0,0.0,0.0,0.0,0.0,0.0,0.0,0.0,0.0,0.0,0.0,0.0,0.0,0.0,0.0,0.0,0.0,0.0,0.0,0.0,0.0,0.0,0.0,0.0,0.0,0.0,0.0,0.0,0.0,0.0,0.0,0.0,0.0,0.0,0.0,0.0,0.0,0.0,0.0,0.0,0.0,0.0,0.0,0.0,0.0,0.0,0.0,0.0,0.0,5.6527,5.6535,5.6566,5.6597,5.6425,5.6464,5.6472,0.0,0.0,0.0,0.0,0.0,0.0,0.0,0.0,0.0,0.0,0.0,0.0,0.0,0.0,0.0,0.0,0.0,0.0,0.0,0.0,0.0,0.0,0.0,0.0,0.0,0.0,0.0,0.0,0.0,0.0,0.0,0.0,0.0,0.0,0.0,0.0,0.0,0.0,0.0,0.0,0.0,0.0,0.0,0.0,0.0,0.0,0.0,0.0,0.0,0.0,0.0,0.0,0.0,0.0,0.0,0.0,0.0,0.0,0.0,0.0,0.0,0.0,0.0,0.0,0.0,0.0,0.0,0.0,0.0,0.0,0.0,0.0,0.0,0.0,0.0,0.0,0.0,0.0,0.0,0.0,0.0,0.0,0.0,0.0,0.0,0.0,0.0,0.0,0.0,0.0,0.0,0.0,0.0,0.0,0.0,0.0,0.0,0.0,0.0,0.0,0.0,0.0,0.0,0.0,0.0,0.0,0.0,0.0,0.0,5.7342,5.7886,5.8137,5.8137,5.7542,5.7242,0.0,0.0,0.0,0.0,0.0,0.0,0.0,0.0,0.0,0.0,0.0,0.0,0.0,0.0,0.0,0.0,0.0,0.0,0.0,0.0,0.0,0.0,0.0,0.0,0.0,0.0,0.0,0.0,0.0,0.0,0.0,0.0,0.0,0.0,0.0,0.0,0.0,0.0,0.0,0.0,0.0,0.0,0.0,0.0,0.0,0.0,0.0,0.0,0.0,0.0,0.0,0.0,0.0,0.0,0.0,0.0,0.0,0.0,0.0,0.0,0.0,0.0,0.0,0.0,0.0,0.0,0.0,0.0,0.0,0.0,0.0,0.0,0.0,0.0,0.0,0.0,0.0,0.0,0.0,0.0,0.0,0.0,0.0,0.0,0.0,0.0,0.0,0.0,0.0,0.0,0.0,0.0,0.0,0.0,0.0,0.0,0.0,0.0,0.0,0.0,0.0,0.0,0.0,0.0,0.0,0.0,0.0,0.0,0.0,5.9969,5.9853,5.9774,5.9745,5.893,5.8323,5.8001,0.0,0.0,0.0,0.0,0.0,0.0,0.0,0.0,0.0,0.0,0.0,0.0,0.0,0.0,0.0,0.0,0.0,0.0,0.0,0.0,0.0,0.0,0.0,0.0,0.0,0.0,0.0,0.0,0.0,0.0,0.0,0.0,0.0,0.0,0.0,0.0,0.0,0.0,0.0,0.0,0.0,0.0,0.0,0.0,0.0,0.0,0.0,0.0,0.0,0.0,0.0,0.0,0.0,0.0,0.0,0.0,0.0,0.0,0.0,0.0,0.0,0.0,0.0,0.0,0.0,0.0,0.0,0.0,0.0,0.0,0.0,0.0,0.0,0.0,0.0,0.0,0.0,0.0,0.0,0.0,0.0,0.0,0.0,0.0,0.0,0.0,0.0,0.0,0.0,0.0,0.0,0.0,0.0,0.0,0.0,0.0,0.0,0.0,0.0,0.0,0.0,0.0,0.0,0.0,0.0,0.0,0.0,0.0,6.4123,6.2671,6.1823,6.1503,6.0652,5.9775,0.0,0.0,0.0,0.0,0.0,0.0,0.0,0.0,0.0,0.0,0.0,0.0,0.0,0.0,0.0,0.0,0.0,0.0,0.0,0.0,0.0,0.0,0.0,0.0,0.0,0.0,0.0,0.0,0.0,0.0,0.0,0.0,0.0,0.0,0.0,0.0,0.0,0.0,0.0,0.0,0.0,0.0,0.0,0.0,0.0,0.0,0.0,0.0,0.0,0.0,0.0,0.0,0.0,0.0,0.0,0.0,0.0,0.0,0.0,0.0,0.0,0.0,0.0,0.0,0.0,0.0,0.0,0.0,0.0,0.0,0.0,0.0,0.0,0.0,0.0,0.0,0.0,0.0,0.0,0.0,0.0,0.0,0.0,0.0,0.0,0.0,0.0,0.0,0.0,0.0,0.0,0.0,0.0,0.0,0.0,0.0,0.0,0.0,0.0,0.0,0.0,0.0,0.0,0.0,0.0,0.0,0.0,0.0,0.0,6.8214,6.8953,6.7888,6.4861,6.3896,6.2759,0.0,0.0,0.0,0.0,0.0,0.0,0.0,0.0,0.0,0.0,0.0,0.0,0.0,0.0,0.0,0.0,0.0,0.0,0.0,0.0,0.0,0.0,0.0,0.0,0.0,0.0,0.0,0.0,0.0,0.0,0.0,0.0,0.0,0.0,0.0,0.0,0.0,0.0,0.0,0.0,0.0,0.0,0.0,0.0,0.0,0.0,0.0,0.0,0.0,0.0,0.0,0.0,0.0,0.0,0.0,0.0,0.0,0.0,0.0,0.0,0.0,0.0,0.0,0.0,0.0,0.0,0.0,0.0,0.0,0.0,0.0,0.0,0.0,0.0,0.0,0.0,0.0,0.0,0.0,0.0,0.0,0.0,0.0,0.0,0.0,0.0,0.0,0.0,0.0,0.0,0.0,0.0,0.0,0.0,0.0,0.0,0.0,0.0,0.0,0.0,0.0,0.0,0.0,0.0,0.0,0.0,0.0,0.0,6.8761,7.1902,7.4148,7.3793,7.0651,6.8078,6.5673,0.0,0.0,0.0,0.0,0.0,0.0,0.0,0.0,0.0,0.0,0.0,0.0,0.0,0.0,0.0,0.0,0.0,0.0,0.0,0.0,0.0,0.0,0.0,0.0,0.0,0.0,0.0,0.0,0.0,0.0,0.0,0.0,0.0,0.0,0.0,0.0,0.0,0.0,0.0,0.0,0.0,0.0,0.0,0.0,0.0,0.0,0.0,0.0,0.0,0.0,0.0,0.0,0.0,0.0,0.0,0.0,0.0,0.0,0.0,0.0,0.0,0.0,0.0,0.0,0.0,0.0,0.0,0.0,0.0,0.0,0.0,0.0,0.0,0.0,0.0,0.0,0.0,0.0,0.0,0.0,0.0,0.0,0.0,0.0,0.0,0.0,0.0,0.0,0.0,0.0,0.0,0.0,0.0,0.0,0.0,0.0,0.0,0.0,0.0,0.0,0.0,0.0,0.0,0.0,0.0,0.0,0.0,0.0,7.1988,7.5258,7.8339,7.9182,7.7475,7.2878,6.8744,0.0,0.0,0.0,0.0,0.0,0.0,0.0,0.0,0.0,0.0,0.0,0.0,0.0,0.0,0.0,0.0,0.0,0.0,0.0,0.0,0.0,0.0,0.0,0.0,0.0,0.0,0.0,0.0,0.0,0.0,0.0,0.0,0.0,0.0,0.0,0.0,0.0,0.0,0.0,0.0,0.0,0.0,0.0,0.0,0.0,0.0,0.0,0.0,0.0,0.0,0.0,0.0,0.0,0.0,0.0,0.0,0.0,0.0,0.0,0.0,0.0,0.0,0.0,0.0,0.0,0.0,0.0,0.0,0.0,0.0,0.0,0.0,0.0,0.0,0.0,0.0,0.0,0.0,0.0,0.0,0.0,0.0,0.0,0.0,0.0,0.0,0.0,0.0,0.0,0.0,0.0,0.0,0.0,0.0,0.0,0.0,0.0,0.0,0.0,0.0,0.0,0.0,0.0,0.0,0.0,0.0,0.0,0.0,7.4076,7.8554,8.1201,8.2256,8.169,7.762,7.3253,0.0,0.0,0.0,0.0,0.0,0.0,0.0,0.0,0.0,0.0,0.0,0.0,0.0,0.0,0.0,0.0,0.0,0.0,0.0,0.0,0.0,0.0,0.0,0.0,0.0,0.0,0.0,0.0,0.0,0.0,0.0,0.0,0.0,0.0,0.0,0.0,0.0,0.0,0.0,0.0,0.0,0.0,0.0,0.0,0.0,0.0,0.0,0.0,5.5139,0.0,0.0,0.0,0.0,0.0,0.0,0.0,0.0,0.0,0.0,0.0,0.0,0.0,0.0,0.0,0.0,0.0,0.0,0.0,0.0,0.0,0.0,0.0,0.0,0.0,0.0,0.0,0.0,0.0,0.0,0.0,0.0,0.0,0.0,0.0,0.0,0.0,0.0,0.0,0.0,0.0,0.0,0.0,0.0,0.0,0.0,0.0,0.0,0.0,0.0,0.0,0.0,0.0,0.0,0.0,0.0,0.0,0.0,0.0,7.6707,8.1881,8.3975,8.4939,8.4671,8.1683,7.7067,0.0,0.0,0.0,0.0,0.0,0.0,0.0,0.0,0.0,0.0,0.0,0.0,0.0,0.0,0.0,0.0,0.0,0.0,0.0,0.0,0.0,0.0,0.0,0.0,0.0,0.0,0.0,0.0,0.0,0.0,0.0,0.0,0.0,0.0,0.0,0.0,0.0,0.0,0.0,0.0,0.0,0.0,0.0,0.0,0.0,0.0,0.0,0.0,0.0,0.0,0.0,0.0,0.0,0.0,0.0,0.0,0.0,0.0,0.0,0.0,0.0,0.0,0.0,0.0,0.0,0.0,0.0,0.0,0.0,0.0,0.0,0.0,0.0,0.0,0.0,0.0,0.0,0.0,0.0,0.0,0.0,0.0,0.0,0.0,0.0,0.0,0.0,0.0,0.0,0.0,0.0,0.0,0.0,0.0,0.0,0.0,0.0,0.0,0.0,0.0,0.0,0.0,0.0,0.0,0.0,0.0,0.0,7.4449,7.9315,8.4656,8.647,8.7274,8.7154,8.4633,8.0021,7.3149,0.0,0.0,0.0,0.0,0.0,0.0,0.0,0.0,0.0,0.0,0.0,0.0,0.0,0.0,0.0,0.0,0.0,0.0,0.0,0.0,0.0,0.0,0.0,0.0,0.0,0.0,0.0,0.0,0.0,0.0,0.0,0.0,0.0,0.0,0.0,0.0,0.0,0.0,5.4297,5.4222,0.0,0.0,0.0,0.0,0.0,0.0,0.0,0.0,5.6914,0.0,0.0,0.0,0.0,0.0,0.0,0.0,0.0,0.0,0.0,0.0,0.0,0.0,0.0,0.0,0.0,0.0,0.0,0.0,0.0,0.0,0.0,0.0,0.0,0.0,0.0,0.0,0.0,0.0,0.0,0.0,0.0,0.0,0.0,0.0,0.0,0.0,0.0,0.0,0.0,0.0,0.0,0.0,0.0,0.0,0.0,0.0,0.0,0.0,0.0,0.0,0.0,0.0,0.0,0.0,0.0,7.1037,7.6388,8.126,8.5616,8.7887,8.9034,8.8797,8.5208,8.103,7.6363,0.0,0.0,0.0,0.0,0.0,0.0,0.0,0.0,0.0,0.0,0.0,0.0,0.0,0.0,0.0,0.0,0.0,0.0,0.0,0.0,0.0,0.0,0.0,0.0,0.0,0.0,0.0,0.0,0.0,0.0,0.0,0.0,0.0,0.0,0.0,0.0,0.0,0.0,0.0,5.5449,5.5538,0.0,0.0,0.0,0.0,0.0,0.0,0.0,0.0,5.8682,0.0,0.0,0.0,0.0,0.0,0.0,0.0,0.0,0.0,0.0,0.0,0.0,0.0,0.0,0.0,0.0,0.0,0.0,0.0,0.0,0.0,0.0,0.0,0.0,0.0,0.0,0.0,0.0,0.0,0.0,0.0,0.0,0.0,0.0,0.0,0.0,0.0,0.0,0.0,0.0,0.0,0.0,0.0,0.0,0.0,0.0,0.0,0.0,0.0,0.0,0.0,0.0,0.0,0.0,0.0,7.36,7.8092,8.2736,8.758,8.8844,8.9565,8.9867,8.5552,8.1298,0.0,0.0,0.0,0.0,0.0,0.0,0.0,0.0,0.0,0.0,0.0,0.0,0.0,0.0,0.0,0.0,0.0,0.0,0.0,0.0,0.0,0.0,0.0,0.0,0.0,0.0,0.0,0.0,0.0,0.0,0.0,0.0,0.0,0.0,0.0,0.0,0.0,0.0,0.0,0.0,5.7177,5.7538,5.8363,0.0,0.0,0.0,0.0,0.0,0.0,5.91,5.9129,0.0,0.0,0.0,0.0,0.0,0.0,0.0,0.0,0.0,0.0,0.0,0.0,0.0,0.0,0.0,0.0,0.0,0.0,0.0,0.0,0.0,0.0,0.0,0.0,0.0,0.0,0.0,0.0,0.0,0.0,0.0,0.0,0.0,0.0,0.0,0.0,0.0,0.0,0.0,0.0,0.0,0.0,0.0,0.0,0.0,0.0,0.0,0.0,0.0,0.0,0.0,0.0,0.0,0.0,0.0,7.5793,7.9857,8.4399,8.9456,8.9794,9.0135,9.0708,8.5858,8.1301,0.0,0.0,0.0,0.0,0.0,0.0,0.0,0.0,0.0,0.0,0.0,0.0,0.0,0.0,0.0,0.0,0.0,0.0,0.0,0.0,0.0,0.0,0.0,0.0,0.0,0.0,0.0,0.0,0.0,0.0,0.0,0.0,0.0,0.0,0.0,0.0,0.0,0.0,0.0,0.0,0.0,5.923,5.9581,5.9624,0.0,0.0,0.0,0.0,6.0153,6.0145,0.0,0.0,0.0,0.0,0.0,0.0,0.0,0.0,0.0,0.0,0.0,0.0,0.0,0.0,0.0,0.0,0.0,0.0,0.0,0.0,0.0,0.0,0.0,0.0,0.0,0.0,0.0,0.0,0.0,0.0,0.0,0.0,0.0,0.0,0.0,0.0,0.0,0.0,0.0,0.0,0.0,0.0,0.0,0.0,0.0,0.0,0.0,0.0,0.0,0.0,0.0,0.0,0.0,0.0,0.0,0.0,7.5985,8.2019,8.6892,9.0375,9.117,9.1548,9.1586,8.6046,8.1458,0.0,0.0,0.0,0.0,0.0,0.0,0.0,0.0,0.0,0.0,0.0,0.0,0.0,0.0,0.0,0.0,0.0,0.0,0.0,0.0,0.0,0.0,0.0,0.0,0.0,0.0,0.0,0.0,0.0,0.0,0.0,0.0,0.0,0.0,0.0,0.0,0.0,0.0,0.0,0.0,0.0,5.9676,6.1201,6.1404,6.1953,0.0,0.0,6.3705,6.3707,6.3708,0.0,0.0,0.0,0.0,0.0,0.0,0.0,0.0,0.0,0.0,0.0,0.0,0.0,0.0,0.0,0.0,0.0,0.0,0.0,0.0,0.0,0.0,0.0,0.0,0.0,0.0,0.0,0.0,0.0,0.0,0.0,0.0,0.0,0.0,0.0,0.0,0.0,0.0,0.0,0.0,0.0,0.0,0.0,0.0,0.0,0.0,0.0,0.0,0.0,0.0,0.0,0.0,0.0,0.0,0.0,7.3168,7.784,8.3062,8.7771,9.1862,9.1896,9.1816,9.1778,8.6084,8.1459,0.0,0.0,0.0,0.0,0.0,0.0,0.0,0.0,0.0,0.0,0.0,0.0,0.0,0.0,0.0,0.0,0.0,0.0,0.0,0.0,0.0,0.0,0.0,0.0,0.0,0.0,0.0,0.0,0.0,0.0,0.0,0.0,0.0,0.0,0.0,0.0,0.0,0.0,0.0,0.0,0.0,0.0,6.3008,6.3591,0.0,0.0,0.0,6.4857,6.4392,0.0,0.0,0.0,0.0,0.0,0.0,0.0,0.0,0.0,0.0,0.0,0.0,0.0,0.0,0.0,0.0,0.0,0.0,0.0,0.0,0.0,0.0,0.0,0.0,0.0,0.0,0.0,0.0,0.0,0.0,0.0,0.0,0.0,0.0,0.0,0.0,0.0,0.0,0.0,0.0,0.0,0.0,0.0,0.0,0.0,0.0,0.0,0.0,0.0,0.0,0.0,0.0,0.0,0.0,0.0,0.0,0.0,7.9657,8.406,8.8611,9.3229,9.2809,9.2351,9.2007,8.6581,0.0,0.0,0.0,0.0,0.0,0.0,0.0,0.0,0.0,0.0,0.0,0.0,0.0,0.0,0.0,0.0,0.0,0.0,0.0,0.0,0.0,0.0,0.0,0.0,0.0,0.0,0.0,5.4303,0.0,0.0,0.0,0.0,0.0,0.0,0.0,0.0,0.0,0.0,0.0,0.0,0.0,0.0,6.3705,6.4789,6.5489,6.572,0.0,0.0,6.5897,6.5077,6.4921,6.457,0.0,0.0,0.0,0.0,0.0,0.0,0.0,0.0,0.0,0.0,0.0,0.0,0.0,0.0,0.0,0.0,0.0,0.0,0.0,0.0,0.0,0.0,0.0,0.0,0.0,0.0,0.0,0.0,0.0,0.0,0.0,0.0,0.0,0.0,0.0,0.0,0.0,0.0,0.0,0.0,0.0,0.0,0.0,0.0,0.0,0.0,0.0,0.0,0.0,0.0,0.0,0.0,0.0,0.0,0.0,8.0463,8.5398,8.9982,9.4146,9.4261,9.3841,9.2962,8.8033,8.3028,0.0,0.0,0.0,0.0,0.0,0.0,0.0,0.0,0.0,0.0,0.0,0.0,0.0,0.0,0.0,0.0,0.0,0.0,0.0,0.0,0.0,0.0,0.0,0.0,0.0,0.0,0.0,0.0,0.0,0.0,0.0,0.0,0.0,0.0,0.0,0.0,0.0,0.0,0.0,0.0,0.0,6.4804,6.6522,6.6717,6.699,0.0,0.0,6.7615,6.6756,6.66,6.6092,6.4492,0.0,0.0,0.0,0.0,0.0,0.0,0.0,0.0,0.0,0.0,0.0,0.0,0.0,0.0,0.0,0.0,0.0,0.0,0.0,0.0,0.0,0.0,0.0,0.0,0.0,0.0,0.0,0.0,0.0,0.0,0.0,0.0,0.0,0.0,0.0,0.0,0.0,0.0,0.0,0.0,0.0,0.0,0.0,0.0,0.0,0.0,0.0,0.0,0.0,0.0,0.0,0.0,0.0,7.5834,8.1269,8.5779,9.0364,9.4872,9.4643,9.3994,9.3115,8.8148,8.341,0.0,0.0,0.0,0.0,0.0,0.0,0.0,0.0,0.0,0.0,0.0,0.0,0.0,0.0,0.0,0.0,0.0,0.0,0.0,0.0,0.0,0.0,0.0,0.0,0.0,0.0,0.0,0.0,5.6411,5.6606,5.6606,0.0,0.0,0.0,0.0,0.0,0.0,0.0,0.0,0.0,0.0,6.5464,6.6688,6.7702,0.0,0.0,6.817,6.8366,6.7,6.6343,6.5608,6.4437,6.3823,0.0,0.0,0.0,0.0,0.0,0.0,0.0,0.0,0.0,0.0,0.0,0.0,0.0,0.0,0.0,0.0,0.0,0.0,0.0,0.0,0.0,0.0,0.0,0.0,0.0,0.0,0.0,0.0,0.0,0.0,0.0,0.0,0.0,0.0,0.0,0.0,0.0,0.0,0.0,0.0,0.0,0.0,0.0,0.0,0.0,0.0,0.0,0.0,0.0,0.0,0.0,0.0,7.6067,8.2111,8.6084,9.0517,9.5484,9.5064,9.4338,9.3421,8.9027,8.448,0.0,0.0,0.0,0.0,0.0,0.0,0.0,0.0,0.0,0.0,0.0,0.0,0.0,0.0,0.0,0.0,0.0,0.0,0.0,0.0,0.0,0.0,0.0,0.0,0.0,0.0,0.0,0.0,5.7113,5.7074,5.7309,0.0,0.0,0.0,0.0,0.0,0.0,0.0,0.0,0.0,0.0,6.6221,6.7048,6.8188,6.8539,6.7329,6.7953,6.8031,6.6627,6.5705,6.4815,6.3956,0.0,0.0,0.0,0.0,0.0,0.0,0.0,0.0,0.0,0.0,0.0,0.0,0.0,0.0,0.0,0.0,0.0,0.0,0.0,0.0,0.0,0.0,0.0,0.0,0.0,0.0,0.0,0.0,0.0,0.0,0.0,0.0,0.0,0.0,0.0,0.0,0.0,0.0,0.0,0.0,0.0,0.0,0.0,0.0,0.0,0.0,0.0,0.0,0.0,0.0,0.0,0.0,0.0,7.6265,8.2875,8.6314,9.0517,9.5369,9.556,9.514,9.4299,9.1013,8.6428,8.0544,0.0,0.0,0.0,0.0,0.0,0.0,0.0,0.0,0.0,0.0,0.0,0.0,0.0,0.0,0.0,0.0,0.0,0.0,0.0,0.0,0.0,0.0,0.0,0.0,0.0,0.0,5.8987,5.8285,5.8089,0.0,0.0,0.0,0.0,0.0,0.0,0.0,0.0,0.0,0.0,6.5683,6.7087,6.7898,6.8102,6.8109,6.8031,6.7368,6.6549,6.5652,6.4794,6.3936,0.0,0.0,0.0,0.0,0.0,0.0,0.0,0.0,0.0,0.0,0.0,0.0,0.0,0.0,0.0,0.0,0.0,0.0,0.0,0.0,0.0,0.0,0.0,0.0,0.0,0.0,0.0,0.0,6.0646,0.0,0.0,0.0,0.0,0.0,0.0,0.0,0.0,0.0,0.0,0.0,6.3741,6.4305,0.0,0.0,0.0,0.0,0.0,0.0,0.0,0.0,0.0,0.0,0.0,0.0,7.6303,8.2798,8.6352,9.0249,9.4567,9.5293,9.4949,9.3535,9.0784,8.5473,7.7482,0.0,0.0,0.0,0.0,0.0,0.0,0.0,0.0,0.0,0.0,0.0,0.0,0.0,0.0,0.0,0.0,0.0,0.0,0.0,0.0,0.0,0.0,0.0,0.0,0.0,5.9729,0.0,0.0,0.0,0.0,0.0,0.0,0.0,0.0,0.0,0.0,0.0,6.4419,6.4996,6.6039,6.6849,6.7121,6.7667,6.7638,0.0,0.0,0.0,0.0,0.0,0.0,0.0,0.0,0.0,0.0,0.0,0.0,0.0,0.0,6.1758,5.9524,5.9109,5.9117,5.9117,0.0,0.0,0.0,0.0,0.0,0.0,0.0,0.0,0.0,0.0,0.0,0.0,0.0,0.0,0.0,0.0,6.2871,0.0,0.0,0.0,0.0,0.0,0.0,0.0,0.0,6.6399,6.7286,6.763,6.847,6.8585,0.0,6.8317,6.6865,0.0,0.0,0.0,0.0,0.0,0.0,0.0,0.0,7.6876,8.2837,8.6619,9.0402,9.4146,9.5178,9.4949,9.3535,8.9638,8.4213,7.71,7.3385,7.0072,0.0,0.0,0.0,0.0,0.0,0.0,0.0,0.0,0.0,0.0,0.0,0.0,0.0,0.0,0.0,0.0,0.0,0.0,0.0,0.0,0.0,0.0,0.0,6.1041,0.0,0.0,0.0,0.0,0.0,0.0,0.0,0.0,0.0,6.3397,6.4107,6.4831,6.5377,6.6176,6.6712,6.6712,0.0,0.0,0.0,0.0,0.0,0.0,0.0,6.299,6.3263,6.2851,6.2633,6.3226,6.3795,6.4168,6.4168,0.0,0.0,6.1276,6.0873,6.0812,6.0495,6.05,6.0444,6.0078,5.9748,5.9563,0.0,0.0,0.0,0.0,0.0,0.0,0.0,0.0,6.566,6.5775,0.0,6.5622,0.0,0.0,0.0,0.0,0.0,0.0,0.0,0.0,6.9846,7.1068,7.1909,7.2788,7.317,7.3093,7.2291,7.145,7.0381,6.6483,0.0,0.0,0.0,0.0,0.0,0.0,7.7946,8.2913,8.7116,9.0899,9.4223,9.514,9.5102,9.407,8.7842,8.2798,7.936,7.5302,7.2001,6.9406,6.7072,0.0,0.0,0.0,0.0,0.0,0.0,0.0,0.0,0.0,0.0,0.0,0.0,0.0,0.0,0.0,0.0,0.0,0.0,0.0,0.0,6.3428,0.0,0.0,0.0,0.0,0.0,0.0,0.0,0.0,0.0,0.0,6.445,6.4978,6.5426,6.5465,0.0,0.0,0.0,0.0,6.64,6.5543,6.4686,6.4179,6.4101,6.3439,6.3205,6.3945,0.0,0.0,6.414,6.4179,6.4257,6.4179,6.4296,6.4189,6.4255,6.4053,6.38,6.313,6.292,6.2713,6.1952,6.1199,6.0656,6.9637,0.0,0.0,0.0,0.0,6.8011,6.8897,6.9702,6.9512,6.9437,6.951,6.8792,0.0,0.0,0.0,0.0,0.0,0.0,7.1642,7.2482,7.4125,7.5348,7.6227,7.7067,7.7182,7.657,7.6341,7.573,7.4775,7.1909,6.8967,6.6025,0.0,0.0,0.0,0.0,7.7335,8.2837,8.6581,9.0096,9.3421,9.4299,9.3459,9.0822,8.7116,8.3295,7.9436,7.6415,7.339,7.0355,6.785,0.0,0.0,0.0,0.0,0.0,0.0,0.0,0.0,0.0,0.0,0.0,0.0,0.0,0.0,0.0,0.0,0.0,0.0,0.0,6.417,6.3982,6.3826,0.0,0.0,0.0,0.0,0.0,0.0,0.0,0.0,0.0,6.7657,6.641,6.5621,0.0,0.0,6.6712,6.6712,6.6691,6.6407,6.555,0.0,0.0,0.0,6.3842,6.3776,6.407,6.4637,6.4997,6.5036,6.555,6.5968,6.5961,6.5951,6.5951,6.5904,6.4965,6.4209,6.3897,6.3915,6.3865,6.3594,6.3347,6.312,7.5894,7.2467,7.0525,7.0147,7.0874,7.1673,7.2507,7.3359,7.3359,7.3274,7.315,7.2411,7.1212,6.9854,7.0606,0.0,0.0,0.0,7.5389,7.6303,7.7946,7.9016,7.9551,8.0353,8.0506,7.9971,7.9665,7.8901,7.7678,7.5883,7.317,6.9731,0.0,0.0,7.0954,7.3743,7.7602,8.2416,8.6199,8.9409,9.2045,9.2618,9.1739,8.937,8.6543,8.3372,7.9895,7.7296,7.4618,7.1669,6.9138,6.7314,0.0,0.0,0.0,0.0,0.0,0.0,0.0,0.0,0.0,0.0,0.0,6.1197,6.2002,0.0,0.0,0.0,6.4987,6.5805,6.6165,6.5909,0.0,0.0,0.0,0.0,0.0,0.0,0.0,6.7599,6.7735,6.8115,6.9128,6.792,6.7024,6.718,6.7219,6.7102,6.6751,0.0,6.6396,6.5539,6.5621,6.5648,6.5142,6.5336,6.5686,6.6061,6.6552,6.6886,6.6953,6.7372,6.7684,6.7693,6.7693,6.7576,6.7286,6.6399,6.5496,6.4872,6.4778,6.4726,6.4375,6.432,6.4292,8.1679,7.9772,7.5395,7.3723,7.4134,7.4964,7.6041,7.7109,7.7147,7.7147,7.7071,7.6132,7.5155,7.4096,7.4219,0.0,0.0,7.7455,7.8752,7.9742,8.1423,8.2225,8.234,8.299,8.3295,8.3257,8.2416,8.1232,7.9704,7.8672,7.6991,7.4584,7.2138,7.1259,7.2024,7.508,7.8404,8.1767,8.5817,8.8759,9.044,9.0517,9.002,8.8988,8.5817,8.2913,8.0391,7.7908,7.5462,7.2979,7.0598,6.8556,6.6949,0.0,0.0,0.0,0.0,0.0,0.0,0.0,0.0,0.0,0.0,0.0,0.0,0.0,0.0,0.0,6.7019,0.0,6.9195,6.8582,0.0,0.0,0.0,6.7335,6.8115,6.8193,6.8582,6.9479,0.0,0.0,0.0,0.0,6.9245,6.8338,6.8143,6.7793,6.7013,6.6953,6.6591,6.5956,6.6348,6.6802,6.6828,6.7386,6.8047,6.8708,6.9202,6.9059,6.9033,6.9084,6.9162,6.9071,6.9161,6.8888,6.8104,6.792,6.7563,6.59,6.5672,6.5465,6.4803,6.463,6.4643,8.4067,8.2912,8.1795,8.0047,7.8142,7.9491,8.0166,8.024,8.0203,8.0189,7.9972,7.8653,7.8134,7.8132,7.7699,7.8055,7.9131,8.0886,8.2146,8.3063,8.4784,8.597,8.6543,8.6123,8.5893,8.5817,8.4403,8.3486,8.3028,8.0926,7.9283,7.8022,7.615,7.4698,7.3743,7.5653,7.8366,8.1767,8.4632,8.7269,8.9523,8.96,8.8606,8.6467,8.383,8.1194,7.8672,7.68,7.4622,7.2138,7.026,6.8762,6.7752,6.5388,0.0,0.0,0.0,0.0,0.0,0.0,0.0,0.0,0.0,6.2782,6.3638,0.0,6.5775,0.0,6.7852,6.8968,6.9176,6.9028,0.0,0.0,6.9379,6.9741,6.9946,6.9985,7.057,7.205,7.1622,7.1466,7.2128,7.2195,7.1626,7.0146,6.9367,6.8822,6.8627,6.8579,6.85,6.8253,6.8341,6.8521,6.8559,6.8652,6.8914,6.9109,6.9186,6.9162,6.9175,6.9172,6.9119,6.9176,6.9176,6.8876,6.8182,6.8018,6.7664,6.6752,6.6492,6.6443,6.6247,6.6192,6.6165,8.5994,8.4685,8.4648,8.3657,8.2067,8.2826,8.289,8.2556,8.2928,8.2834,8.233,8.1007,8.0441,8.0462,8.0574,8.1218,8.2309,8.3811,8.4965,8.5845,8.6885,8.7651,8.8071,8.7613,8.7192,8.6772,8.5855,8.5015,8.425,8.2875,8.1385,7.9818,7.8863,7.7564,7.5959,7.68,7.8748,8.1805,8.4632,8.6963,8.8644,8.7995,8.6772,8.5015,8.2531,8.0047,7.7526,7.6188,7.4316,7.1833,7.0457,6.9381,6.8533,6.6183,6.466,0.0,0.0,0.0,0.0,0.0,0.0,0.0,0.0,0.0,0.0,0.0,6.7437,0.0,6.9632,0.0,7.1379,7.142,7.1446,7.1536,7.2004,7.2289,7.2284,7.2284,7.2674,7.357,7.3258,7.3142,7.3625,7.3691,7.3315,7.2329,7.1732,7.0862,6.9474,6.9123,6.925,6.96,6.9997,7.0354,7.0704,7.0798,7.0658,7.0308,7.0231,7.0285,7.0261,7.0231,7.0231,7.0278,7.033,6.9915,6.8844,6.8564,6.8193,6.7126,6.6784,6.6787,6.6797,6.6823,6.6834,8.7674,8.6066,8.5967,8.5905,8.5778,8.5507,8.4963,8.4435,8.5249,8.5064,8.4139,8.3169,8.2499,8.2219,8.3201,8.4163,8.5119,8.6311,8.7242,8.8057,8.8298,8.8415,8.8415,8.8301,8.7842,8.7116,8.6925,8.6046,8.4632,8.4403,8.3181,8.1079,8.085,8.0086,7.8708,7.8634,7.978,8.211,8.5206,8.7116,8.7727,8.6161,8.4938,8.3945,8.1499,7.8978,7.6494,7.5615,7.4049,7.168,7.0724,6.9922,6.9196,6.7042,6.5771,0.0,6.4473,0.0,0.0,0.0,0.0,0.0,0.0,0.0,0.0,6.7425,6.8994,7.1494,7.1785,7.2479,7.4039,7.4188,7.4272,7.4366,7.447,7.4574,7.4572,7.4544,7.4622,7.4739,7.4622,7.4521,7.4535,7.4561,7.4509,7.417,7.4009,7.2983,7.0601,6.9989,7.0285,7.079,7.1458,7.2142,7.2569,7.2763,7.2452,7.1753,7.1481,7.1598,7.1481,7.152,7.1591,7.1612,7.1587,7.1109,6.9702,6.9372,6.8729,6.7257,6.6869,6.6795,6.6789,6.6833,6.6883,8.9374,8.8914,8.8635,8.8533,8.8393,8.8316,8.7415,8.5973,8.6722,8.6241,8.4938,8.4916,8.5052,8.5209,8.5778,8.6241,8.6728,8.7977,8.8651,8.8803,8.9745,9.0135,9.0096,8.9409,8.8988,8.8759,8.746,8.6658,8.6314,8.4938,8.4059,8.3563,8.2875,8.234,0.0,0.0,0.0,0.0,8.5779,8.6543,8.597,8.5015,8.3792,8.2302,7.9818,0.0,7.4813,7.3896,7.2597,7.0763,6.9884,0.0,0.0,0.0,0.0,0.0,0.0,0.0,0.0,0.0,0.0,0.0,6.9066,6.9321,6.8304,6.9601,7.1263,7.3064,7.3386,7.3586,7.3976,7.4127,7.425,7.4325,7.4962,7.5392,7.5429,7.5441,7.5713,7.6415,7.5845,7.5392,7.5379,7.5337,7.502,7.4421,7.4195,7.3984,7.3324,7.309,7.3246,7.3479,7.3579,7.3501,7.2957,7.2957,7.2685,7.1831,7.1598,7.1598,7.1598,7.1598,7.1614,7.1661,7.1675,7.1418,7.0446,6.9718,6.8961,6.795,6.7248,6.6814,6.6809,6.6834,6.6871,8.9748,0.0,8.9093,8.9021,0.0,8.9422,8.8764,8.7545,8.7986,8.7321,8.6016,8.5909,8.5881,8.5872,8.7061,8.7824,8.8216,8.9963,9.0768,9.0814,9.1037,9.1204,9.1166,9.0364,8.9714,8.9256,8.8453,8.7842,8.7384,8.6161,8.532,8.4862,8.4059,8.3639,8.3677,8.444,8.4669,8.4289,8.555,8.5779,8.4938,8.4098,8.2646,8.0621,0.0,0.0,0.0,0.0,0.0,0.0,0.0,0.0,0.0,0.0,0.0,6.8571,6.822,6.805,6.8148,6.8925,6.9606,7.0067,7.1679,7.2188,7.1017,7.2095,7.3432,7.4719,7.526,7.5809,7.635,7.6514,7.6614,7.6777,7.6801,7.6844,7.6885,7.6547,7.6469,7.6819,7.656,7.6246,7.6193,7.6163,7.596,7.5555,7.5461,7.5405,7.5327,7.4706,7.4317,7.4783,7.5249,7.5133,7.4356,7.3773,7.3229,7.2452,7.187,7.1636,7.1598,7.1598,7.1653,7.1684,7.1699,7.1418,7.0694,7.0135,6.9601,6.8788,6.7979,6.7413,6.7397,6.7129,6.6836,8.9895,8.9198,8.9308,8.9269,8.9378,9.0179,9.0033,8.9344,0.0,0.0,0.0,8.6875,8.6546,8.6499,8.8167,8.914,8.97,9.1547,9.2489,9.2632,9.222,9.1888,9.1735,9.1128,9.0364,8.9561,8.937,8.895,8.8301,8.746,8.6658,8.597,8.5282,8.4976,8.509,8.6309,8.635,8.5053,8.5473,8.5282,8.4327,8.3448,8.1881,7.9551,7.8519,7.657,7.359,7.3284,7.2482,7.0954,7.0877,7.0839,7.0839,7.0228,7.0228,7.0954,7.0522,7.0554,7.1395,7.2148,7.2569,7.2722,7.421,7.4811,7.4029,7.4597,7.5434,7.634,7.7083,7.788,7.876,7.8897,7.905,7.9253,7.8682,7.8279,7.8129,7.7559,7.7092,7.6936,7.6869,7.6879,7.6754,7.6754,7.676,7.6687,7.657,7.6687,7.6531,7.556,7.5016,7.5599,7.6143,7.6298,7.5405,7.4628,7.3851,7.2724,7.1986,7.1636,7.1598,7.1598,7.1614,7.1645,7.1684,7.1403,7.0888,7.059,7.029,6.9634,6.8837,6.8193,6.8054,6.7526,6.706,9.0757,9.0606,9.1176,9.1386,9.1422,9.2256,9.2111,9.1205,8.956,8.869,8.8545,8.8798,8.904,8.93,9.0079,9.0647,9.1151,9.1854,9.2228,0.0,9.2611,9.2328,9.1604,9.1658,9.1204,9.0402,8.9676,8.9256,8.9065,8.8301,8.7842,8.7727,8.7613,8.7536,8.7575,8.7804,8.7804,8.7575,8.6925,8.5855,8.4327,8.3448,8.2149,8.0391,7.8825,7.7105,7.5233,7.4431,7.359,7.2711,7.2635,7.2635,7.2635,7.252,7.2826,7.359,7.3552,7.3896,7.4733,7.4924,7.5271,7.6,7.6953,7.7211,7.6574,7.6574,7.6996,7.7873,7.8192,7.8421,7.8623,7.8889,7.9099,7.9233,7.9194,7.8876,7.8279,7.7983,7.7633,7.7064,7.6864,7.6793,7.6793,7.676,7.6704,7.6687,7.6687,7.6687,7.6648,7.6531,7.6415,7.6493,7.6609,7.6065,7.4939,7.4356,7.3579,7.2025,7.1714,7.1598,7.1598,7.1598,7.1598,7.1614,7.1614,7.1568,7.1432,7.094,7.0628,7.0364,6.9723,6.8953,6.8349,6.8,6.7659,9.2046,9.2119,9.2284,9.2465,9.2501,9.2863,9.2791,9.232,9.0994,8.9952,8.9305,8.924,8.9381,8.9735,9.0646,9.1285,9.1717,9.273,9.3342,9.3515,9.3411,9.3174,9.2886,9.2474,9.1909,9.1108,9.0727,9.0269,8.9859,8.9058,8.8718,8.8759,8.8759,8.8759,8.8797,8.9176,8.9096,8.8638,8.7419,8.6197,8.4935,8.4057,8.2567,8.0391,7.9552,7.8142,7.6082,7.5588,7.5016,7.4252,7.4211,7.4246,7.4246,7.432,7.4698,7.5501,7.5539,7.5959,7.68,7.6838,7.722,7.8062,7.8481,7.8785,7.8894,7.8509,7.8432,7.8884,7.9335,7.9736,7.9892,8.0,8.0164,8.0439,8.0144,7.9776,7.942,7.8598,7.7953,7.7564,7.7049,7.676,7.676,7.6743,7.6687,7.6687,7.6687,7.6687,7.6687,7.6687,7.6687,7.6687,7.6687,7.6221,7.5094,7.4472,7.3695,7.2491,7.1908,7.1636,7.1598,7.1598,7.1598,7.1598,7.1598,7.163,7.1665,7.1446,7.1239,7.1182,7.057,6.984,6.9479,6.878,6.7859,9.3008,9.3008,9.3189,9.337,9.3551,9.3551,9.3443,9.3225,9.2573,9.1603,9.0456,8.9966,8.9935,9.0226,9.1458,9.2306,9.2801,9.3672,9.4348,9.4648,9.4135,9.3845,9.3791,9.3155,9.2433,9.1757,9.1529,9.1164,9.0606,8.9768,8.9392,8.9558,8.9516,8.9516,8.9558,9.004,9.0035,8.931,8.7985,8.665,8.5384,8.4698,8.3209,8.0956,8.0385,7.9282,7.7417,7.6922,7.6427,7.5818,7.5817,7.5855,7.5817,7.5964,7.6382,7.7108,7.7296,7.7678,7.8443,7.8557,7.8863,7.9474,7.9551,7.9819,8.0316,7.9896,7.9551,7.9698,8.0157,8.0608,8.0773,8.097,8.1196,8.135,8.0981,8.057,8.0398,7.9406,7.8548,7.8315,7.7559,7.7036,7.6959,7.6803,7.6687,7.6687,7.6687,7.6687,7.6687,7.6687,7.6687,7.6687,7.6687,7.6221,7.5405,7.4628,7.3773,7.2841,7.2025,7.1675,7.1598,7.1598,7.1598,7.1598,7.1598,7.163,7.1665,7.1679,7.1667,7.165,7.1232,7.0814,7.0445,6.9163,6.7893,9.3044,9.3117,9.3805,9.4529,9.5072,9.5109,9.471,9.4131,9.395,9.3479,9.2618,9.2054,9.1968,9.2496,9.3455,9.4259,9.4883,9.4589,9.4672,9.5021,9.4537,9.3909,9.3501,9.3415,9.3074,9.2364,9.1691,9.1359,9.1233,9.0472,9.0181,9.0269,9.0181,9.0143,9.0269,9.0257,9.0129,9.0053,8.9216,8.7617,8.5371,8.5143,8.4268,8.2517,8.1032,8.0157,7.9774,7.8406,7.7569,7.7493,7.7493,7.7493,7.7455,7.757,7.7951,7.8828,7.8979,7.9398,8.0124,8.0277,8.0238,8.0391,8.0278,8.0277,8.0392,8.0199,8.02,8.0316,8.043,8.0542,8.065,8.0849,8.1047,8.1167,8.1246,8.1127,8.05,8.0317,7.9971,7.9195,7.8359,7.7891,7.7813,7.727,7.6764,7.6687,7.6687,7.6687,7.6687,7.6687,7.6687,7.6687,7.6687,7.6026,7.4822,7.4278,7.354,7.218,7.1675,7.1598,7.1598,7.1598,7.1598,7.1598,7.1598,7.163,7.169,7.1679,7.1706,7.1794,7.1622,7.1438,7.0639,6.9294,6.7968,9.442,9.4457,9.4783,9.5072,9.5362,9.5398,9.5217,9.4855,9.4384,9.3986,9.3732,9.3452,9.3296,9.3097,9.37,9.4264,9.4702,9.4615,9.4875,9.5357,9.4819,9.4399,9.4387,9.4064,9.3477,9.2776,9.2503,9.1925,9.109,9.04,9.0159,9.025,9.025,9.025,9.025,9.0159,9.0075,9.0075,8.9678,8.8492,8.667,8.6077,8.5013,8.3367,8.257,8.1962,8.1431,8.033,7.9723,7.9685,7.9312,7.9046,7.9087,7.9129,7.9361,7.9742,7.9781,7.9971,8.0276,8.0314,8.0314,8.0314,8.0275,8.0275,8.0313,8.0154,8.0154,8.0314,8.0392,8.0468,8.0542,8.0685,8.0855,8.1047,8.1196,8.1154,8.1014,8.0593,8.0196,7.9847,7.9194,7.8709,7.8592,7.799,7.7308,7.6842,7.6687,7.6687,7.6687,7.6687,7.6687,7.6687,7.6687,7.5988,7.4628,7.42,7.3424,7.218,7.1598,7.1598,7.1598,7.1598,7.1598,7.1598,7.1598,7.163,7.1704,7.1718,7.1732,7.1794,7.1778,7.1555,7.0775,6.9626,6.8561,9.5398,9.5398,9.5398,9.5398,9.5398,9.5398,9.5398,9.5326,9.4783,9.4529,9.4529,9.4529,9.4286,9.3942,9.427,9.4504,9.4774,9.4816,9.514,9.5551,9.4719,9.4521,9.4796,9.4264,9.361,9.32,9.3013,9.2145,9.0811,9.0423,9.02,9.0151,9.0075,9.0075,9.0159,8.9982,8.9935,8.9973,8.9839,8.9146,8.7781,8.7003,8.5751,8.4105,8.3726,8.3309,8.274,8.1906,8.1452,8.1452,8.0932,8.0634,8.0672,8.0756,8.0839,8.088,8.088,8.088,8.088,8.088,8.0766,8.0538,8.0497,8.0421,8.0192,7.9992,8.003,8.0113,8.0233,8.0314,8.0431,8.0505,8.065,8.0855,8.0984,8.1137,8.1214,8.0808,8.06,8.057,7.9963,7.9388,7.9136,7.8476,7.7679,7.7231,7.6881,7.6687,7.6687,7.6687,7.6687,7.6687,7.6687,7.6143,7.4861,7.4317,7.3501,7.2491,7.187,7.1598,7.1598,7.1598,7.1598,7.1598,7.1598,7.163,7.1651,7.1718,7.1745,7.1794,7.1778,7.1661,7.1165,7.0084,6.9197,9.5398,9.5398,9.5398,9.5362,9.5362,9.5362,9.5362,9.529,9.529,9.529,9.5253,9.529,9.529,9.5265,9.5358,9.5794,9.6045,9.535,9.5403,9.5807,9.4367,9.3937,9.4328,9.3647,9.3364,9.3447,9.2848,9.1825,9.0528,9.0698,9.0524,8.9866,8.9839,8.9887,8.9935,8.9887,8.979,8.979,8.979,8.9373,8.8539,8.7743,8.653,8.4976,8.4029,8.3612,8.346,8.2778,8.2323,8.2323,8.221,8.221,8.2254,8.2304,8.2352,8.2437,8.2517,8.2517,8.2479,8.2399,8.2174,8.1486,8.125,8.0904,8.022,8.006,8.0017,7.9941,7.9988,8.0113,8.0195,8.0392,8.0506,8.058,8.0754,8.092,8.1016,8.1051,8.1231,8.1246,8.0701,8.0019,7.9349,7.8438,7.803,7.7718,7.7192,7.6687,7.6687,7.6687,7.6687,7.6687,7.6648,7.6415,7.556,7.4706,7.3851,7.288,7.2025,7.1598,7.1598,7.1598,7.1598,7.1598,7.1614,7.1645,7.1651,7.1693,7.1719,7.1755,7.1817,7.1622,7.1466,7.0258,6.9421,9.5398,9.5398,9.5398,9.5109,9.4638,9.4638,9.4638,9.4638,9.4638,9.4927,9.5326,9.5398,9.5398,9.5362,9.5482,9.5695,9.5903,9.5611,9.5705,9.6061,9.5184,9.4631,9.4364,9.39,9.3434,9.3044,9.2939,9.2241,9.1114,9.0661,9.0163,8.9793,8.9642,8.9741,8.9877,8.979,8.979,8.979,8.979,8.9411,8.8691,8.8312,8.7364,8.5772,8.4863,8.4408,8.4408,8.3612,8.3157,8.3157,8.2664,8.2399,8.2399,8.2406,8.245,8.2494,8.2494,8.2532,8.2532,8.2494,8.238,8.2076,8.2033,8.1653,8.0889,8.0699,8.0466,8.0049,7.9941,7.9984,8.0068,8.0195,8.0354,8.0506,8.0616,8.0723,8.0822,8.0953,8.1077,8.1157,8.1053,8.0802,7.998,7.9213,7.8515,7.7952,7.7213,7.6764,7.6687,7.6687,7.6687,7.6687,7.6687,7.6609,7.6376,7.5016,7.389,7.3035,7.2258,7.1792,7.1598,7.1598,7.1598,7.1598,7.1614,7.1661,7.1718,7.1719,7.1743,7.1794,7.1817,7.1817,7.1817,7.0658,6.9899,9.5253,9.5,9.5,9.4565,9.3877,9.3841,9.3841,9.3841,9.4094,9.4493,9.5,9.5253,9.5398,9.5398,9.5398,9.5482,9.5612,9.5612,9.5777,9.5991,9.5418,9.4992,9.4743,9.3966,9.3403,9.3023,9.2996,9.2529,9.153,9.0846,9.0305,8.9838,8.9678,8.9591,8.9692,8.9741,8.9741,8.979,8.979,8.9525,8.9032,8.8729,8.8084,8.6947,8.5886,8.5128,8.4939,8.4332,8.3991,8.3953,8.3498,8.3195,8.3195,8.3195,8.3195,8.3195,8.3195,8.3195,8.3195,8.3195,8.3081,8.2816,8.274,8.2399,8.1603,8.1262,8.0807,8.039,7.9973,7.9898,7.9941,8.0026,8.0154,8.0314,8.0354,8.043,8.0652,8.0723,8.0855,8.1016,8.1253,8.1143,8.0662,7.9731,7.9019,7.836,7.7427,7.6726,7.6687,7.6687,7.6687,7.6687,7.6687,7.6687,7.6454,7.5521,7.4511,7.3618,7.2647,7.2103,7.1598,7.1598,7.1598,7.1614,7.1645,7.169,7.1732,7.1782,7.1806,7.1817,7.1817,7.1817,7.1555,7.1126,7.0337,9.4927,9.4312,9.4239,9.3768,9.308,9.3008,9.3008,9.3117,9.3805,9.4167,9.4457,9.5036,9.5398,9.5398,9.5398,9.5398,9.5482,9.5482,9.5529,9.5622,9.5049,9.4932,9.5178,9.3932,9.3381,9.3444,9.2986,9.2373,9.1641,9.1334,9.0846,9.0156,8.9679,8.9551,8.9591,8.9591,8.9679,8.9741,8.9741,8.9752,8.9714,8.907,8.8615,8.8312,8.6985,8.5848,8.5014,8.4901,8.4787,8.4825,8.4787,8.4863,8.4711,8.4673,8.4825,8.4711,8.4787,8.4825,8.4787,8.4711,8.4256,8.3802,8.3612,8.3271,8.2437,8.1755,8.1262,8.0921,8.039,7.9973,7.9936,7.9941,7.9946,7.9992,8.0154,8.0237,8.0315,8.0468,8.0614,8.092,8.1137,8.1347,8.1092,8.0051,7.9093,7.8767,7.7699,7.6687,7.6687,7.6687,7.6687,7.6687,7.6687,7.6687,7.6415,7.6026,7.5211,7.4356,7.3346,7.253,7.1831,7.1598,7.1598,7.1614,7.1661,7.1704,7.1758,7.1806,7.1806,7.1817,7.1817,7.1817,7.1594,7.1204,7.0445,9.4927,9.4239,9.4203,9.3406,9.2247,9.2175,9.2175,9.2284,9.3044,9.3696,9.4276,9.5036,9.5398,9.5398,9.5398,9.5398,9.5398,9.5398,9.5446,9.5493,9.5358,9.5167,9.4938,9.4618,9.4116,9.3343,9.2639,9.2104,9.1734,9.1556,9.1087,9.0247,8.9968,8.9738,8.9446,8.9423,8.9489,8.9489,8.9591,8.9679,8.9642,8.9514,8.9184,8.8615,8.8084,8.7175,8.581,8.5204,8.4939,8.4901,8.4901,8.4901,8.4901,8.4901,8.4901,8.4901,8.4901,8.4901,8.4901,8.4901,8.4787,8.4522,8.4484,8.4067,8.3347,8.2968,8.2285,8.1376,8.0845,8.0542,8.0011,7.9898,7.9903,7.9992,8.0072,8.0113,8.0235,8.0392,8.0505,8.065,8.092,8.1107,8.0944,7.9881,7.9044,7.8977,7.772,7.6729,7.6708,7.6669,7.6687,7.6687,7.6687,7.6687,7.6531,7.6337,7.5793,7.4861,7.3851,7.2918,7.218,7.1598,7.1598,7.163,7.169,7.1732,7.1782,7.1806,7.1817,7.1817,7.1817,7.1778,7.1788,7.137,7.0727,9.4746,9.3805,9.3768,9.2827,9.1414,9.1342,9.1342,9.1523,9.2537,9.3298,9.3913,9.4927,9.5398,9.5398,9.5398,9.5398,9.5398,9.5398,9.5398,9.5398,9.5529,9.5404,9.5181,9.4948,9.4334,9.3272,9.2425,9.1975,9.1838,9.1602,9.1167,9.0751,9.0483,9.0284,8.9986,9.0004,9.0114,9.0222,9.0367,9.0231,9.0107,9.0134,8.9855,8.9097,8.8718,8.8084,8.7023,8.6,8.5204,8.4976,8.4901,8.4901,8.4901,8.4901,8.4901,8.4901,8.4901,8.4901,8.4901,8.4901,8.4901,8.4901,8.4901,8.4711,8.4143,8.3877,8.3006,8.2285,8.1452,8.0883,8.0428,8.0011,7.9941,7.9946,7.9988,8.003,8.0113,8.0235,8.0354,8.0505,8.072,8.092,8.0731,7.9814,7.8989,7.8773,7.7659,7.6672,7.6671,7.6671,7.6671,7.669,7.669,7.6708,7.6687,7.6531,7.6298,7.5366,7.4317,7.3385,7.253,7.187,7.1598,7.1661,7.1718,7.1758,7.1806,7.1806,7.1817,7.1817,7.1817,7.1827,7.1838,7.1858,7.1252,9.4457,9.308,9.3008,9.2139,9.0762,9.069,9.069,9.0907,9.232,9.3044,9.337,9.471,9.5398,9.5398,9.5398,9.5398,9.5398,9.5398,9.5398,9.5398,9.5482,9.554,9.5728,9.4842,9.3968,9.3235,9.2281,9.1948,9.1978,9.1565,9.1327,9.1465,9.0924,9.0777,9.0797,9.1066,9.1071,9.1264,9.1489,9.1168,9.0728,9.0788,9.0499,8.9705,8.9135,8.8653,8.8198,8.6834,8.5659,8.5052,8.4901,8.4901,8.4901,8.4901,8.4901,8.4901,8.4901,8.4901,8.4901,8.4901,8.4901,8.4901,8.4901,8.4901,8.4711,8.4181,8.3688,8.3271,8.221,8.1338,8.111,8.0504,8.0087,7.9898,7.9941,7.9946,7.995,7.9992,8.0157,8.0354,8.0542,8.0681,8.0837,7.9625,7.8979,7.8578,7.755,7.6746,7.6594,7.6614,7.6652,7.6672,7.6691,7.6671,7.669,7.6648,7.6454,7.6026,7.4939,7.3929,7.2896,7.2158,7.163,7.169,7.1745,7.1782,7.1806,7.1817,7.1817,7.1817,7.1827,7.1838,7.1848,7.1906,7.1378,9.4457,9.3044,9.3008,9.2066,9.0726,9.0618,9.0618,9.0799,9.232,9.3008,9.337,9.4674,9.5398,9.5398,9.5398,9.5398,9.5398,9.5398,9.5398,9.5398,9.5398,9.5658,9.5662,9.4655,9.4002,9.3786,9.2574,9.1876,9.2091,9.1904,9.1675,9.1327,9.1239,9.0926,9.0573,9.0663,9.0715,9.0961,9.1237,9.1375,9.1245,9.1008,9.0839,9.0537,8.9843,8.9222,8.8539,8.7023,8.5735,8.4976,8.4901,8.4901,8.4901,8.4901,8.4901,8.4901,8.4901,8.4901,8.4901,8.4901,8.4901,8.4901,8.4901,8.4901,8.4901,8.4711,8.4256,8.3764,8.3081,8.2627,8.2058,8.1262,8.058,8.0011,7.9936,7.9898,7.9903,7.9988,8.0034,8.0116,8.0354,8.0542,8.0409,7.9569,7.8661,7.8451,7.7485,7.6421,7.6466,7.6531,7.6549,7.6632,7.6652,7.6691,7.6671,7.6708,7.6609,7.6454,7.5599,7.4511,7.3362,7.2291,7.1909,7.1693,7.177,7.1806,7.1817,7.1817,7.1817,7.1817,7.1817,7.1827,7.1858,7.1876,7.1144,9.4457,9.3008,9.3008,9.2066,9.069,9.0618,9.0799,9.1306,9.2428,9.3225,9.3732,9.4783,9.5398,9.5398,9.5398,9.5398,9.5398,9.5398,9.5398,9.5398,9.5398,9.5576,9.5539,9.4792,9.4366,9.3966,9.2941,9.228,9.2022,9.1948,9.1726,9.1573,9.1532,9.1343,9.1011,9.1037,9.1202,9.1437,9.1721,9.1857,9.1746,9.1715,9.1272,9.0963,9.0398,8.9817,8.8605,8.7364,8.6151,8.5204,8.4901,8.4901,8.4901,8.4901,8.4901,8.4901,8.4901,8.4901,8.4901,8.4901,8.4901,8.4901,8.4901,8.4901,8.4901,8.4901,8.4597,8.4256,8.3839,8.3385,8.2816,8.1831,8.0959,8.0504,8.0087,7.9898,7.9898,7.9903,7.995,8.0034,8.0235,8.0431,8.0503,7.9259,7.8685,7.8257,7.7213,7.6572,7.6276,7.635,7.6444,7.651,7.6612,7.6652,7.671,7.669,7.6687,7.6531,7.6104,7.5055,7.4133,7.292,7.2496,7.2264,7.2028,7.1856,7.1895,7.1895,7.1817,7.1817,7.1817,7.1838,7.1858,7.1876,7.1105,9.4457,9.3008,9.3008,9.2066,9.0726,9.0726,9.1161,9.1849,9.2791,9.3551,9.4203,9.5,9.5362,9.5398,9.5398,9.5398,9.5398,9.5398,9.5398,9.5398,9.5398,9.5529,9.5586,9.5108,9.4541,9.3887,9.3381,9.2537,9.1987,9.1803,9.173,9.1584,9.162,9.1694,9.151,9.1764,9.2055,9.2151,9.238,9.2449,9.2281,9.2405,9.2016,9.1332,9.0915,9.007,8.8832,8.7695,8.6682,8.5128,8.4976,8.4901,8.4901,8.4901,8.4901,8.4901,8.4901,8.4901,8.4901,8.4901,8.4901,8.4901,8.4901,8.4901,8.4901,8.4901,8.4863,8.4749,8.4143,8.3764,8.3347,8.221,8.1414,8.1035,8.039,8.0087,7.9898,7.9898,7.9941,7.9988,8.0113,8.0275,8.0011,7.9315,7.8377,7.8283,7.7216,7.6573,7.6272,7.6225,7.6301,7.6397,7.6488,7.6632,7.6691,7.669,7.6708,7.6609,7.6298,7.5616,7.502,7.4077,7.3497,7.3068,7.2741,7.2401,7.2206,7.2089,7.1934,7.1817,7.1817,7.1848,7.1876,7.1885,7.1425,9.4457,9.3008,9.3008,9.2066,9.0835,9.1269,9.1668,9.1958,9.3334,9.4022,9.4384,9.5072,9.5362,9.5398,9.5398,9.5398,9.5398,9.5398,9.5398,9.5398,9.5398,9.5398,9.5384,9.4895,9.4415,9.381,9.3082,9.2388,9.1766,9.1583,9.1508,9.1358,9.1358,9.1358,9.1358,9.1433,9.1583,9.1912,9.2266,9.2535,9.2737,9.2713,9.2616,9.2202,9.1468,9.0233,8.8794,8.7819,8.6909,8.6,8.528,8.5014,8.4939,8.4901,8.4901,8.4901,8.4901,8.4901,8.4901,8.4901,8.4901,8.4901,8.4901,8.4901,8.4901,8.4901,8.4901,8.4901,8.4711,8.4256,8.3726,8.3309,8.2437,8.1565,8.0997,8.0542,8.0087,7.9898,7.9898,7.9903,7.9988,8.0075,8.0237,7.9553,7.8782,7.8202,7.75,7.6701,7.6447,7.6332,7.643,7.6687,7.6737,7.6845,7.6652,7.6671,7.6708,7.6687,7.6432,7.6255,7.5697,7.5157,7.4535,7.3937,7.3364,7.3052,7.2674,7.2206,7.2011,7.1895,7.1817,7.1848,7.1867,7.1876,7.1823,9.4457,9.308,9.3406,9.2646,9.1414,9.203,9.261,9.3044,9.3805,9.442,9.4783,9.5253,9.5398,9.5398,9.5398,9.5398,9.5398,9.5398,9.5398,9.5398,9.5398,9.5398,9.5217,9.4648,9.4096,9.365,9.3367,9.2527,9.165,9.1358,9.1282,9.1053,9.1089,9.0975,9.0975,9.1012,9.1206,9.1508,9.1912,9.2266,9.267,9.2928,9.2951,9.2767,9.1823,9.0586,8.9828,8.8577,8.763,8.6758,8.5924,8.528,8.4939,8.4901,8.4901,8.4901,8.4901,8.4901,8.4901,8.4901,8.4901,8.4901,8.4901,8.4901,8.4901,8.4901,8.4901,8.4901,8.4863,8.4673,8.4256,8.3726,8.3043,8.2437,8.1527,8.0921,8.0504,8.0125,7.9898,7.9941,7.9988,7.9992,7.9888,7.9513,7.9133,7.8522,7.8094,7.7352,7.7483,7.7378,7.7169,7.7216,7.7195,7.7074,7.6749,7.6652,7.6669,7.6704,7.6682,7.6638,7.6412,7.5949,7.5482,7.491,7.4299,7.3531,7.3103,7.2635,7.2167,7.1934,7.1827,7.1848,7.1858,7.1876,7.187,9.4167,9.2899,9.3587,9.3044,9.2066,9.2646,9.3406,9.4094,9.4348,9.4783,9.529,9.5398,9.5398,9.5398,9.5398,9.5398,9.5398,9.5398,9.5398,9.5398,9.5398,9.5398,9.5217,9.4565,9.3887,9.3288,9.3164,9.2368,9.1421,9.113,9.1053,9.0934,9.1037,9.1,9.0733,9.1067,9.1303,9.1279,9.1802,9.2167,9.2547,9.2905,9.3101,9.2843,9.2049,9.1218,9.0586,8.9411,8.816,8.744,8.6568,8.5735,8.5128,8.4901,8.4901,8.4901,8.4901,8.4901,8.4901,8.4901,8.4901,8.4901,8.4901,8.4901,8.4901,8.4901,8.4901,8.4901,8.4901,8.4901,8.4863,8.437,8.3839,8.3271,8.2134,8.1376,8.0959,8.039,7.9973,7.9898,7.9946,7.9988,7.9882,7.9622,7.9203,7.8864,7.8446,7.8173,7.8275,7.825,7.7997,7.7923,7.793,7.7659,7.7293,7.6691,7.6747,7.6799,7.6816,7.6825,7.6894,7.6599,7.613,7.5819,7.5207,7.4427,7.3726,7.3219,7.2713,7.2167,7.1827,7.1838,7.1858,7.1915,7.187,9.2863,9.203,9.2139,9.203,9.1958,9.2682,9.3479,9.4239,9.4855,9.5253,9.5362,9.5398,9.5398,9.5398,9.5398,9.5398,9.5398,9.5398,9.5398,9.5398,9.5398,9.5362,9.5109,9.442,9.3696,9.309,9.2562,9.1812,9.1193,9.0975,9.0892,9.0806,9.1313,9.1269,9.1269,9.1785,9.1937,9.1484,9.2089,9.2537,9.2491,9.281,9.309,9.3013,9.2247,9.166,9.0927,8.9563,8.8236,8.744,8.6568,8.5772,8.5128,8.4901,8.4901,8.4901,8.4901,8.4901,8.4901,8.4901,8.4901,8.4901,8.4901,8.4901,8.4901,8.4901,8.4901,8.4901,8.4901,8.4901,8.4901,8.4673,8.4294,8.365,8.2778,8.1869,8.1186,8.0466,7.9936,7.9898,7.9903,7.9903,7.9836,7.9727,7.9502,7.9279,7.9095,7.8787,7.87,7.8711,7.8613,7.8656,7.8742,7.8357,7.7971,7.7213,7.6803,7.6932,7.6965,7.6879,7.6922,7.6962,7.6715,7.6376,7.6025,7.5441,7.47,7.3999,7.3297,7.2752,7.2295,7.1866,7.1848,7.1906,7.194,9.2537,9.1885,9.2247,9.2175,9.2066,9.3117,9.3841,9.4312,9.5036,9.5398,9.5398,9.5398,9.5398,9.5398,9.5398,9.5398,9.5398,9.5398,9.5398,9.5398,9.5362,9.5109,9.4746,9.3986,9.3153,9.2356,9.164,9.1176,9.0776,9.074,9.0878,9.1233,9.1668,9.1776,9.1958,9.2537,9.2618,9.2315,9.2774,9.3011,9.2789,9.3107,9.3349,9.3238,9.2609,9.1988,9.1534,9.0131,8.8653,8.763,8.7023,8.6114,8.5318,8.4901,8.4901,8.4901,8.4901,8.4901,8.4901,8.4901,8.4901,8.4901,8.4901,8.4901,8.4901,8.4901,8.4901,8.4901,8.4901,8.4901,8.4901,8.4901,8.4673,8.4181,8.3195,8.2323,8.1641,8.0618,8.0163,7.9973,7.9898,7.9941,7.9903,7.9832,7.9761,7.9695,7.9627,7.9438,7.9201,7.9358,7.9451,7.9365,7.9447,7.9076,7.8611,7.7969,7.7404,7.7415,7.7291,7.7205,7.7053,7.7131,7.7065,7.6843,7.6493,7.6142,7.5635,7.4895,7.4116,7.3336,7.2869,7.2412,7.2033,7.1897,7.1932,9.2139,9.1632,9.2247,9.2247,9.2066,9.3153,9.3805,9.4131,9.4783,9.5109,9.5181,9.529,9.5398,9.5398,9.5398,9.5398,9.5398,9.5398,9.5398,9.5398,9.5362,9.5,9.4203,9.337,9.2646,9.1921,9.1088,9.0618,9.0654,9.0835,9.1269,9.174,9.1958,9.2428,9.2899,9.3406,9.3461,9.3324,9.3717,9.3704,9.3524,9.364,9.3845,9.3897,9.2781,9.2139,9.2064,9.0586,8.8956,8.7895,8.7213,8.6606,8.5242,8.4901,8.4901,8.4901,8.4901,8.4901,8.4901,8.4901,8.4901,8.4901,8.4901,8.4901,8.4901,8.4901,8.4901,8.4901,8.4901,8.4901,8.4901,8.4901,8.4901,8.4597,8.3612,8.2551,8.221,8.1452,8.0504,8.0239,8.0049,7.9898,7.9941,7.9946,7.9878,7.9961,7.9932,8.0162,7.9999,8.0389,8.0444,8.0254,8.0074,7.9737,7.931,7.8823,7.8392,7.8326,7.8124,7.792,7.7611,7.7377,7.726,7.7194,7.696,7.6571,7.6181,7.5674,7.4778,7.3999,7.3453,7.2791,7.2139,7.1887,7.1924,9.0835,9.0762,9.0871,9.1233,9.1776,9.2066,9.2537,9.3225,9.4022,9.4348,9.4384,9.5,9.5253,9.529,9.5326,9.5362,9.5398,9.5398,9.5398,9.5398,9.5362,9.4927,9.4167,9.337,9.2501,9.1704,9.0943,9.0654,9.0726,9.1233,9.1668,9.203,9.3044,9.3696,9.3443,9.4276,9.4348,9.3525,9.4147,9.4256,9.3816,9.3991,9.4049,9.3648,9.2785,9.2073,9.2052,9.07,8.9108,8.7743,8.744,8.6568,8.5242,8.4901,8.4901,8.4901,8.4901,8.4901,8.4901,8.4901,8.4901,8.4901,8.4901,8.4901,8.4901,8.4901,8.4901,8.4901,8.4901,8.4901,8.4901,8.4901,8.4901,8.4589,8.3945,8.3415,8.3119,8.2058,8.111,8.058,8.0428,8.0087,7.9941,7.9946,7.9992,8.0116,8.0276,8.0467,8.0716,8.0977,8.1214,8.1011,8.0838,8.0514,8.0165,7.9639,7.9342,7.9236,7.8878,7.8596,7.8287,7.7961,7.7572,7.7467,7.7233,7.6999,7.6649,7.6064,7.5324,7.4622,7.396,7.2986,7.2011,7.1926,7.1954,9.0618,9.0618,9.0618,9.0799,9.1161,9.1595,9.1994,9.2428,9.3189,9.3515,9.3587,9.3877,9.4276,9.4638,9.471,9.5,9.529,9.5398,9.5398,9.5398,9.529,9.471,9.3696,9.3117,9.2465,9.1306,9.0835,9.0618,9.0835,9.1378,9.1994,9.261,9.3587,9.4348,9.4167,9.5,9.4927,9.455,9.4409,9.4259,9.4077,9.3924,9.3737,9.3755,9.2561,9.2118,9.1761,9.065,8.9335,8.816,8.7743,8.6872,8.5772,8.5204,8.4901,8.4901,8.4901,8.4901,8.4901,8.4901,8.4901,8.4901,8.4901,8.4901,8.4901,8.4901,8.4901,8.4901,8.4901,8.4901,8.4901,8.4901,8.4901,8.4665,8.421,8.3907,8.3498,8.2589,8.1717,8.1262,8.0807,8.051,8.0249,8.0182,8.0231,8.0276,8.0468,8.0646,8.0946,8.1214,8.1465,8.1613,8.1504,8.133,8.1019,8.061,8.0237,8.0014,7.9462,7.918,7.8962,7.8636,7.8285,7.7779,7.7389,7.7194,7.7038,7.6649,7.6025,7.5246,7.4427,7.357,7.2724,7.2043,7.2088,9.0618,9.0618,9.0618,9.0618,9.0654,9.1269,9.1487,9.1595,9.2356,9.2718,9.2754,9.2972,9.3406,9.3877,9.4167,9.4565,9.5072,9.529,9.5362,9.5398,9.5181,9.4457,9.3515,9.2899,9.2175,9.0618,9.0654,9.0618,9.0835,9.1414,9.2211,9.3008,9.3768,9.4565,9.5145,9.5362,9.5253,9.5275,9.4555,9.4329,9.4301,9.3789,9.3647,9.3297,9.2655,9.1914,9.186,9.065,8.9411,8.8615,8.7819,8.6985,8.6076,8.5318,8.4939,8.4901,8.4901,8.4901,8.4901,8.4901,8.4901,8.4901,8.4901,8.4901,8.4901,8.4901,8.4901,8.4901,8.4901,8.4901,8.4901,8.4901,8.4901,8.4749,8.44,8.4097,8.3764,8.3119,8.2589,8.2285,8.1799,8.1127,8.0828,8.057,8.0464,8.0507,8.065,8.0849,8.1128,8.1414,8.1562,8.1775,8.1776,8.1698,8.1543,8.1289,8.1031,8.0792,8.024,7.9934,7.978,7.9415,7.9026,7.8441,7.774,7.735,7.7155,7.696,7.6727,7.5791,7.4895,7.4361,7.3631,7.2871,7.2557,9.0618,9.0618,9.0581,9.0545,9.0618,9.0654,9.0726,9.0871,9.1559,9.1885,9.1994,9.2573,9.2863,9.3225,9.3696,9.4094,9.4384,9.5072,9.529,9.5362,9.5253,9.4348,9.3406,9.2718,9.2139,9.0835,9.0618,9.0618,9.0762,9.1233,9.2102,9.3008,9.3768,9.4565,9.5145,9.5398,9.5373,9.5322,9.4737,9.4362,9.4264,9.3879,9.3714,9.3326,9.2504,9.1805,9.2012,9.06,8.9476,8.8718,8.8009,8.7213,8.6379,8.5545,8.5166,8.4939,8.4901,8.4901,8.4901,8.4901,8.4901,8.4901,8.4901,8.4901,8.4901,8.4901,8.4901,8.4901,8.4901,8.4901,8.4901,8.4901,8.4901,8.4825,8.4627,8.4635,8.4332,8.3915,8.3498,8.3271,8.2785,8.2076,8.1444,8.1185,8.0736,8.0693,8.092,8.1107,8.1362,8.16,8.1691,8.1834,8.1873,8.1854,8.1854,8.1696,8.1498,8.147,8.1228,8.096,8.0767,8.035,7.9727,7.8909,7.8168,7.7701,7.7233,7.7038,7.6688,7.6025,7.5402,7.4828,7.4392,7.3796,7.379,8.9857,8.9821,8.935,8.9712,9.0618,9.0618,9.0618,9.0654,9.0907,9.1052,9.1125,9.1414,9.1813,9.2247,9.2573,9.3334,9.4131,9.4457,9.4927,9.5072,9.4819,9.4022,9.3153,9.2392,9.1668,9.0799,9.0618,9.0618,9.0654,9.1016,9.1523,9.2356,9.3479,9.4565,9.5145,9.5326,9.5228,9.4695,9.4366,9.3919,9.3417,9.3296,9.3248,9.3263,9.218,9.1715,9.1596,9.041,8.9679,8.9124,8.8453,8.7705,8.6872,8.6076,8.5431,8.5014,8.4976,8.4901,8.4901,8.4901,8.4901,8.4901,8.4901,8.4901,8.4901,8.4901,8.4901,8.4901,8.4901,8.4901,8.4901,8.4901,8.4901,8.4901,8.4901,8.4901,8.4749,8.437,8.4067,8.3764,8.343,8.2867,8.2319,8.1799,8.1308,8.0911,8.1124,8.1335,8.1553,8.1691,8.1814,8.1854,8.1873,8.1892,8.1892,8.1929,8.1943,8.1975,8.2022,8.1753,8.1351,8.0896,8.0234,7.9376,7.8519,7.7935,7.7467,7.7116,7.6765,7.6376,7.5881,7.5307,7.4948,7.4718,7.4818,8.906,8.8988,8.8444,8.8988,9.0147,9.0002,9.0147,9.0545,9.0328,9.04,9.0581,9.0618,9.0907,9.1378,9.1813,9.232,9.337,9.395,9.4348,9.4457,9.4239,9.3587,9.2791,9.2066,9.1487,9.0762,9.0618,9.0618,9.0618,9.0618,9.1161,9.1994,9.2899,9.3841,9.4855,9.5253,9.5,9.4286,9.3732,9.3326,9.2828,9.257,9.2721,9.2821,9.1881,9.145,9.1188,9.0367,8.9654,8.9289,8.8896,8.8301,8.7592,8.6758,8.5924,8.5393,8.5052,8.4939,8.4901,8.4901,8.4901,8.4901,8.4901,8.4901,8.4901,8.4901,8.4901,8.4901,8.4901,8.4901,8.4901,8.4901,8.4901,8.4901,8.4901,8.4901,8.4901,8.4673,8.4446,8.4181,8.3923,8.374,8.3015,8.2416,8.1678,8.126,8.1263,8.144,8.1624,8.1773,8.1834,8.1873,8.1892,8.1892,8.1892,8.1947,8.1959,8.1991,8.2036,8.2078,8.1753,8.1325,8.0623,7.961,7.8792,7.8168,7.7584,7.7116,7.6999,7.696,7.6437,7.5913,7.5989,7.5826,7.5684,8.8263,8.8227,8.8155,8.8626,8.9241,8.8626,8.9133,9.0183,8.9821,8.9929,9.0581,9.0618,9.0618,9.0871,9.1378,9.1885,9.2392,9.3406,9.3805,9.3515,9.3624,9.308,9.2356,9.1668,9.1233,9.0762,9.0618,9.0618,9.0618,9.0618,9.1088,9.1523,9.2139,9.2972,9.4203,9.5,9.4927,9.4167,9.3579,9.3024,9.2494,9.2024,9.234,9.2187,9.156,9.1081,9.0774,9.0001,8.9461,8.9427,8.8986,8.8594,8.8312,8.7023,8.6227,8.5962,8.5242,8.4939,8.4901,8.4901,8.4901,8.4901,8.4901,8.4901,8.4901,8.4901,8.4901,8.4901,8.4901,8.4901,8.4901,8.4901,8.4901,8.4901,8.4901,8.4901,8.4901,8.4901,8.4673,8.4522,8.4635,8.4537,8.3783,8.2988,8.215,8.1668,8.1569,8.16,8.1691,8.1814,8.1873,8.1892,8.1892,8.1911,8.1929,8.1981,8.1991,8.2007,8.2036,8.2078,8.2104,8.1831,8.0974,7.9844,7.9181,7.8597,7.7779,7.6999,7.7011,7.6983,7.7014,7.673,7.6872,7.6809,7.651,8.743,8.7394,8.6887,8.7141,8.7793,8.8155,8.8511,8.9018,8.9307,8.985,9.0509,9.0618,9.0618,9.0726,9.0871,9.1306,9.1885,9.2066,9.2428,9.2972,9.2863,9.2392,9.1776,9.1269,9.0907,9.069,9.0618,9.0618,9.0618,9.0618,9.069,9.1016,9.1668,9.2718,9.3841,9.4493,9.4203,9.3406,9.2772,9.2176,9.1603,9.1693,9.1691,9.1597,9.0954,9.0553,9.0333,8.9517,8.9249,8.9475,8.9074,8.8998,8.8605,8.744,8.672,8.6189,8.5393,8.4939,8.4901,8.4901,8.4901,8.4901,8.4901,8.4901,8.4901,8.4901,8.4901,8.4901,8.4901,8.4901,8.4901,8.4901,8.4901,8.4901,8.4901,8.4901,8.4901,8.4901,8.4825,8.4787,8.4863,8.4714,8.417,8.3865,8.317,8.2361,8.2186,8.1801,8.1773,8.1834,8.1892,8.1892,8.1892,8.1911,8.1947,8.1959,8.2007,8.2022,8.2065,8.2091,8.2104,8.2104,8.113,7.9844,7.9454,7.9026,7.7896,7.7011,7.7004,7.6985,7.7004,7.702,7.6997,7.7011,7.6939,8.6634,8.6597,8.609,8.6163,8.667,8.7213,8.7643,8.8258,8.909,8.985,9.0509,9.0618,9.0618,9.0618,9.0654,9.0762,9.1414,9.174,9.1595,9.2211,9.203,9.1668,9.1269,9.0907,9.0726,9.0581,9.0581,9.0618,9.0618,9.0618,9.0654,9.0871,9.1414,9.2247,9.3153,9.3406,9.3406,9.2682,9.2155,9.1727,9.1303,9.1173,9.1254,9.0879,9.0446,9.0026,8.9584,8.9174,8.8954,8.9211,8.931,8.9364,8.8821,8.8188,8.744,8.6606,8.5545,8.5052,8.4901,8.4901,8.4901,8.4901,8.4901,8.4901,8.4901,8.4901,8.4901,8.4901,8.4901,8.4901,8.4901,8.4901,8.4901,8.4901,8.4901,8.4901,8.4901,8.4901,8.4901,8.4901,8.4916,8.4724,8.4709,8.4547,8.4234,8.3498,8.2777,8.2389,8.1931,8.1893,8.1931,8.1892,8.1892,8.1929,8.1908,8.1959,8.2007,8.1998,8.2039,8.2104,8.2104,8.2026,8.0935,8.0,7.9532,7.887,7.7673,7.6983,7.7014,7.7034,7.7051,7.7067,7.7082,7.7089,7.7101,8.5909,8.5909,8.5909,8.5909,8.5945,8.6054,8.6851,8.8263,8.9024,8.9785,9.0581,9.0618,9.0618,9.0618,9.0618,9.0654,9.0799,9.1414,9.1269,9.1125,9.1378,9.1125,9.0835,9.0545,9.0364,9.0436,9.0364,9.0074,9.0473,9.0618,9.0618,9.0726,9.1233,9.1704,9.2102,9.2356,9.2428,9.2066,9.1668,9.1357,9.1006,9.0939,9.0698,9.0337,8.9886,8.9485,8.9061,8.8726,8.8783,8.8992,8.9227,8.9438,8.9327,8.8934,8.8188,8.7137,8.5659,8.5128,8.4901,8.4901,8.4901,8.4901,8.4901,8.4901,8.4901,8.4901,8.4901,8.4901,8.4901,8.4901,8.4901,8.4901,8.4901,8.4901,8.4901,8.4901,8.4901,8.4901,8.4901,8.4947,8.5044,8.4995,8.5284,8.5232,8.499,8.453,8.3769,8.2992,8.2513,8.1893,8.1931,8.1892,8.1911,8.1929,8.1926,8.1975,8.2022,8.2026,8.2039,8.2104,8.2104,8.1909,8.1013,8.0195,7.9571,7.8675,7.744,7.6994,7.6975,7.7043,7.7067,7.7075,7.7089,7.7095,7.7101,8.5909,8.5909,8.5909,8.5909,8.5909,8.5909,8.6778,8.8155,8.8475,8.9271,9.0618,9.0618,9.0618,9.0618,9.0618,9.0618,9.069,9.0762,9.0762,9.0799,9.0835,9.0762,9.0473,9.0038,8.9821,8.9567,8.9386,8.9386,8.9821,9.0219,9.0618,9.069,9.0943,9.1016,9.1088,9.1197,9.1487,9.1559,9.1269,9.1023,9.0849,9.0819,9.0288,8.9567,8.9458,8.8998,8.8294,8.8332,8.8533,8.8936,8.9265,8.9475,8.9553,8.8896,8.8084,8.6568,8.5507,8.4901,8.4901,8.4901,8.4901,8.4901,8.4901,8.4901,8.4901,8.4901,8.4901,8.4901,8.4901,8.4901,8.4901,8.4901,8.4901,8.4901,8.4901,8.4901,8.4901,8.4901,8.4901,8.4992,8.5051,8.5311,8.5628,8.58,8.5591,8.5319,8.4776,8.3884,8.3077,8.2495,8.197,8.1931,8.1929,8.1908,8.1959,8.2007,8.2051,8.2078,8.2091,8.2104,8.2104,8.1792,8.1052,8.0195,7.922,7.8219,7.7228,7.7014,7.6995,7.7059,7.7082,7.7089,7.7101,7.7101,7.7101,8.5909,8.5909,8.5909,8.5909,8.5909,8.5909,8.6634,8.7684,8.8041,8.8945,9.0074,9.0436,9.0618,9.0618,9.0618,9.0618,9.0618,9.0654,9.0618,9.0545,9.0292,9.011,8.9857,8.9386,8.8988,8.8698,8.8662,8.877,8.9386,9.011,9.0618,9.0618,9.0618,9.0618,9.0654,9.0762,9.0907,9.1016,9.0907,9.0654,9.0661,9.0704,8.9802,8.8938,8.8984,8.8463,8.7623,8.7958,8.8354,8.8823,8.9064,8.9371,8.9427,8.8934,8.8463,8.7099,8.6076,8.5621,8.5431,8.5052,8.4976,8.4939,8.4976,8.4901,8.4901,8.4901,8.4901,8.4901,8.4901,8.4901,8.4901,8.4901,8.4901,8.4901,8.4901,8.4901,8.4901,8.4901,8.4992,8.5044,8.5224,8.5511,8.5777,8.6022,8.6161,8.5925,8.5459,8.4682,8.3814,8.3039,8.2359,8.197,8.1929,8.1926,8.1952,8.2022,8.2065,8.2091,8.2104,8.2104,8.2104,8.1792,8.1208,7.9961,7.8597,7.788,7.7394,7.7063,7.7012,7.7153,7.7284,7.7251,7.7218,7.7101,7.7101,8.5909,8.5909,8.5909,8.5909,8.5909,8.5909,8.6308,8.6996,8.772,8.8626,8.9459,9.0255,9.0618,9.0618,9.0618,9.0618,9.0618,9.0618,9.0618,9.0545,8.9857,8.9603,8.9314,8.8589,8.8191,8.8118,8.8082,8.8046,8.9169,8.9893,9.0364,9.0581,9.0618,9.0618,9.0618,9.0618,9.069,9.0726,9.0726,9.0618,9.0618,9.04,8.9936,8.8749,8.8543,8.8398,8.7678,8.7665,8.8047,8.8495,8.8898,8.928,8.9263,8.8923,8.8567,8.8084,8.6909,8.6455,8.6114,8.581,8.5507,8.5318,8.5128,8.5393,8.5583,8.5052,8.4939,8.4901,8.4901,8.4901,8.4901,8.4901,8.4901,8.4901,8.4901,8.4901,8.4901,8.4947,8.4999,8.5132,8.5388,8.5628,8.5887,8.6159,8.6404,8.6352,8.6165,8.5441,8.4591,8.3718,8.2844,8.2144,8.1986,8.1959,8.1968,8.1998,8.2026,8.2052,8.2104,8.2104,8.2104,8.1792,8.1403,8.0246,7.9127,7.8358,7.7833,7.7784,7.7801,7.7816,7.783,7.7525,7.7414,7.7531,7.7492,8.5909,8.5909,8.5909,8.5909,8.5909,8.5909,8.5982,8.6235,8.6996,8.8082,8.935,9.0147,9.0545,9.0509,9.0581,9.0618,9.0618,9.0618,9.0618,9.0255,8.9676,8.9133,8.8988,8.7901,8.743,8.7141,8.7068,8.7358,8.8408,8.9277,9.0038,9.0509,9.0581,9.0618,9.0618,9.0618,9.0618,9.0618,9.0618,9.0618,9.0618,9.04,8.9972,8.889,8.8429,8.8143,8.7647,8.7628,8.8072,8.8495,8.9064,8.9438,8.9654,8.8983,8.8653,8.8388,8.7705,8.7251,8.6985,8.6758,8.6568,8.6644,8.6682,8.6758,8.6455,8.5507,8.4976,8.4976,8.4976,8.4976,8.4901,8.4901,8.4901,8.4901,8.4901,8.4901,8.4901,8.4954,8.5044,8.5224,8.5471,8.5742,8.5958,8.6223,8.6461,8.6649,8.6693,8.6239,8.5388,8.4456,8.3251,8.253,8.2059,8.1991,8.1983,8.2012,8.2039,8.2091,8.2104,8.2104,8.2104,8.1766,8.1376,8.0775,7.9929,7.9198,7.8867,7.9088,7.9065,7.8767,7.8657,7.8468,7.8702,7.8897,7.8585,8.5583,8.5873,8.5909,8.5909,8.5909,8.5909,8.5909,8.6054,8.6706,8.7503,8.8444,8.9459,9.0074,9.0183,9.04,9.0509,9.0545,9.0618,9.0292,8.9893,8.9277,8.8626,8.7937,8.7177,8.6742,8.6416,8.6597,8.7068,8.7829,8.8879,8.9748,9.011,9.0328,9.0618,9.0618,9.0618,9.0618,9.0618,9.0618,9.0618,9.0509,9.0183,8.9531,8.8558,8.8101,8.7742,8.7615,8.7563,8.8072,8.8554,8.9064,8.9489,8.9654,8.9411,8.9184,8.8956,8.8463,8.7933,8.7857,8.7705,8.7554,8.7554,8.744,8.7251,8.7175,8.6303,8.5924,8.5848,8.5621,8.5583,8.5052,8.4901,8.4901,8.4901,8.4901,8.4901,8.4947,8.5044,8.5094,8.5228,8.5513,8.5852,8.606,8.6285,8.6517,8.6737,8.6816,8.6609,8.5835,8.5156,8.395,8.2975,8.2559,8.2124,8.1998,8.2026,8.2104,8.2104,8.2104,8.2104,8.2065,8.1727,8.131,8.0942,8.0534,8.0085,7.9908,8.0041,7.9775,7.9359,7.9398,7.9522,7.9834,8.0062,7.9867,8.5185,8.5873,8.5909,8.5909,8.5909,8.5909,8.5909,8.6018,8.6597,8.6851,8.7104,8.8444,8.906,8.9495,8.9893,9.0147,9.0183,8.9893,8.964,8.9169,8.8408,8.7937,8.7249,8.6416,8.6163,8.6199,8.6416,8.6706,8.7213,8.8372,8.9205,8.9495,9.0038,9.0618,9.0618,9.0618,9.0618,9.0618,9.0618,9.0618,9.0292,8.9821,8.906,8.8418,8.781,8.7376,8.7252,8.7534,8.801,8.8554,8.9064,8.9438,8.9692,8.9676,8.9676,8.9449,8.9108,8.8805,8.8653,8.8312,8.8047,8.7819,8.7668,8.7668,8.7705,8.7516,8.7137,8.672,8.6493,8.5924,8.5393,8.4901,8.4901,8.4901,8.4901,8.4901,8.4992,8.5089,8.5181,8.5311,8.559,8.5923,8.6159,8.6375,8.6571,8.6761,8.6699,8.6376,8.6029,8.5525,8.4689,8.377,8.3143,8.2707,8.2168,8.2039,8.2104,8.2104,8.2104,8.2104,8.2026,8.1844,8.1633,8.1353,8.0982,8.0766,8.0618,8.0634,8.0289,8.014,8.0459,8.0693,8.0686,8.0914,8.107,8.5185,8.5909,8.5909,8.5909,8.5909,8.5909,8.5909,8.5909,8.6054,8.6126,8.638,8.7032,8.7793,8.8444,8.8553,8.877,8.906,8.8951,8.8734,8.8336,8.772,8.7285,8.6815,8.6199,8.5982,8.6018,8.6199,8.6452,8.6815,8.7865,8.8807,8.9314,9.0147,9.0545,9.0618,9.0618,9.0618,9.0618,9.0618,9.0618,9.0328,8.9785,8.9024,8.8382,8.781,8.7376,8.7284,8.7665,8.8072,8.8554,8.9064,8.9489,8.9692,8.979,8.979,8.979,8.9487,8.9449,8.9222,8.9108,8.8918,8.8956,8.8956,8.8994,8.9032,8.9032,8.8539,8.7933,8.7402,8.6417,8.5772,8.5128,8.4939,8.4901,8.4901,8.4901,8.4947,8.5089,8.5224,8.5431,8.5704,8.5958,8.6191,8.6433,8.6623,8.6809,8.6899,8.6651,8.6554,8.5991,8.5311,8.4626,8.382,8.2932,8.2234,8.2091,8.2104,8.2104,8.2104,8.2104,8.2104,8.2104,8.1894,8.1675,8.1772,8.175,8.157,8.1265,8.146,8.1428,8.1747,8.1897,8.1734,8.157,8.1602]},{"header":{"parameterUnit":"m.s-1","parameterCategory":1,"la1":31.0,"la2":29.5877,"lo1":-88.7671,"lo2":-86.6584,"dy":0.0162,"dx":0.0185,"nx":115,"ny":88,"refTime":"2023-03-28T18:00:00:Z","depth":0,"parameterNumber":3,"parameterNumberName":"V-component_of_WINDS"},"data":[0.0,0.0,0.0,0.0,0.0,0.0,0.0,0.0,0.0,0.0,0.0,0.0,0.0,0.0,0.0,0.0,0.0,0.0,0.0,0.0,0.0,0.0,0.0,0.0,0.0,0.0,0.0,0.0,0.0,0.0,0.0,0.0,0.0,0.0,0.0,0.0,0.0,0.0,0.0,0.0,0.0,0.0,0.0,0.0,0.0,0.0,0.0,0.0,0.0,0.0,0.0,0.0,0.0,0.0,0.0,0.0,0.0,0.0,0.0,0.0,0.0,0.0,0.0,0.0,0.0,0.0,0.0,0.0,0.0,0.0,0.0,0.0,0.0,0.0,0.0,0.0,0.0,0.0,0.0,0.0,0.0,0.0,0.0,0.0,0.0,0.0,0.0,0.0,0.0,0.0,0.0,0.0,0.0,0.0,0.0,0.0,0.0,0.0,0.0,0.0,0.0,0.0,0.0,0.0,0.0,0.0,0.0,0.0,0.0,0.0,0.0,0.0,0.0,0.0,0.0,0.0,0.0,0.0,0.0,0.0,0.0,0.0,0.0,0.0,0.0,0.0,0.0,0.0,0.0,0.0,0.0,0.0,0.0,0.0,0.0,0.0,0.0,0.0,0.0,0.0,0.0,0.0,0.0,0.0,0.0,0.0,0.0,0.0,0.0,0.0,0.0,0.0,0.0,0.0,0.0,0.0,0.0,0.0,0.0,0.0,0.0,0.0,0.0,0.0,0.0,0.0,0.0,0.0,0.0,0.0,0.0,0.0,0.0,0.0,0.0,0.0,0.0,0.0,0.0,0.0,0.0,0.0,0.0,0.0,0.0,0.0,0.0,0.0,0.0,0.0,0.0,0.0,0.0,0.0,0.0,0.0,0.0,0.0,0.0,0.0,0.0,0.0,0.0,0.0,0.0,0.0,0.0,0.0,0.0,0.0,0.0,0.0,0.0,0.0,0.0,0.0,0.0,0.0,0.0,0.0,0.0,0.0,0.0,0.0,0.0,0.0,0.0,0.0,0.0,0.0,0.0,0.0,0.0,0.0,0.0,0.0,0.0,0.0,0.0,0.0,0.0,0.0,0.0,0.0,0.0,0.0,0.0,0.0,0.0,0.0,0.0,0.0,0.0,0.0,0.0,0.0,0.0,0.0,0.0,0.0,0.0,0.0,0.0,0.0,0.0,0.0,0.0,0.0,0.0,0.0,0.0,0.0,0.0,0.0,0.0,0.0,0.0,0.0,0.0,0.0,0.0,0.0,0.0,0.0,0.0,0.0,0.0,0.0,0.0,0.0,0.0,0.0,0.0,0.0,0.0,0.0,0.0,0.0,0.0,0.0,0.0,0.0,0.0,0.0,0.0,0.0,0.0,0.0,0.0,0.0,0.0,0.0,0.0,0.0,0.0,0.0,0.0,0.0,0.0,0.0,0.0,0.0,0.0,0.0,0.0,0.0,0.0,0.0,0.0,0.0,0.0,0.0,0.0,0.0,0.0,0.0,0.0,0.0,0.0,0.0,0.0,0.0,0.0,0.0,0.0,0.0,0.0,0.0,0.0,0.0,0.0,0.0,0.0,0.0,0.0,0.0,0.0,0.0,0.0,0.0,0.0,0.0,0.0,0.0,0.0,0.0,0.0,0.0,0.0,0.0,0.0,0.0,0.0,0.0,0.0,0.0,0.0,0.0,0.0,0.0,0.0,0.0,0.0,0.0,0.0,0.0,0.0,0.0,0.0,0.0,0.0,0.0,0.0,0.0,0.0,0.0,0.0,0.0,0.0,0.0,0.0,0.0,0.0,0.0,0.0,0.0,0.0,0.0,0.0,0.0,0.0,0.0,0.0,0.0,0.0,0.0,0.0,0.0,0.0,0.0,0.0,0.0,0.0,0.0,0.0,0.0,0.0,0.0,0.0,0.0,0.0,0.0,0.0,0.0,0.0,0.0,0.0,0.0,0.0,0.0,0.0,0.0,0.0,0.0,0.0,0.0,0.0,0.0,0.0,0.0,0.0,0.0,0.0,0.0,0.0,0.0,0.0,0.0,0.0,0.0,0.0,0.0,0.0,0.0,0.0,0.0,0.0,0.0,0.0,0.0,0.0,0.0,0.0,0.0,0.0,0.0,0.0,0.0,0.0,0.0,0.0,0.0,0.0,0.0,0.0,0.0,0.0,0.0,0.0,0.0,0.0,0.0,0.0,0.0,0.0,0.0,0.0,0.0,0.0,0.0,0.0,0.0,0.0,0.0,0.0,0.0,0.0,0.0,0.0,0.0,0.0,0.0,0.0,0.0,0.0,0.0,0.0,0.0,0.0,0.0,0.0,0.0,0.0,0.0,0.0,0.0,0.0,0.0,0.0,0.0,0.0,0.0,0.0,0.0,0.0,0.0,0.0,0.0,0.0,0.0,0.0,0.0,0.0,0.0,0.0,0.0,0.0,0.0,0.0,0.0,0.0,0.0,0.0,0.0,0.0,0.0,0.0,0.0,0.0,0.0,0.0,0.0,0.0,0.0,0.0,0.0,0.0,0.0,0.0,0.0,0.0,0.0,0.0,0.0,0.0,0.0,0.0,0.0,0.0,0.0,0.0,0.0,0.0,0.0,0.0,0.0,0.0,0.0,0.0,0.0,0.0,0.0,0.0,0.0,0.0,0.0,0.0,0.0,0.0,0.0,0.0,0.0,0.0,0.0,0.0,0.0,0.0,0.0,0.0,0.0,0.0,0.0,0.0,0.0,0.0,0.0,0.0,0.0,0.0,0.0,0.0,0.0,0.0,0.0,0.0,0.0,0.0,0.0,0.0,0.0,0.0,0.0,0.0,0.0,0.0,0.0,0.0,0.0,0.0,0.0,0.0,0.0,0.0,0.0,0.0,0.0,0.0,0.0,0.0,0.0,0.0,0.0,0.0,0.0,0.0,0.0,0.0,0.0,0.0,0.0,0.0,0.0,0.0,0.0,0.0,0.0,0.0,0.0,0.0,0.0,0.0,0.0,0.0,0.0,0.0,0.0,0.0,0.0,0.0,0.0,0.0,0.0,0.0,0.0,0.0,0.0,0.0,0.0,0.0,0.0,0.0,0.0,0.0,0.0,0.0,0.0,0.0,0.0,0.0,0.0,0.0,0.0,0.0,0.0,0.0,0.0,0.0,0.0,0.0,0.0,0.0,0.0,0.0,0.0,0.0,0.0,0.0,0.0,0.0,0.0,0.0,0.0,0.0,0.0,0.0,0.0,0.0,0.0,0.0,0.0,0.0,0.0,0.0,0.0,0.0,0.0,0.0,0.0,0.0,0.0,0.0,0.0,0.0,0.0,0.0,0.0,0.0,0.0,0.0,0.0,0.0,0.0,0.0,0.0,0.0,0.0,0.0,0.0,0.0,0.0,0.0,0.0,0.0,0.0,0.0,0.0,0.0,0.0,0.0,0.0,0.0,0.0,0.0,0.0,0.0,0.0,0.0,0.0,0.0,0.0,0.0,0.0,0.0,0.0,0.0,0.0,0.0,0.0,0.0,0.0,0.0,0.0,0.0,0.0,0.0,0.0,0.0,0.0,0.0,0.0,0.0,0.0,0.0,0.0,0.0,0.0,0.0,0.0,0.0,0.0,0.0,0.0,0.0,0.0,0.0,0.0,0.0,0.0,0.0,0.0,0.0,0.0,0.0,0.0,0.0,0.0,0.0,0.0,0.0,0.0,0.0,0.0,0.0,0.0,0.0,0.0,0.0,0.0,0.0,0.0,0.0,0.0,0.0,0.0,0.0,0.0,0.0,0.0,0.0,0.0,0.0,0.0,0.0,0.0,0.0,0.0,0.0,0.0,0.0,0.0,0.0,0.0,0.0,0.0,0.0,0.0,0.0,0.0,0.0,0.0,0.0,0.0,0.0,0.0,0.0,0.0,0.0,0.0,0.0,0.0,0.0,0.0,0.0,0.0,0.0,0.0,0.0,0.0,0.0,0.0,0.0,0.0,0.0,0.0,0.0,0.0,0.0,0.0,0.0,0.0,0.0,0.0,0.0,0.0,0.0,0.0,0.0,0.0,0.0,0.0,0.0,0.0,0.0,0.0,0.0,0.0,0.0,0.0,0.0,0.0,0.0,0.0,0.0,0.0,0.0,0.0,0.0,0.0,0.0,0.0,0.0,0.0,0.0,0.0,0.0,0.0,0.0,0.0,0.0,0.0,0.0,0.0,0.0,0.0,0.0,0.0,0.0,0.0,0.0,0.0,0.0,0.0,0.0,0.0,0.0,0.0,0.0,0.0,0.0,0.0,0.0,0.0,0.0,0.0,0.0,0.0,0.1924,0.0,0.0,0.0,0.0,0.0,0.0,0.0,0.0,0.0,0.0,0.0,0.0,0.0,0.0,0.0,0.0,0.0,0.0,0.0,0.0,0.0,0.0,0.0,0.0,0.0,0.0,0.0,0.0,0.0,0.0,0.0,0.0,0.0,0.0,0.0,0.0,0.0,0.0,0.0,0.0,0.0,0.0,0.0,0.0,0.0,0.0,0.0,0.0,0.0,0.0,0.0,0.0,0.0,0.0,0.0,0.0,0.0,0.0,0.0,0.0,0.0,0.0,0.0,0.0,0.0,0.0,0.0,0.0,0.0,0.0,0.0,0.0,0.0,0.0,0.0,0.0,0.0,0.0,0.0,0.0,0.0,0.0,0.0,0.0,0.0,0.0,0.0,0.0,0.0,0.0,0.0,0.0,0.0,0.0,0.0,0.0,0.0,0.0,0.0,0.0,0.0,0.0,0.0,0.0,0.0,0.0,0.0,0.0,0.0,0.0,0.2057,0.2042,0.197,0.1932,0.193,0.0,0.0,0.0,0.0,0.0,0.0,0.0,0.0,0.0,0.0,0.0,0.0,0.0,0.0,0.0,0.0,0.0,0.0,0.0,0.0,0.0,0.0,0.0,0.0,0.0,0.0,0.0,0.0,0.0,0.0,0.0,0.0,0.0,0.0,0.0,0.0,0.0,0.0,0.0,0.0,0.0,0.0,0.0,0.0,0.0,0.0,0.0,0.0,0.0,0.0,0.0,0.0,0.0,0.0,0.0,0.0,0.0,0.0,0.0,0.0,0.0,0.0,0.0,0.0,0.0,0.0,0.0,0.0,0.0,0.0,0.0,0.0,0.0,0.0,0.0,0.0,0.0,0.0,0.0,0.0,0.0,0.0,0.0,0.0,0.0,0.0,0.0,0.0,0.0,0.0,0.0,0.0,0.0,0.0,0.0,0.0,0.0,0.0,0.0,0.0,0.0,0.0,0.0,0.0,0.0,0.0,0.0,0.0,0.0,0.0,0.0,0.0,0.1981,0.1941,0.1941,0.0,0.0,0.0,0.0,0.0,0.0,0.0,0.0,0.0,0.0,0.0,0.0,0.0,0.0,0.0,0.0,0.0,0.0,0.0,0.0,0.0,0.0,0.0,0.0,0.0,0.0,0.0,0.0,0.0,0.0,0.0,0.0,0.0,0.0,0.0,0.0,0.0,0.0,0.0,0.0,0.0,0.0,0.0,0.0,0.0,0.0,0.0,0.0,0.0,0.0,0.0,0.0,0.0,0.0,0.0,0.0,0.0,0.0,0.0,0.0,0.0,0.0,0.0,0.0,0.0,0.0,0.0,0.0,0.0,0.0,0.0,0.0,0.0,0.0,0.0,0.0,0.0,0.0,0.0,0.0,0.0,0.0,0.0,0.0,0.0,0.0,0.0,0.0,0.0,0.0,0.0,0.0,0.0,0.0,0.0,0.0,0.0,0.0,0.0,0.0,0.0,0.0,0.0,0.0,0.0,0.0,0.0,0.0,0.0,0.0,0.205,0.2023,0.199,0.0,0.1973,0.0,0.0,0.0,0.0,0.0,0.0,0.0,0.0,0.0,0.0,0.0,0.0,0.0,0.0,0.0,0.0,0.0,0.0,0.0,0.0,0.0,0.0,0.0,0.0,0.0,0.0,0.0,0.0,0.0,0.0,0.0,0.0,0.0,0.0,0.0,0.0,0.0,0.0,0.0,0.0,0.0,0.0,0.0,0.0,0.0,0.0,0.0,0.0,0.0,0.0,0.0,0.0,0.0,0.0,0.0,0.0,0.0,0.0,0.0,0.0,0.0,0.0,0.0,0.0,0.0,0.0,0.0,0.0,0.0,0.0,0.0,0.0,0.0,0.0,0.0,0.0,0.0,0.0,0.0,0.0,0.0,0.0,0.0,0.0,0.0,0.0,0.0,0.0,0.0,0.0,0.0,0.0,0.0,0.0,0.0,0.0,0.0,0.0,0.0,0.0,0.0,0.0,0.0,0.0,0.0,0.0,0.0,0.0,0.0,0.0,0.2031,0.2019,0.1992,0.1977,0.0,0.0,0.0,0.0,0.0,0.0,0.0,0.0,0.0,0.0,0.0,0.0,0.0,0.0,0.0,0.0,0.0,0.0,0.0,0.0,0.0,0.0,0.0,0.0,0.0,0.0,0.0,0.0,0.0,0.0,0.0,0.0,0.0,0.0,0.0,0.0,0.0,0.0,0.0,0.0,0.0,0.0,0.0,0.0,0.0,0.0,0.0,0.0,0.0,0.0,0.0,0.0,0.0,0.0,0.0,0.0,0.0,0.0,0.0,0.0,0.0,0.0,0.0,0.0,0.0,0.0,0.0,0.0,0.0,0.0,0.0,0.0,0.0,0.0,0.0,0.0,0.0,0.0,0.0,0.0,0.0,0.0,0.0,0.0,0.0,0.0,0.0,0.0,0.0,0.0,0.0,0.0,0.0,0.0,0.0,0.0,0.0,0.0,0.0,0.0,0.0,0.0,0.0,0.0,0.0,0.0,0.0,0.0,0.0,0.0,0.2026,0.2015,0.2007,0.1988,0.1977,0.1977,0.0,0.0,0.0,0.0,0.0,0.0,0.0,0.0,0.0,0.0,0.0,0.0,0.0,0.0,0.0,0.0,0.0,0.0,0.0,0.0,0.0,0.0,0.0,0.0,0.0,0.0,0.0,0.0,0.0,0.0,0.0,0.0,0.0,0.0,0.0,0.0,0.0,0.0,0.0,0.0,0.0,0.0,0.0,0.0,0.0,0.0,0.0,0.0,0.0,0.0,0.0,0.0,0.0,0.0,0.0,0.0,0.0,0.0,0.0,0.0,0.0,0.0,0.0,0.0,0.0,0.0,0.0,0.0,0.0,0.0,0.0,0.0,0.0,0.0,0.0,0.0,0.0,0.0,0.0,0.0,0.0,0.0,0.0,0.0,0.0,0.0,0.0,0.0,0.0,0.0,0.0,0.0,0.0,0.0,0.0,0.0,0.0,0.0,0.0,0.0,0.0,0.0,0.0,0.0,0.0,0.0,0.0,0.0,0.1984,0.2005,0.2005,0.1981,0.1977,0.1977,0.0,0.0,0.0,0.0,0.0,0.0,0.0,0.0,0.0,0.0,0.0,0.0,0.0,0.0,0.0,0.0,0.0,0.0,0.0,0.0,0.0,0.0,0.0,0.0,0.0,0.0,0.0,0.0,0.0,0.0,0.0,0.0,0.0,0.0,0.0,0.0,0.0,0.0,0.0,0.0,0.0,0.0,0.0,0.0,0.0,0.0,0.0,0.0,0.0,0.0,0.0,0.0,0.0,0.0,0.0,0.0,0.0,0.0,0.0,0.0,0.0,0.0,0.0,0.0,0.0,0.0,0.0,0.0,0.0,0.0,0.0,0.0,0.0,0.0,0.0,0.0,0.0,0.0,0.0,0.0,0.0,0.0,0.0,0.0,0.0,0.0,0.0,0.0,0.0,0.0,0.0,0.0,0.0,0.0,0.0,0.0,0.0,0.0,0.0,0.0,0.0,0.0,0.0,0.0,0.0,0.0,0.0,0.0,0.0,0.2346,0.2481,0.2605,0.2592,0.2592,0.2592,0.0,0.0,0.0,0.0,0.0,0.0,0.0,0.0,0.0,0.0,0.0,0.0,0.0,0.0,0.0,0.0,0.0,0.0,0.0,0.0,0.0,0.0,0.0,0.0,0.0,0.0,0.0,0.0,0.0,0.0,0.0,0.0,0.0,0.0,0.0,0.0,0.0,0.0,0.0,0.0,0.0,0.0,0.0,0.0,0.0,0.0,0.0,0.0,0.0,0.0,0.0,0.0,0.0,0.0,0.0,0.0,0.0,0.0,0.0,0.0,0.0,0.0,0.0,0.0,0.0,0.0,0.0,0.0,0.0,0.0,0.0,0.0,0.0,0.0,0.0,0.0,0.0,0.0,0.0,0.0,0.0,0.0,0.0,0.0,0.0,0.0,0.0,0.0,0.0,0.0,0.0,0.0,0.0,0.0,0.0,0.0,0.0,0.0,0.0,0.0,0.0,0.0,0.0,0.0,0.0,0.0,0.0,0.0,0.0,0.2837,0.0,0.3207,0.333,0.333,0.3209,0.0,0.0,0.0,0.0,0.0,0.0,0.0,0.0,0.0,0.0,0.0,0.0,0.0,0.0,0.0,0.0,0.0,0.0,0.0,0.0,0.0,0.0,0.0,0.0,0.0,0.0,0.0,0.0,0.0,0.0,0.0,0.0,0.0,0.0,0.0,0.0,0.0,0.0,0.0,0.0,0.0,0.0,0.0,0.0,0.0,0.0,0.0,0.0,0.0,0.0,0.0,0.0,0.0,0.0,0.0,0.0,0.0,0.0,0.0,0.0,0.0,0.0,0.0,0.0,0.0,0.0,0.0,0.0,0.0,0.0,0.0,0.0,0.0,0.0,0.0,0.0,0.0,0.0,0.0,0.0,0.0,0.0,0.0,0.0,0.0,0.0,0.0,0.0,0.0,0.0,0.0,0.0,0.0,0.0,0.0,0.0,0.0,0.0,0.0,0.0,0.0,0.0,0.0,0.0,0.0,0.0,0.0,0.0,0.3581,0.3458,0.3584,0.371,0.3946,0.3948,0.3825,0.0,0.0,0.0,0.0,0.0,0.0,0.0,0.0,0.0,0.0,0.0,0.0,0.0,0.0,0.0,0.0,0.0,0.0,0.0,0.0,0.0,0.0,0.0,0.0,0.0,0.0,0.0,0.0,0.0,0.0,0.0,0.0,0.0,0.0,0.0,0.0,0.0,0.0,0.0,0.0,0.0,0.0,0.0,0.0,0.0,0.0,0.0,0.0,0.0,0.0,0.0,0.0,0.0,0.0,0.0,0.0,0.0,0.0,0.0,0.0,0.0,0.0,0.0,0.0,0.0,0.0,0.0,0.0,0.0,0.0,0.0,0.0,0.0,0.0,0.0,0.0,0.0,0.0,0.0,0.0,0.0,0.0,0.0,0.0,0.0,0.0,0.0,0.0,0.0,0.0,0.0,0.0,0.0,0.0,0.0,0.0,0.0,0.0,0.0,0.0,0.0,0.0,0.0,0.0,0.0,0.0,0.0,0.0,0.0,0.4261,0.481,0.5086,0.5086,0.5161,0.5008,0.0,0.0,0.0,0.0,0.0,0.0,0.0,0.0,0.0,0.0,0.0,0.0,0.0,0.0,0.0,0.0,0.0,0.0,0.0,0.0,0.0,0.0,0.0,0.0,0.0,0.0,0.0,0.0,0.0,0.0,0.0,0.0,0.0,0.0,0.0,0.0,0.0,0.0,0.0,0.0,0.0,0.0,0.0,0.0,0.0,0.0,0.0,0.0,0.0,0.0,0.0,0.0,0.0,0.0,0.0,0.0,0.0,0.0,0.0,0.0,0.0,0.0,0.0,0.0,0.0,0.0,0.0,0.0,0.0,0.0,0.0,0.0,0.0,0.0,0.0,0.0,0.0,0.0,0.0,0.0,0.0,0.0,0.0,0.0,0.0,0.0,0.0,0.0,0.0,0.0,0.0,0.0,0.0,0.0,0.0,0.0,0.0,0.0,0.0,0.0,0.0,0.0,0.0,0.0,0.0,0.0,0.0,0.0,0.0,0.5642,0.6027,0.6414,0.6675,0.6584,0.6387,0.6096,0.0,0.0,0.0,0.0,0.0,0.0,0.0,0.0,0.0,0.0,0.0,0.0,0.0,0.0,0.0,0.0,0.0,0.0,0.0,0.0,0.0,0.0,0.0,0.0,0.0,0.0,0.0,0.0,0.0,0.0,0.0,0.0,0.0,0.0,0.0,0.0,0.0,0.0,0.0,0.0,0.0,0.0,0.0,0.0,0.0,0.0,0.0,0.0,0.0,0.0,0.0,0.0,0.0,0.0,0.0,0.0,0.0,0.0,0.0,0.0,0.0,0.0,0.0,0.0,0.0,0.0,0.0,0.0,0.0,0.0,0.0,0.0,0.0,0.0,0.0,0.0,0.0,0.0,0.0,0.0,0.0,0.0,0.0,0.0,0.0,0.0,0.0,0.0,0.0,0.0,0.0,0.0,0.0,0.0,0.0,0.0,0.0,0.0,0.0,0.0,0.0,0.0,0.0,0.0,0.0,0.0,0.0,0.0,0.7589,0.7556,0.7728,0.837,0.8254,0.7737,0.0,0.0,0.0,0.0,0.0,0.0,0.0,0.0,0.0,0.0,0.0,0.0,0.0,0.0,0.0,0.0,0.0,0.0,0.0,0.0,0.0,0.0,0.0,0.0,0.0,0.0,0.0,0.0,0.0,0.0,0.0,0.0,0.0,0.0,0.0,0.0,0.0,0.0,0.0,0.0,0.0,0.0,0.0,0.0,0.0,0.0,0.0,0.0,0.0,0.0,0.0,0.0,0.0,0.0,0.0,0.0,0.0,0.0,0.0,0.0,0.0,0.0,0.0,0.0,0.0,0.0,0.0,0.0,0.0,0.0,0.0,0.0,0.0,0.0,0.0,0.0,0.0,0.0,0.0,0.0,0.0,0.0,0.0,0.0,0.0,0.0,0.0,0.0,0.0,0.0,0.0,0.0,0.0,0.0,0.0,0.0,0.0,0.0,0.0,0.0,0.0,0.0,0.0,0.0,0.0,0.0,0.0,0.0,0.0,0.9739,1.0613,1.0601,0.9983,0.9835,0.9519,0.0,0.0,0.0,0.0,0.0,0.0,0.0,0.0,0.0,0.0,0.0,0.0,0.0,0.0,0.0,0.0,0.0,0.0,0.0,0.0,0.0,0.0,0.0,0.0,0.0,0.0,0.0,0.0,0.0,0.0,0.0,0.0,0.0,0.0,0.0,0.0,0.0,0.0,0.0,0.0,0.0,0.0,0.0,0.0,0.0,0.0,0.0,0.0,0.0,0.0,0.0,0.0,0.0,0.0,0.0,0.0,0.0,0.0,0.0,0.0,0.0,0.0,0.0,0.0,0.0,0.0,0.0,0.0,0.0,0.0,0.0,0.0,0.0,0.0,0.0,0.0,0.0,0.0,0.0,0.0,0.0,0.0,0.0,0.0,0.0,0.0,0.0,0.0,0.0,0.0,0.0,0.0,0.0,0.0,0.0,0.0,0.0,0.0,0.0,0.0,0.0,0.0,0.0,0.0,0.0,0.0,0.0,0.0,0.9205,1.1227,1.2741,1.3178,1.2776,1.1851,1.0843,0.0,0.0,0.0,0.0,0.0,0.0,0.0,0.0,0.0,0.0,0.0,0.0,0.0,0.0,0.0,0.0,0.0,0.0,0.0,0.0,0.0,0.0,0.0,0.0,0.0,0.0,0.0,0.0,0.0,0.0,0.0,0.0,0.0,0.0,0.0,0.0,0.0,0.0,0.0,0.0,0.0,0.0,0.0,0.0,0.0,0.0,0.0,0.0,0.0,0.0,0.0,0.0,0.0,0.0,0.0,0.0,0.0,0.0,0.0,0.0,0.0,0.0,0.0,0.0,0.0,0.0,0.0,0.0,0.0,0.0,0.0,0.0,0.0,0.0,0.0,0.0,0.0,0.0,0.0,0.0,0.0,0.0,0.0,0.0,0.0,0.0,0.0,0.0,0.0,0.0,0.0,0.0,0.0,0.0,0.0,0.0,0.0,0.0,0.0,0.0,0.0,0.0,0.0,0.0,0.0,0.0,0.0,0.0,1.0117,1.2257,1.4166,1.5391,1.5762,1.3836,1.2121,0.0,0.0,0.0,0.0,0.0,0.0,0.0,0.0,0.0,0.0,0.0,0.0,0.0,0.0,0.0,0.0,0.0,0.0,0.0,0.0,0.0,0.0,0.0,0.0,0.0,0.0,0.0,0.0,0.0,0.0,0.0,0.0,0.0,0.0,0.0,0.0,0.0,0.0,0.0,0.0,0.0,0.0,0.0,0.0,0.0,0.0,0.0,0.0,0.0,0.0,0.0,0.0,0.0,0.0,0.0,0.0,0.0,0.0,0.0,0.0,0.0,0.0,0.0,0.0,0.0,0.0,0.0,0.0,0.0,0.0,0.0,0.0,0.0,0.0,0.0,0.0,0.0,0.0,0.0,0.0,0.0,0.0,0.0,0.0,0.0,0.0,0.0,0.0,0.0,0.0,0.0,0.0,0.0,0.0,0.0,0.0,0.0,0.0,0.0,0.0,0.0,0.0,0.0,0.0,0.0,0.0,0.0,0.0,1.1733,1.3851,1.5233,1.6362,1.7178,1.544,1.3742,0.0,0.0,0.0,0.0,0.0,0.0,0.0,0.0,0.0,0.0,0.0,0.0,0.0,0.0,0.0,0.0,0.0,0.0,0.0,0.0,0.0,0.0,0.0,0.0,0.0,0.0,0.0,0.0,0.0,0.0,0.0,0.0,0.0,0.0,0.0,0.0,0.0,0.0,0.0,0.0,0.0,0.0,0.0,0.0,0.0,0.0,0.0,0.0,-0.3856,0.0,0.0,0.0,0.0,0.0,0.0,0.0,0.0,0.0,0.0,0.0,0.0,0.0,0.0,0.0,0.0,0.0,0.0,0.0,0.0,0.0,0.0,0.0,0.0,0.0,0.0,0.0,0.0,0.0,0.0,0.0,0.0,0.0,0.0,0.0,0.0,0.0,0.0,0.0,0.0,0.0,0.0,0.0,0.0,0.0,0.0,0.0,0.0,0.0,0.0,0.0,0.0,0.0,0.0,0.0,0.0,0.0,0.0,0.0,1.2836,1.4991,1.6323,1.7281,1.7997,1.6433,1.4806,0.0,0.0,0.0,0.0,0.0,0.0,0.0,0.0,0.0,0.0,0.0,0.0,0.0,0.0,0.0,0.0,0.0,0.0,0.0,0.0,0.0,0.0,0.0,0.0,0.0,0.0,0.0,0.0,0.0,0.0,0.0,0.0,0.0,0.0,0.0,0.0,0.0,0.0,0.0,0.0,0.0,0.0,0.0,0.0,0.0,0.0,0.0,0.0,0.0,0.0,0.0,0.0,0.0,0.0,0.0,0.0,0.0,0.0,0.0,0.0,0.0,0.0,0.0,0.0,0.0,0.0,0.0,0.0,0.0,0.0,0.0,0.0,0.0,0.0,0.0,0.0,0.0,0.0,0.0,0.0,0.0,0.0,0.0,0.0,0.0,0.0,0.0,0.0,0.0,0.0,0.0,0.0,0.0,0.0,0.0,0.0,0.0,0.0,0.0,0.0,0.0,0.0,0.0,0.0,0.0,0.0,0.0,1.1625,1.3807,1.5881,1.72,1.7954,1.8525,1.7219,1.5373,1.3228,0.0,0.0,0.0,0.0,0.0,0.0,0.0,0.0,0.0,0.0,0.0,0.0,0.0,0.0,0.0,0.0,0.0,0.0,0.0,0.0,0.0,0.0,0.0,0.0,0.0,0.0,0.0,0.0,0.0,0.0,0.0,0.0,0.0,0.0,0.0,0.0,0.0,0.0,-0.3559,-0.2842,0.0,0.0,0.0,0.0,0.0,0.0,0.0,0.0,-0.2983,0.0,0.0,0.0,0.0,0.0,0.0,0.0,0.0,0.0,0.0,0.0,0.0,0.0,0.0,0.0,0.0,0.0,0.0,0.0,0.0,0.0,0.0,0.0,0.0,0.0,0.0,0.0,0.0,0.0,0.0,0.0,0.0,0.0,0.0,0.0,0.0,0.0,0.0,0.0,0.0,0.0,0.0,0.0,0.0,0.0,0.0,0.0,0.0,0.0,0.0,0.0,0.0,0.0,0.0,0.0,0.0,1.0142,1.2612,1.4694,1.6061,1.7482,1.8316,1.8874,1.7529,1.6118,1.4325,0.0,0.0,0.0,0.0,0.0,0.0,0.0,0.0,0.0,0.0,0.0,0.0,0.0,0.0,0.0,0.0,0.0,0.0,0.0,0.0,0.0,0.0,0.0,0.0,0.0,0.0,0.0,0.0,0.0,0.0,0.0,0.0,0.0,0.0,0.0,0.0,0.0,0.0,0.0,-0.2542,-0.2303,0.0,0.0,0.0,0.0,0.0,0.0,0.0,0.0,-0.2819,0.0,0.0,0.0,0.0,0.0,0.0,0.0,0.0,0.0,0.0,0.0,0.0,0.0,0.0,0.0,0.0,0.0,0.0,0.0,0.0,0.0,0.0,0.0,0.0,0.0,0.0,0.0,0.0,0.0,0.0,0.0,0.0,0.0,0.0,0.0,0.0,0.0,0.0,0.0,0.0,0.0,0.0,0.0,0.0,0.0,0.0,0.0,0.0,0.0,0.0,0.0,0.0,0.0,0.0,0.0,1.1987,1.377,1.5521,1.7222,1.8075,1.8833,1.9102,1.7795,1.6171,0.0,0.0,0.0,0.0,0.0,0.0,0.0,0.0,0.0,0.0,0.0,0.0,0.0,0.0,0.0,0.0,0.0,0.0,0.0,0.0,0.0,0.0,0.0,0.0,0.0,0.0,0.0,0.0,0.0,0.0,0.0,0.0,0.0,0.0,0.0,0.0,0.0,0.0,0.0,0.0,-0.2371,-0.2135,-0.2038,0.0,0.0,0.0,0.0,0.0,0.0,-0.2193,-0.2452,0.0,0.0,0.0,0.0,0.0,0.0,0.0,0.0,0.0,0.0,0.0,0.0,0.0,0.0,0.0,0.0,0.0,0.0,0.0,0.0,0.0,0.0,0.0,0.0,0.0,0.0,0.0,0.0,0.0,0.0,0.0,0.0,0.0,0.0,0.0,0.0,0.0,0.0,0.0,0.0,0.0,0.0,0.0,0.0,0.0,0.0,0.0,0.0,0.0,0.0,0.0,0.0,0.0,0.0,0.0,1.3535,1.4981,1.6597,1.82,1.8882,1.9159,1.9281,1.7858,1.6356,0.0,0.0,0.0,0.0,0.0,0.0,0.0,0.0,0.0,0.0,0.0,0.0,0.0,0.0,0.0,0.0,0.0,0.0,0.0,0.0,0.0,0.0,0.0,0.0,0.0,0.0,0.0,0.0,0.0,0.0,0.0,0.0,0.0,0.0,0.0,0.0,0.0,0.0,0.0,0.0,0.0,-0.181,-0.182,-0.1691,0.0,0.0,0.0,0.0,-0.0656,-0.1181,0.0,0.0,0.0,0.0,0.0,0.0,0.0,0.0,0.0,0.0,0.0,0.0,0.0,0.0,0.0,0.0,0.0,0.0,0.0,0.0,0.0,0.0,0.0,0.0,0.0,0.0,0.0,0.0,0.0,0.0,0.0,0.0,0.0,0.0,0.0,0.0,0.0,0.0,0.0,0.0,0.0,0.0,0.0,0.0,0.0,0.0,0.0,0.0,0.0,0.0,0.0,0.0,0.0,0.0,0.0,0.0,1.3569,1.5943,1.7678,1.8387,1.9171,1.9459,1.9467,1.829,1.6758,0.0,0.0,0.0,0.0,0.0,0.0,0.0,0.0,0.0,0.0,0.0,0.0,0.0,0.0,0.0,0.0,0.0,0.0,0.0,0.0,0.0,0.0,0.0,0.0,0.0,0.0,0.0,0.0,0.0,0.0,0.0,0.0,0.0,0.0,0.0,0.0,0.0,0.0,0.0,0.0,0.0,-0.1172,-0.1068,-0.0536,-0.0,0.0,0.0,0.0834,0.0695,0.0556,0.0,0.0,0.0,0.0,0.0,0.0,0.0,0.0,0.0,0.0,0.0,0.0,0.0,0.0,0.0,0.0,0.0,0.0,0.0,0.0,0.0,0.0,0.0,0.0,0.0,0.0,0.0,0.0,0.0,0.0,0.0,0.0,0.0,0.0,0.0,0.0,0.0,0.0,0.0,0.0,0.0,0.0,0.0,0.0,0.0,0.0,0.0,0.0,0.0,0.0,0.0,0.0,0.0,0.0,0.0,1.3561,1.5131,1.6711,1.8057,1.9107,1.9324,1.9516,1.9508,1.8298,1.6944,0.0,0.0,0.0,0.0,0.0,0.0,0.0,0.0,0.0,0.0,0.0,0.0,0.0,0.0,0.0,0.0,0.0,0.0,0.0,0.0,0.0,0.0,0.0,0.0,0.0,0.0,0.0,0.0,0.0,0.0,0.0,0.0,0.0,0.0,0.0,0.0,0.0,0.0,0.0,0.0,0.0,0.0,0.0137,0.0555,0.0,0.0,0.0,0.184,0.1686,0.0,0.0,0.0,0.0,0.0,0.0,0.0,0.0,0.0,0.0,0.0,0.0,0.0,0.0,0.0,0.0,0.0,0.0,0.0,0.0,0.0,0.0,0.0,0.0,0.0,0.0,0.0,0.0,0.0,0.0,0.0,0.0,0.0,0.0,0.0,0.0,0.0,0.0,0.0,0.0,0.0,0.0,0.0,0.0,0.0,0.0,0.0,0.0,0.0,0.0,0.0,0.0,0.0,0.0,0.0,0.0,0.0,1.6206,1.7293,1.8431,1.9817,1.9727,1.963,1.9557,1.8403,0.0,0.0,0.0,0.0,0.0,0.0,0.0,0.0,0.0,0.0,0.0,0.0,0.0,0.0,0.0,0.0,0.0,0.0,0.0,0.0,0.0,0.0,0.0,0.0,0.0,0.0,0.0,0.1896,0.0,0.0,0.0,0.0,0.0,0.0,0.0,0.0,0.0,0.0,0.0,0.0,0.0,0.0,0.0834,0.1414,0.1572,0.1721,0.0,0.0,0.2301,0.2273,0.2267,0.2255,0.0,0.0,0.0,0.0,0.0,0.0,0.0,0.0,0.0,0.0,0.0,0.0,0.0,0.0,0.0,0.0,0.0,0.0,0.0,0.0,0.0,0.0,0.0,0.0,0.0,0.0,0.0,0.0,0.0,0.0,0.0,0.0,0.0,0.0,0.0,0.0,0.0,0.0,0.0,0.0,0.0,0.0,0.0,0.0,0.0,0.0,0.0,0.0,0.0,0.0,0.0,0.0,0.0,0.0,0.0,1.6553,1.7957,1.9126,2.0011,2.0036,1.9946,1.976,1.8712,1.7459,0.0,0.0,0.0,0.0,0.0,0.0,0.0,0.0,0.0,0.0,0.0,0.0,0.0,0.0,0.0,0.0,0.0,0.0,0.0,0.0,0.0,0.0,0.0,0.0,0.0,0.0,0.0,0.0,0.0,0.0,0.0,0.0,0.0,0.0,0.0,0.0,0.0,0.0,0.0,0.0,0.0,0.2263,0.2323,0.233,0.2339,0.0,0.0,0.2361,0.2331,0.2326,0.2308,0.2252,0.0,0.0,0.0,0.0,0.0,0.0,0.0,0.0,0.0,0.0,0.0,0.0,0.0,0.0,0.0,0.0,0.0,0.0,0.0,0.0,0.0,0.0,0.0,0.0,0.0,0.0,0.0,0.0,0.0,0.0,0.0,0.0,0.0,0.0,0.0,0.0,0.0,0.0,0.0,0.0,0.0,0.0,0.0,0.0,0.0,0.0,0.0,0.0,0.0,0.0,0.0,0.0,0.0,1.5601,1.7089,1.8233,1.9207,2.0166,2.0117,1.9979,1.9792,1.8736,1.7539,0.0,0.0,0.0,0.0,0.0,0.0,0.0,0.0,0.0,0.0,0.0,0.0,0.0,0.0,0.0,0.0,0.0,0.0,0.0,0.0,0.0,0.0,0.0,0.0,0.0,0.0,0.0,0.0,0.197,0.1977,0.1977,0.0,0.0,0.0,0.0,0.0,0.0,0.0,0.0,0.0,0.0,0.3288,0.3057,0.3104,0.0,0.0,0.3125,0.3134,0.3072,0.2897,0.2721,0.2673,0.2368,0.0,0.0,0.0,0.0,0.0,0.0,0.0,0.0,0.0,0.0,0.0,0.0,0.0,0.0,0.0,0.0,0.0,0.0,0.0,0.0,0.0,0.0,0.0,0.0,0.0,0.0,0.0,0.0,0.0,0.0,0.0,0.0,0.0,0.0,0.0,0.0,0.0,0.0,0.0,0.0,0.0,0.0,0.0,0.0,0.0,0.0,0.0,0.0,0.0,0.0,0.0,0.0,1.5822,1.7453,1.8298,1.924,2.0296,2.0206,2.0052,1.9857,1.8923,1.7764,0.0,0.0,0.0,0.0,0.0,0.0,0.0,0.0,0.0,0.0,0.0,0.0,0.0,0.0,0.0,0.0,0.0,0.0,0.0,0.0,0.0,0.0,0.0,0.0,0.0,0.0,0.0,0.0,0.1994,0.1993,0.2001,0.0,0.0,0.0,0.0,0.0,0.0,0.0,0.0,0.0,0.0,0.376,0.3661,0.3574,0.3592,0.3529,0.3561,0.3565,0.3492,0.3156,0.2972,0.2932,0.0,0.0,0.0,0.0,0.0,0.0,0.0,0.0,0.0,0.0,0.0,0.0,0.0,0.0,0.0,0.0,0.0,0.0,0.0,0.0,0.0,0.0,0.0,0.0,0.0,0.0,0.0,0.0,0.0,0.0,0.0,0.0,0.0,0.0,0.0,0.0,0.0,0.0,0.0,0.0,0.0,0.0,0.0,0.0,0.0,0.0,0.0,0.0,0.0,0.0,0.0,0.0,0.0,1.6211,1.7616,1.8347,1.924,2.0271,2.0312,2.0223,2.0044,1.9345,1.8371,1.712,0.0,0.0,0.0,0.0,0.0,0.0,0.0,0.0,0.0,0.0,0.0,0.0,0.0,0.0,0.0,0.0,0.0,0.0,0.0,0.0,0.0,0.0,0.0,0.0,0.0,0.0,0.206,0.2035,0.2029,0.0,0.0,0.0,0.0,0.0,0.0,0.0,0.0,0.0,0.0,0.3586,0.3663,0.3856,0.3718,0.3569,0.3565,0.3531,0.3488,0.3441,0.3396,0.3351,0.0,0.0,0.0,0.0,0.0,0.0,0.0,0.0,0.0,0.0,0.0,0.0,0.0,0.0,0.0,0.0,0.0,0.0,0.0,0.0,0.0,0.0,0.0,0.0,0.0,0.0,0.0,0.0,1.3584,0.0,0.0,0.0,0.0,0.0,0.0,0.0,0.0,0.0,0.0,0.0,1.3694,1.3669,0.0,0.0,0.0,0.0,0.0,0.0,0.0,0.0,0.0,0.0,0.0,0.0,1.6219,1.7599,1.8355,1.9183,2.0101,2.0255,2.0182,1.9882,1.9297,1.8168,1.6116,0.0,0.0,0.0,0.0,0.0,0.0,0.0,0.0,0.0,0.0,0.0,0.0,0.0,0.0,0.0,0.0,0.0,0.0,0.0,0.0,0.0,0.0,0.0,0.0,0.0,0.2086,0.0,0.0,0.0,0.0,0.0,0.0,0.0,0.0,0.0,0.0,0.0,0.3799,0.3975,0.4184,0.4381,0.4399,0.4435,0.4285,0.0,0.0,0.0,0.0,0.0,0.0,0.0,0.0,0.0,0.0,0.0,0.0,0.0,0.0,0.3102,0.2339,0.1935,0.1677,0.1677,0.0,0.0,0.0,0.0,0.0,0.0,0.0,0.0,0.0,0.0,0.0,0.0,0.0,0.0,0.0,0.0,1.437,0.0,0.0,0.0,0.0,0.0,0.0,0.0,0.0,1.3962,1.4302,1.4375,1.4554,1.4578,0.0,1.4521,1.4213,0.0,0.0,0.0,0.0,0.0,0.0,0.0,0.0,1.6341,1.7607,1.8412,1.9216,2.0011,2.0231,2.0182,1.9882,1.9053,1.7708,1.6037,1.5097,1.3938,0.0,0.0,0.0,0.0,0.0,0.0,0.0,0.0,0.0,0.0,0.0,0.0,0.0,0.0,0.0,0.0,0.0,0.0,0.0,0.0,0.0,0.0,0.0,0.2532,0.0,0.0,0.0,0.0,0.0,0.0,0.0,0.0,0.0,0.3184,0.3781,0.4107,0.4142,0.4482,0.4665,0.4665,0.0,0.0,0.0,0.0,0.0,0.0,0.0,0.4129,0.4146,0.3844,0.3557,0.3452,0.3762,0.4065,0.4065,0.0,0.0,0.3345,0.2791,0.2389,0.2509,0.2377,0.1715,-0.0131,-0.1434,-0.234,0.0,0.0,0.0,0.0,0.0,0.0,0.0,0.0,1.531,1.5336,0.0,1.5301,0.0,0.0,0.0,0.0,0.0,0.0,0.0,0.0,1.4846,1.5106,1.5285,1.5472,1.5553,1.5536,1.5366,1.5187,1.496,1.4131,0.0,0.0,0.0,0.0,0.0,0.0,1.6568,1.7624,1.8517,1.9321,2.0028,2.0223,2.0214,1.9995,1.8671,1.7599,1.6868,1.5663,1.4649,1.4279,1.2582,0.0,0.0,0.0,0.0,0.0,0.0,0.0,0.0,0.0,0.0,0.0,0.0,0.0,0.0,0.0,0.0,0.0,0.0,0.0,0.0,0.3324,0.0,0.0,0.0,0.0,0.0,0.0,0.0,0.0,0.0,0.0,0.3942,0.4259,0.4575,0.4578,0.0,0.0,0.0,0.0,0.4643,0.4583,0.4523,0.4488,0.4482,0.4436,0.442,0.4471,0.0,0.0,0.4485,0.4488,0.4493,0.4488,0.4496,0.4348,0.393,0.3357,0.2925,0.3032,0.2472,0.1642,0.027,-0.1202,-0.2383,1.5438,0.0,0.0,0.0,0.0,1.5545,1.6223,1.7217,1.7009,1.7473,1.7976,1.7152,0.0,0.0,0.0,0.0,0.0,0.0,1.5228,1.5407,1.5756,1.6016,1.6202,1.6381,1.6405,1.6276,1.6227,1.6097,1.5894,1.5285,1.4659,1.4034,0.0,0.0,0.0,0.0,1.6438,1.7607,1.8403,1.9151,1.9857,2.0044,1.9865,1.9305,1.8517,1.7705,1.6885,1.6068,1.5265,1.4314,1.3496,0.0,0.0,0.0,0.0,0.0,0.0,0.0,0.0,0.0,0.0,0.0,0.0,0.0,0.0,0.0,0.0,0.0,0.0,0.0,0.3363,0.3213,0.3205,0.0,0.0,0.0,0.0,0.0,0.0,0.0,0.0,0.0,0.4583,0.4498,0.4589,0.0,0.0,0.4665,0.4665,0.4956,0.5081,0.5015,0.0,0.0,0.0,0.5305,0.5159,0.4902,0.4662,0.4545,0.4548,0.5015,0.5192,0.4757,0.4901,0.4901,0.4464,0.3831,0.3365,0.3349,0.1953,0.0557,-0.0,-0.1244,-0.2342,1.7696,1.6564,1.612,1.6195,1.6689,1.7042,1.8078,1.9314,1.9314,1.9634,1.9943,1.9233,1.8417,1.7416,1.6463,0.0,0.0,0.0,1.6196,1.6219,1.6568,1.6795,1.6909,1.708,1.7112,1.6998,1.6933,1.6771,1.6511,1.6129,1.5553,1.4822,0.0,0.0,1.5082,1.5675,1.6495,1.7518,1.8322,1.9004,1.9565,1.9687,1.95,1.8996,1.8395,1.7721,1.6982,1.643,1.569,1.4907,1.4223,1.339,0.0,0.0,0.0,0.0,0.0,0.0,0.0,0.0,0.0,0.0,0.0,0.4011,0.3656,0.0,0.0,0.0,0.4117,0.4169,0.4047,0.3743,0.0,0.0,0.0,0.0,0.0,0.0,0.0,0.4283,0.4588,0.4763,0.4834,0.4749,0.4687,0.4698,0.47,0.4692,0.4668,0.0,0.5225,0.5158,0.5597,0.5743,0.5699,0.5716,0.5747,0.5489,0.5238,0.497,0.5122,0.5746,0.5773,0.5179,0.5179,0.517,0.4853,0.4061,0.3432,0.34,0.1838,0.0282,-0.014,-0.1403,-0.2386,2.0365,2.026,1.8275,1.804,1.8656,1.9038,2.002,2.1747,2.1758,2.1758,2.1736,2.1471,2.0313,1.8646,1.7818,0.0,0.0,1.7171,1.7279,1.695,1.7307,1.7478,1.7502,1.764,1.7705,1.7697,1.7518,1.7266,1.6942,1.6722,1.6365,1.5853,1.5333,1.5147,1.5309,1.5959,1.6665,1.738,1.8241,1.8866,1.9224,1.924,1.9134,1.8915,1.8241,1.7624,1.7088,1.656,1.604,1.5512,1.4684,1.3948,1.3621,0.0,0.0,0.0,0.0,0.0,0.0,0.0,0.0,0.0,0.0,0.0,0.0,0.0,0.0,0.0,0.5275,0.0,0.499,0.4796,0.0,0.0,0.0,0.4709,0.4763,0.4768,0.4796,0.4858,0.0,0.0,0.0,0.0,0.4842,0.4928,0.4914,0.4889,0.4833,0.5122,0.5241,0.5336,0.5805,0.5991,0.6141,0.6044,0.6103,0.6162,0.5902,0.5738,0.604,0.6348,0.6355,0.5588,0.5443,0.5422,0.4912,0.4154,0.3541,0.3165,0.2006,0.0714,-0.0424,-0.1551,-0.2399,2.3116,2.3188,2.2684,2.1823,2.0938,2.1486,2.242,2.3578,2.3567,2.3753,2.4069,2.3298,2.1852,2.0206,1.9373,1.8739,1.8087,1.8117,1.8211,1.8225,1.8215,1.8273,1.8395,1.8306,1.8257,1.8241,1.794,1.7746,1.7648,1.7201,1.6852,1.6584,1.6186,1.5878,1.5675,1.6081,1.6657,1.738,1.7989,1.855,1.9029,1.9045,1.8834,1.8379,1.7819,1.7258,1.6722,1.6324,1.5861,1.5333,1.4774,1.4303,1.3784,1.2858,0.0,0.0,0.0,0.0,0.0,0.0,0.0,0.0,0.0,0.6183,0.5848,0.0,0.6478,0.0,0.6086,0.5882,0.5748,0.513,0.0,0.0,0.5156,0.503,0.4891,0.4894,0.4935,0.5038,0.5008,0.4997,0.5044,0.5207,0.548,0.5367,0.5307,0.5265,0.525,0.5849,0.6294,0.6422,0.6731,0.69,0.6904,0.6762,0.6484,0.6502,0.651,0.6355,0.6204,0.6661,0.6808,0.5748,0.5748,0.5572,0.4917,0.4458,0.3842,0.3352,0.2032,0.058,-0.0578,-0.1589,-0.2455,2.5473,2.5891,2.5879,2.5377,2.4699,2.4338,2.4947,2.603,2.6147,2.6316,2.6354,2.496,2.3447,2.1936,2.1213,2.0438,1.9761,1.9349,1.9031,1.9031,1.8666,1.8631,1.872,1.8623,1.8533,1.8444,1.8249,1.807,1.7908,1.7616,1.7299,1.6966,1.6763,1.6487,1.6146,1.6324,1.6738,1.7202,1.7989,1.8485,1.8842,1.8704,1.8444,1.807,1.7543,1.7015,1.6479,1.6194,1.5796,1.5268,1.4976,1.4589,1.4255,1.3465,1.2715,0.0,0.0,0.0,0.0,0.0,0.0,0.0,0.0,0.0,0.0,0.0,0.7833,0.0,0.7165,0.0,0.6559,0.6091,0.578,0.563,0.5667,0.5531,0.5055,0.5055,0.5082,0.5145,0.5123,0.5115,0.5471,0.5638,0.5931,0.601,0.6118,0.62,0.5926,0.6351,0.6668,0.6702,0.7048,0.7395,0.7431,0.7285,0.7115,0.708,0.7072,0.6922,0.6765,0.7072,0.7072,0.6149,0.5999,0.5809,0.4965,0.4494,0.4171,0.3665,0.2624,0.1166,0.0146,-0.1312,-0.2334,2.7854,2.838,2.8556,2.8743,2.9118,2.7577,2.7606,2.8457,2.8731,2.8669,2.8357,2.6423,2.5026,2.377,2.2878,2.2158,2.142,2.0324,1.9941,1.9522,1.897,1.8793,1.8793,1.8769,1.8671,1.8517,1.8476,1.829,1.7989,1.794,1.7681,1.7234,1.7185,1.7023,1.6551,1.6714,1.6958,1.7266,1.8111,1.8517,1.8647,1.8314,1.8054,1.7843,1.7323,1.6787,1.6259,1.6073,1.574,1.5236,1.5033,1.4862,1.4708,1.3945,1.3531,0.0,1.2241,0.0,0.0,0.0,0.0,0.0,0.0,0.0,0.0,0.9176,0.9236,0.9095,0.8655,0.8098,0.7455,0.7143,0.6661,0.6016,0.6188,0.5869,0.5378,0.5213,0.5218,0.5226,0.5218,0.5538,0.5866,0.6032,0.6191,0.6489,0.6963,0.7027,0.6487,0.6739,0.6922,0.6972,0.7353,0.7582,0.7627,0.7648,0.7615,0.7542,0.7513,0.7525,0.7513,0.7517,0.7209,0.658,0.642,0.6065,0.5027,0.4699,0.4354,0.4114,0.3358,0.2333,0.102,-0.0583,-0.2043,3.0556,3.105,3.1605,3.2005,3.2391,3.2144,3.0955,2.9393,2.9861,2.9695,2.904,2.8001,2.6817,2.5645,2.4394,2.331,2.2228,2.0918,2.0263,2.0298,1.9485,1.9159,1.9151,1.9004,1.8915,1.8866,1.859,1.842,1.8347,1.8054,1.7867,1.7762,1.7616,1.7502,0.0,0.0,0.0,0.0,1.8233,1.8395,1.8273,1.807,1.7811,1.7494,1.6966,0.0,1.5902,1.5707,1.5431,1.5041,1.4854,0.0,0.0,0.0,0.0,0.0,0.0,0.0,0.0,0.0,0.0,0.0,1.1868,1.129,1.0208,1.0247,1.0491,1.0594,0.9987,0.9361,0.8756,0.8118,0.7313,0.6503,0.6394,0.5933,0.544,0.5275,0.5294,0.5343,0.5636,0.5933,0.6098,0.6591,0.7058,0.7166,0.7471,0.7613,0.7545,0.7521,0.7537,0.7561,0.7733,0.7725,0.7668,0.7668,0.764,0.755,0.7525,0.7525,0.7525,0.7525,0.7369,0.69,0.6744,0.6562,0.5544,0.5334,0.4973,0.4305,0.426,0.3648,0.1895,0.0437,-0.0729,3.2666,0.0,3.3311,3.3505,0.0,3.3879,3.3188,3.1864,3.2024,3.1567,3.046,2.9581,2.8319,2.7075,2.5995,2.4769,2.3637,2.2014,2.1164,2.0966,1.9974,1.9386,1.9378,1.9207,1.9069,1.8972,1.8801,1.8671,1.8574,1.8314,1.8135,1.8038,1.7867,1.7778,1.7786,1.8141,1.819,1.7916,1.8184,1.8233,1.8054,1.7875,1.7567,1.7136,0.0,0.0,0.0,0.0,0.0,0.0,0.0,0.0,0.0,0.0,0.0,1.4263,1.4034,1.369,1.3401,1.3086,1.3058,1.3144,1.3447,1.3054,1.2044,1.2226,1.2288,1.2169,1.1752,1.0992,1.0221,0.9564,0.8729,0.7562,0.6888,0.6385,0.5882,0.5688,0.5683,0.5709,0.6025,0.6503,0.6666,0.6998,0.7481,0.7608,0.7765,0.7925,0.7917,0.7852,0.7811,0.786,0.7909,0.7897,0.7815,0.7754,0.7697,0.7615,0.7554,0.7529,0.7525,0.7525,0.7373,0.706,0.6904,0.6562,0.5874,0.552,0.5325,0.4659,0.4456,0.4123,0.2943,0.1611,0.0146,3.4283,3.4464,3.4506,3.4715,3.4757,3.5069,3.5012,3.452,0.0,0.0,0.0,3.1191,3.0011,2.8314,2.7588,2.6404,2.4876,2.325,2.2205,2.1599,2.0234,1.9741,1.9708,1.937,1.9207,1.9037,1.8996,1.8907,1.8769,1.859,1.842,1.8273,1.8127,1.8062,1.828,1.874,1.8551,1.8079,1.8168,1.8127,1.7924,1.7737,1.7404,1.6909,1.669,1.6276,1.5642,1.5577,1.5407,1.5082,1.5065,1.5057,1.5057,1.4927,1.4927,1.5082,1.4669,1.4515,1.4688,1.4515,1.46,1.463,1.4761,1.4542,1.4055,1.3994,1.3981,1.3804,1.3418,1.2684,1.1595,1.0913,1.0056,0.868,0.7749,0.7021,0.6492,0.6274,0.6237,0.6224,0.6556,0.6895,0.7391,0.7391,0.7729,0.806,0.8048,0.806,0.8044,0.7942,0.7885,0.7946,0.8003,0.8019,0.7925,0.7844,0.7762,0.7644,0.7566,0.7529,0.7525,0.7525,0.7369,0.7056,0.706,0.6718,0.589,0.5711,0.5532,0.4869,0.4512,0.4171,0.3864,0.2653,0.1171,3.5522,3.5691,3.6375,3.6691,3.6705,3.704,3.6982,3.6618,3.4828,3.4045,3.3768,3.2759,3.1749,3.0531,2.9051,2.7498,2.5922,2.4398,2.3423,0.0,2.1168,2.0469,2.0308,1.9692,1.9386,1.9216,1.9061,1.8972,1.8931,1.8769,1.8671,1.8647,1.8623,1.8606,1.8615,1.8663,1.8663,1.8615,1.8476,1.8249,1.7924,1.7737,1.7461,1.7088,1.6755,1.6389,1.5991,1.5821,1.5642,1.5455,1.5439,1.5439,1.5439,1.5415,1.548,1.5642,1.5634,1.5707,1.5715,1.5755,1.5999,1.6328,1.6357,1.5884,1.4885,1.4885,1.4967,1.4961,1.4316,1.3475,1.2981,1.179,1.0589,0.9203,0.8498,0.7769,0.7021,0.6823,0.6792,0.6573,0.7063,0.7394,0.7394,0.7729,0.7893,0.806,0.806,0.806,0.8056,0.8044,0.8032,0.804,0.8052,0.7995,0.7876,0.7815,0.7733,0.757,0.7537,0.7525,0.7525,0.7525,0.7525,0.7369,0.7369,0.7049,0.6407,0.6206,0.5714,0.5075,0.4723,0.4519,0.418,0.3415,0.2215,3.6723,3.6752,3.7285,3.7358,3.7373,3.7519,3.749,3.73,3.6303,3.5433,3.4729,3.3588,3.2532,3.1777,3.033,2.9001,2.7604,2.5934,2.4575,2.375,2.2211,2.1511,2.1018,2.0713,2.0376,2.0198,2.0114,2.0012,1.951,1.9336,1.906,1.8866,1.8866,1.8866,1.8874,1.9158,1.9345,1.9245,1.8781,1.8518,1.8441,1.8251,1.8116,1.8006,1.7818,1.7503,1.6867,1.6931,1.6802,1.6461,1.6282,1.612,1.612,1.5967,1.5878,1.6048,1.6056,1.6146,1.6324,1.6332,1.6414,1.6771,1.6682,1.6567,1.6231,1.5973,1.5957,1.5691,1.5421,1.4778,1.3907,1.3029,1.1981,1.059,0.9486,0.8561,0.7822,0.7395,0.7163,0.7127,0.7589,0.7729,0.7729,0.7897,0.806,0.806,0.806,0.806,0.806,0.806,0.806,0.806,0.806,0.8011,0.7893,0.7827,0.7746,0.7619,0.7558,0.7529,0.7525,0.7525,0.7525,0.7525,0.7525,0.7213,0.6427,0.6251,0.5919,0.5134,0.4935,0.4731,0.425,0.3454,0.2073,3.7578,3.7578,3.7651,3.7724,3.7797,3.7797,3.7753,3.7665,3.7402,3.6778,3.586,3.4535,3.3625,3.3063,3.1939,3.0661,2.926,2.7747,2.6387,2.514,2.3689,2.2747,2.2301,2.1935,2.1765,2.1395,2.1342,2.0838,2.0294,2.0107,1.9818,1.924,1.9436,1.9436,1.924,1.9961,2.0166,2.0004,1.9305,1.9012,1.9125,1.8971,1.8828,1.869,1.8558,1.8304,1.7873,1.7759,1.7645,1.7504,1.7156,1.699,1.6982,1.6493,1.641,1.6566,1.643,1.6511,1.6674,1.6698,1.6763,1.6893,1.6909,1.7148,1.7255,1.7165,1.6909,1.6396,1.649,1.6034,1.497,1.4095,1.3224,1.1976,1.0661,0.9536,0.8983,0.8346,0.7909,0.7886,0.7981,0.8097,0.8089,0.8072,0.806,0.806,0.806,0.806,0.806,0.806,0.806,0.806,0.806,0.8011,0.7925,0.7844,0.7754,0.7656,0.757,0.7533,0.7525,0.7525,0.7525,0.7525,0.7525,0.7213,0.6427,0.6271,0.5955,0.5167,0.4981,0.4797,0.4463,0.3625,0.2223,3.7592,3.7622,3.79,3.8192,3.8412,3.8426,3.8265,3.8031,3.7958,3.7768,3.7185,3.6493,3.5533,3.4583,3.4015,3.2686,3.0829,2.9824,2.8493,2.7023,2.5552,2.4724,2.3964,2.3508,2.2775,2.2388,2.2013,2.1723,2.1063,2.0887,2.0406,2.0012,2.0406,2.0397,2.0012,2.0423,2.0808,2.079,2.0597,2.0228,1.971,1.9657,1.9455,1.905,1.8708,1.8506,1.8601,1.8101,1.7908,1.7891,1.7891,1.7891,1.7882,1.7374,1.7281,1.7295,1.6968,1.6877,1.7031,1.7063,1.7055,1.7088,1.743,1.7797,1.7822,1.8147,1.7964,1.7255,1.7096,1.6753,1.6225,1.4985,1.4108,1.3401,1.2142,1.1041,1.0419,0.9684,0.8935,0.8848,0.8582,0.8187,0.8179,0.8121,0.8068,0.806,0.806,0.806,0.806,0.806,0.806,0.806,0.806,0.7991,0.7864,0.7807,0.7729,0.7586,0.7533,0.7525,0.7525,0.7525,0.7525,0.7525,0.7525,0.7213,0.6587,0.6271,0.5958,0.5335,0.5008,0.4839,0.4475,0.4086,0.3265,3.8148,3.8163,3.8295,3.8412,3.8529,3.8543,3.847,3.8324,3.8134,3.7973,3.787,3.752,3.675,3.597,3.5266,3.4077,3.284,3.1887,3.0598,2.8926,2.7862,2.7068,2.5954,2.5204,2.4829,2.4426,2.3923,2.3346,2.25,2.1703,2.1022,2.0629,2.0629,2.0629,2.0629,2.1022,2.121,2.121,2.153,2.1449,2.1008,2.0467,2.0214,2.0207,2.0014,1.9867,1.9738,1.9471,1.9324,1.9315,1.8858,1.8795,1.8622,1.8268,1.7957,1.8044,1.787,1.7912,1.7981,1.7989,1.7989,1.7989,1.8164,1.8164,1.8173,1.8689,1.8689,1.7989,1.7639,1.7288,1.6753,1.6049,1.5168,1.4108,1.3224,1.2491,1.1566,1.061,1.0024,0.9981,0.9198,0.862,0.8607,0.8369,0.8125,0.8076,0.806,0.806,0.806,0.806,0.806,0.806,0.806,0.7987,0.7844,0.7799,0.7717,0.7586,0.7525,0.7525,0.7525,0.7525,0.7525,0.7525,0.7525,0.7213,0.6431,0.6275,0.6118,0.5335,0.5019,0.4847,0.4794,0.4411,0.3893,3.8543,3.8543,3.8543,3.8543,3.8543,3.8543,3.8543,3.8514,3.8295,3.8192,3.8192,3.8192,3.7855,3.7242,3.6187,3.5569,3.4729,3.3809,3.2527,3.1046,3.032,2.9124,2.808,2.7253,2.6842,2.6285,2.5795,2.5121,2.3909,2.2755,2.1863,2.1228,2.121,2.121,2.1022,2.1603,2.1799,2.1808,2.2191,2.2227,2.1886,2.129,2.0983,2.097,2.0875,2.0771,2.0629,2.0422,2.0308,2.0308,1.9804,1.9545,1.9554,1.9202,1.8849,1.8673,1.8673,1.8673,1.8673,1.8673,1.8646,1.8594,1.8769,1.8751,1.8698,1.9204,1.9214,1.8864,1.8523,1.7989,1.7463,1.6928,1.6225,1.5168,1.4462,1.3578,1.2863,1.1897,1.1148,1.0786,0.9995,0.9221,0.9016,0.8595,0.8336,0.8117,0.8081,0.806,0.806,0.806,0.806,0.806,0.806,0.8003,0.7868,0.7811,0.7725,0.7619,0.7554,0.7525,0.7525,0.7525,0.7525,0.7525,0.7525,0.7213,0.6584,0.6275,0.5962,0.5335,0.5019,0.5011,0.482,0.4594,0.4384,3.8543,3.8543,3.8543,3.8529,3.8529,3.8529,3.8529,3.85,3.85,3.85,3.8485,3.85,3.85,3.8248,3.7803,3.7012,3.591,3.565,3.4488,3.2989,3.2493,3.1203,2.9742,2.9302,2.8767,2.768,2.7503,2.6547,2.5106,2.3879,2.299,2.2406,2.2191,2.1995,2.1799,2.1995,2.2387,2.2387,2.2387,2.2283,2.2075,2.1877,2.1574,2.1187,2.0951,2.0847,2.0809,2.0639,2.0526,2.0526,2.0497,2.0497,2.0318,1.9949,1.9581,1.9222,1.905,1.905,1.9042,1.9213,1.8971,1.9,1.9319,1.9423,1.9259,1.959,1.9765,1.9746,1.9388,1.8864,1.8514,1.7639,1.7112,1.6761,1.5697,1.4815,1.4285,1.3382,1.2503,1.1599,1.0983,1.018,0.9216,0.8937,0.8718,0.834,0.8113,0.806,0.806,0.806,0.806,0.806,0.8056,0.8032,0.7942,0.7852,0.7762,0.766,0.757,0.7525,0.7525,0.7525,0.7525,0.7525,0.7369,0.7056,0.6584,0.6115,0.5802,0.5332,0.5022,0.5008,0.4997,0.4913,0.455,3.8543,3.8543,3.8543,3.8426,3.8236,3.8236,3.8236,3.8236,3.8236,3.8353,3.8514,3.8543,3.8543,3.8529,3.8335,3.7695,3.7054,3.6941,3.6259,3.4963,3.4174,3.3279,3.2262,3.1191,3.0358,2.9784,2.9081,2.7761,2.5911,2.5356,2.437,2.3013,2.2974,2.2583,2.2201,2.2387,2.2387,2.2387,2.2387,2.2293,2.2113,2.2019,2.1782,2.1385,2.1159,2.1045,2.1045,2.0847,2.0733,2.0733,2.0611,2.0544,2.0544,2.0355,2.0175,1.9995,1.9995,2.0005,2.0005,1.9995,1.9968,1.9894,2.0073,1.998,1.9981,1.9934,2.0062,1.9959,1.9746,1.9572,1.9223,1.8514,1.7814,1.7112,1.6585,1.6057,1.5344,1.4639,1.3932,1.3217,1.2113,1.0817,1.0175,0.9375,0.8946,0.8709,0.8286,0.8068,0.806,0.806,0.806,0.806,0.806,0.8052,0.8027,0.7885,0.7766,0.7676,0.7595,0.7546,0.7525,0.7525,0.7525,0.7525,0.7369,0.69,0.6275,0.5802,0.5489,0.5335,0.5022,0.5022,0.5022,0.4786,0.4428,3.8485,3.8382,3.8382,3.8207,3.7929,3.7914,3.7914,3.7914,3.8017,3.8178,3.8382,3.8485,3.8543,3.8543,3.8543,3.8335,3.7904,3.7904,3.7486,3.6607,3.5913,3.5044,3.3783,3.2814,3.1933,3.1351,3.0441,2.8953,2.7547,2.6695,2.5469,2.4072,2.361,2.317,2.2779,2.2583,2.2583,2.2387,2.2387,2.2321,2.2198,2.2123,2.1962,2.1678,2.1414,2.1225,2.1178,2.1026,2.0941,2.0932,2.0818,2.0743,2.0743,2.0743,2.0743,2.0743,2.0743,2.0743,2.0743,2.0743,2.0715,2.0648,2.0629,2.0544,2.0346,2.0261,2.0148,2.0044,1.994,1.9921,1.9746,1.9397,1.8689,1.7989,1.763,1.7279,1.6409,1.6057,1.5168,1.4285,1.2869,1.1765,1.0978,0.9966,0.9352,0.8928,0.848,0.8064,0.806,0.806,0.806,0.806,0.806,0.806,0.8036,0.7938,0.7831,0.7738,0.7635,0.7578,0.7525,0.7525,0.7525,0.7369,0.7056,0.6587,0.6118,0.5492,0.5179,0.5022,0.5022,0.5022,0.4847,0.4818,0.4302,3.8353,3.8104,3.8075,3.7885,3.7607,3.7578,3.7578,3.7622,3.79,3.8046,3.8163,3.8397,3.8543,3.8543,3.8543,3.8543,3.8335,3.8335,3.8112,3.7667,3.7202,3.6204,3.4877,3.4189,3.3298,3.2175,3.1338,3.046,2.9555,2.7924,2.6695,2.5852,2.466,2.3786,2.317,2.317,2.2984,2.2583,2.2583,2.2378,2.2368,2.2208,2.2094,2.2019,2.1688,2.1404,2.1196,2.1168,2.114,2.1149,2.114,2.1159,2.1121,2.1111,2.1149,2.1121,2.114,2.1149,2.114,2.1121,2.1007,2.0894,2.0847,2.0762,2.0554,2.0384,2.0261,2.0176,2.0044,1.994,1.993,1.9746,1.9563,1.9204,1.8689,1.8156,1.7805,1.7288,1.6401,1.4815,1.3578,1.252,1.1577,1.0539,0.9711,0.9149,0.8509,0.806,0.806,0.806,0.806,0.806,0.806,0.806,0.8032,0.7991,0.7905,0.7815,0.7709,0.7623,0.755,0.7525,0.7525,0.7369,0.69,0.6431,0.5805,0.5179,0.5179,0.5022,0.5022,0.5022,0.4849,0.4823,0.4463,3.8353,3.8075,3.8061,3.7739,3.727,3.7241,3.7241,3.7285,3.7592,3.7856,3.809,3.8397,3.8543,3.8543,3.8543,3.8543,3.8543,3.8543,3.8321,3.8098,3.7803,3.7008,3.5969,3.5376,3.4255,3.3055,3.2351,3.1265,3.0028,2.9307,2.8065,2.6518,2.5798,2.4887,2.4176,2.3961,2.3561,2.3561,2.317,2.2984,2.2974,2.2526,2.2236,2.2094,2.1962,2.1735,2.1395,2.1244,2.1178,2.1168,2.1168,2.1168,2.1168,2.1168,2.1168,2.1168,2.1168,2.1168,2.1168,2.1168,2.114,2.1074,2.1064,2.096,2.0781,2.0686,2.0516,2.0289,2.0157,2.0081,1.9949,1.9921,1.9737,1.9204,1.9039,1.8864,1.8339,1.7639,1.6928,1.6225,1.4815,1.3755,1.282,1.176,1.0406,0.9697,0.9027,0.8403,0.8232,0.8227,0.806,0.806,0.806,0.806,0.8044,0.8023,0.7966,0.7868,0.7762,0.7664,0.7586,0.7525,0.7525,0.7213,0.6587,0.6118,0.5492,0.5179,0.5022,0.5022,0.5022,0.5019,0.4863,0.4678,0.4326,3.828,3.79,3.7885,3.7504,3.6934,3.6905,3.6905,3.6978,3.7387,3.7695,3.7943,3.8353,3.8543,3.8543,3.8543,3.8543,3.8543,3.8543,3.8543,3.8543,3.8112,3.7581,3.6537,3.5499,3.4568,3.3488,3.2956,3.2119,3.0952,3.0427,2.9622,2.7962,2.7232,2.6529,2.5591,2.5384,2.4991,2.4597,2.4214,2.3966,2.3513,2.31,2.2612,2.2421,2.2326,2.1962,2.1697,2.1442,2.1244,2.1187,2.1168,2.1168,2.1168,2.1168,2.1168,2.1168,2.1168,2.1168,2.1168,2.1168,2.1168,2.1168,2.1168,2.1121,2.0979,2.0913,2.0696,2.0516,2.0308,2.0166,2.0053,1.9949,1.9746,1.9563,1.9388,1.9214,1.8864,1.8339,1.763,1.6928,1.5873,1.4815,1.3872,1.2463,1.1101,1.0371,0.9535,0.8905,0.8566,0.8566,0.8566,0.8399,0.8399,0.8232,0.806,0.8044,0.8019,0.7921,0.7811,0.7713,0.7623,0.7554,0.7525,0.69,0.6275,0.5805,0.5179,0.5179,0.5022,0.5022,0.5022,0.4865,0.4709,0.4395,0.4046,3.8163,3.7607,3.7578,3.7226,3.667,3.6641,3.6641,3.6729,3.73,3.7592,3.7724,3.8265,3.8543,3.8543,3.8543,3.8543,3.8543,3.8543,3.8543,3.8543,3.8335,3.7875,3.6747,3.5224,3.4434,3.3935,3.3587,3.3013,3.2346,3.1752,3.1001,2.9719,2.9105,2.8404,2.7543,2.7191,2.6761,2.5954,2.5587,2.5283,2.4523,2.3691,2.3405,2.3199,2.243,2.2104,2.199,2.165,2.1357,2.1206,2.1168,2.1168,2.1168,2.1168,2.1168,2.1168,2.1168,2.1168,2.1168,2.1168,2.1168,2.1168,2.1168,2.1168,2.1121,2.0989,2.0866,2.0762,2.0497,2.028,2.0223,2.0072,1.9968,1.9921,1.9746,1.9563,1.9379,1.9204,1.8506,1.763,1.6753,1.5866,1.4618,1.3146,1.198,1.1218,1.0382,0.9593,0.9235,0.9068,0.9072,0.8905,0.8738,0.8566,0.8399,0.8056,0.8036,0.7991,0.7876,0.777,0.7501,0.7425,0.7213,0.6587,0.5962,0.5492,0.5179,0.5022,0.5022,0.5022,0.4865,0.4709,0.4552,0.4241,0.3897,3.8163,3.7592,3.7578,3.7197,3.6656,3.6612,3.6612,3.6685,3.73,3.7578,3.7724,3.8251,3.8543,3.8543,3.8543,3.8543,3.8543,3.8543,3.8543,3.8543,3.8543,3.7681,3.6482,3.539,3.4679,3.4135,3.3694,3.3213,3.2611,3.232,3.179,3.1001,3.0528,2.9983,2.9429,2.9022,2.8602,2.781,2.7026,2.6417,2.5734,2.4386,2.3493,2.3414,2.2817,2.2245,2.2075,2.1697,2.1376,2.1187,2.1168,2.1168,2.1168,2.1168,2.1168,2.1168,2.1168,2.1168,2.1168,2.1168,2.1168,2.1168,2.1168,2.1168,2.1168,2.1121,2.1007,2.0885,2.0715,2.0601,2.0459,2.0261,2.0091,1.9949,1.993,1.9921,1.9737,1.9388,1.903,1.8681,1.763,1.6753,1.563,1.4388,1.2987,1.2075,1.1407,1.057,1.0237,0.9736,0.9908,0.924,0.9072,0.8738,0.8566,0.8232,0.8052,0.8036,0.7946,0.7831,0.7549,0.7279,0.6766,0.6115,0.5648,0.5179,0.5022,0.5022,0.5022,0.5022,0.5022,0.4865,0.4395,0.4081,0.3884,3.8163,3.7578,3.7578,3.7197,3.6641,3.6612,3.6685,3.689,3.7344,3.7665,3.787,3.8295,3.8543,3.8543,3.8543,3.8543,3.8543,3.8543,3.8543,3.8543,3.8543,3.7889,3.6913,3.5913,3.5047,3.4666,3.3828,3.3359,3.3039,3.3013,3.2707,3.2203,3.1964,3.1675,3.156,3.1125,3.0516,2.993,2.8919,2.8084,2.6959,2.565,2.4456,2.3948,2.3168,2.2602,2.2297,2.1782,2.148,2.1244,2.1168,2.1168,2.1168,2.1168,2.1168,2.1168,2.1168,2.1168,2.1168,2.1168,2.1168,2.1168,2.1168,2.1168,2.1168,2.1168,2.1093,2.1007,2.0904,2.079,2.0648,2.0403,2.0185,2.0072,1.9968,1.9921,1.9921,1.9737,1.9379,1.903,1.8339,1.7463,1.6745,1.5406,1.4228,1.3271,1.2402,1.1957,1.157,1.107,1.0404,0.9903,0.9407,0.9072,0.8571,0.8399,0.806,0.8044,0.7999,0.7889,0.7301,0.6861,0.6343,0.5846,0.5353,0.5025,0.5027,0.5027,0.5022,0.5022,0.5022,0.4709,0.4395,0.4081,0.3882,3.8163,3.7578,3.7578,3.7197,3.6656,3.6656,3.6831,3.7109,3.749,3.7797,3.8061,3.8382,3.8529,3.8543,3.8543,3.8543,3.8543,3.8543,3.8543,3.8543,3.8543,3.8112,3.7652,3.6509,3.5583,3.5103,3.4219,3.391,3.348,3.3414,3.3614,3.356,3.3574,3.36,3.3307,3.2947,3.2598,3.173,3.0686,2.9593,2.8433,2.6933,2.5735,2.4686,2.3512,2.2875,2.2354,2.2068,2.1612,2.1225,2.1187,2.1168,2.1168,2.1168,2.1168,2.1168,2.1168,2.1168,2.1168,2.1168,2.1168,2.1168,2.1168,2.1168,2.1168,2.1168,2.1159,2.113,2.0979,2.0885,2.0781,2.0497,2.0299,2.0204,2.0044,1.9968,1.9921,1.9921,1.9746,1.9388,1.8864,1.8164,1.7372,1.6317,1.5235,1.4686,1.3789,1.3158,1.2593,1.1902,1.1403,1.0737,1.007,0.924,0.8738,0.8399,0.8232,0.8052,0.8019,0.7781,0.7058,0.6644,0.6107,0.559,0.5246,0.5063,0.5049,0.5041,0.503,0.5022,0.5022,0.4552,0.4081,0.3925,0.3743,3.8163,3.7578,3.7578,3.7197,3.67,3.6875,3.7036,3.7153,3.7709,3.7987,3.8134,3.8412,3.8529,3.8543,3.8543,3.8543,3.8543,3.8543,3.8543,3.8543,3.8543,3.8543,3.8054,3.738,3.6243,3.5307,3.4802,3.4313,3.4082,3.4014,3.4214,3.4612,3.4612,3.4612,3.4612,3.4413,3.4014,3.3,3.1995,3.0962,2.9462,2.7683,2.6339,2.5354,2.3868,2.2707,2.2345,2.1896,2.1669,2.1442,2.1263,2.1196,2.1178,2.1168,2.1168,2.1168,2.1168,2.1168,2.1168,2.1168,2.1168,2.1168,2.1168,2.1168,2.1168,2.1168,2.1168,2.1168,2.1121,2.1007,2.0875,2.0771,2.0554,2.0337,2.0195,2.0081,1.9968,1.9921,1.9921,1.9737,1.9388,1.8855,1.8156,1.7273,1.6387,1.591,1.524,1.4216,1.3652,1.2945,1.2105,1.1461,1.0273,0.9435,0.9072,0.8566,0.8232,0.806,0.7865,0.7678,0.6956,0.641,0.5866,0.5494,0.5291,0.5268,0.5082,0.5049,0.5036,0.5027,0.5022,0.4552,0.4238,0.4081,0.3607,3.8163,3.7607,3.7739,3.7431,3.6934,3.7183,3.7417,3.7592,3.79,3.8148,3.8295,3.8485,3.8543,3.8543,3.8543,3.8543,3.8543,3.8543,3.8543,3.8543,3.8543,3.8543,3.847,3.8,3.7065,3.5949,3.5374,3.5055,3.4723,3.4612,3.4812,3.5408,3.5423,3.5607,3.5607,3.5621,3.5011,3.4214,3.3,3.1995,3.0558,2.8855,2.6873,2.5509,2.3747,2.2586,2.2397,2.2085,2.1849,2.1631,2.1423,2.1263,2.1178,2.1168,2.1168,2.1168,2.1168,2.1168,2.1168,2.1168,2.1168,2.1168,2.1168,2.1168,2.1168,2.1168,2.1168,2.1168,2.1159,2.1111,2.1007,2.0875,2.0705,2.0554,2.0327,2.0176,2.0072,1.9977,1.9921,1.9746,1.9388,1.9204,1.8627,1.7992,1.7543,1.7049,1.6244,1.5386,1.4711,1.3992,1.2914,1.1885,1.0677,0.9805,0.9254,0.8733,0.8227,0.7893,0.7722,0.7379,0.6853,0.6311,0.5775,0.5567,0.5358,0.5142,0.5112,0.5079,0.5046,0.503,0.4865,0.4552,0.4395,0.4081,0.3452,3.8046,3.7534,3.7812,3.7592,3.7197,3.7431,3.7739,3.8017,3.8119,3.8295,3.85,3.8543,3.8543,3.8543,3.8543,3.8543,3.8543,3.8543,3.8543,3.8543,3.8543,3.8543,3.847,3.8207,3.7695,3.6982,3.623,3.5688,3.5322,3.521,3.5408,3.582,3.609,3.6076,3.6429,3.6332,3.5735,3.5039,3.4095,3.2865,3.1416,2.9963,2.802,2.553,2.3806,2.2955,2.2586,2.2293,2.1981,2.1801,2.1584,2.1376,2.1225,2.1168,2.1168,2.1168,2.1168,2.1168,2.1168,2.1168,2.1168,2.1168,2.1168,2.1168,2.1168,2.1168,2.1168,2.1168,2.1168,2.1168,2.1159,2.1036,2.0904,2.0762,2.0478,2.0289,2.0185,2.0044,1.994,1.9921,1.9563,1.9388,1.8994,1.8565,1.8468,1.8026,1.7212,1.6438,1.5748,1.4856,1.3402,1.2168,1.0779,0.9535,0.8977,0.8738,0.8236,0.7733,0.7566,0.7059,0.6727,0.6028,0.549,0.5468,0.5259,0.5204,0.5155,0.512,0.5085,0.5046,0.4865,0.4709,0.4395,0.4084,0.3452,3.7519,3.7183,3.7226,3.7183,3.7153,3.7446,3.7768,3.8075,3.8324,3.8485,3.8529,3.8543,3.8543,3.8543,3.8543,3.8543,3.8543,3.8543,3.8543,3.8543,3.8543,3.8529,3.8426,3.8148,3.7856,3.7375,3.6695,3.5934,3.5692,3.5607,3.6032,3.6458,3.6661,3.6875,3.6875,3.6851,3.6679,3.5806,3.4889,3.3681,3.2299,3.038,2.846,2.5795,2.4287,2.3279,2.2671,2.233,2.2,2.1801,2.1584,2.1385,2.1225,2.1168,2.1168,2.1168,2.1168,2.1168,2.1168,2.1168,2.1168,2.1168,2.1168,2.1168,2.1168,2.1168,2.1168,2.1168,2.1168,2.1168,2.1168,2.1111,2.1017,2.0856,2.0639,2.0412,2.0242,2.0062,1.993,1.9921,1.9737,1.9737,1.9351,1.9141,1.8903,1.8485,1.7716,1.6747,1.6012,1.4944,1.3508,1.2282,1.0891,0.9621,0.8539,0.8286,0.8072,0.7577,0.7241,0.6895,0.6392,0.5888,0.5533,0.5341,0.5316,0.5275,0.5224,0.5175,0.5125,0.5087,0.4897,0.4868,0.4552,0.4241,0.3613,3.7387,3.7124,3.727,3.7241,3.7197,3.7622,3.7914,3.8104,3.8397,3.8543,3.8543,3.8543,3.8543,3.8543,3.8543,3.8543,3.8543,3.8543,3.8543,3.8543,3.8529,3.8426,3.828,3.7973,3.7636,3.7314,3.6792,3.6375,3.6216,3.6202,3.6487,3.6861,3.7036,3.708,3.7153,3.7387,3.7185,3.6364,3.5613,3.4544,3.2631,3.0477,2.7873,2.6296,2.4598,2.3576,2.2822,2.2472,2.2104,2.1849,2.1697,2.1471,2.1272,2.1168,2.1168,2.1168,2.1168,2.1168,2.1168,2.1168,2.1168,2.1168,2.1168,2.1168,2.1168,2.1168,2.1168,2.1168,2.1168,2.1168,2.1168,2.1168,2.1111,2.0989,2.0743,2.0526,2.0355,2.01,1.9987,1.994,1.9921,1.9746,1.9737,1.9535,1.9333,1.8766,1.8018,1.7248,1.6294,1.4887,1.3474,1.2038,1.0636,0.9534,0.8436,0.8195,0.7965,0.7454,0.7102,0.6755,0.6233,0.5732,0.5558,0.5373,0.5349,0.5324,0.5289,0.5237,0.5183,0.5128,0.5095,0.4905,0.4721,0.4397,0.377,3.7226,3.7022,3.727,3.727,3.7197,3.7636,3.79,3.8031,3.8295,3.8426,3.8456,3.85,3.8543,3.8543,3.8543,3.8543,3.8543,3.8543,3.8543,3.8543,3.8529,3.8382,3.8061,3.7724,3.7431,3.7139,3.6802,3.6612,3.6626,3.67,3.6875,3.7065,3.7153,3.7344,3.7534,3.7739,3.7287,3.6997,3.6209,3.5034,3.266,2.9974,2.7576,2.6261,2.4861,2.3614,2.2954,2.2586,2.2179,2.1915,2.1745,2.1593,2.1253,2.1168,2.1168,2.1168,2.1168,2.1168,2.1168,2.1168,2.1168,2.1168,2.1168,2.1168,2.1168,2.1168,2.1168,2.1168,2.1168,2.1168,2.1168,2.1168,2.1168,2.1093,2.0847,2.0582,2.0497,2.0308,2.0072,2.0006,1.9959,1.9921,1.9746,1.9563,1.9177,1.8828,1.8087,1.7039,1.6094,1.4899,1.3462,1.1636,1.0364,0.9261,0.8511,0.8285,0.7894,0.7369,0.7007,0.6646,0.6108,0.558,0.5572,0.5398,0.5382,0.5354,0.5327,0.5292,0.5229,0.5175,0.5136,0.509,0.4886,0.4554,0.3927,3.67,3.667,3.6714,3.6861,3.708,3.7197,3.7387,3.7665,3.7987,3.8119,3.8134,3.8382,3.8485,3.85,3.8514,3.8529,3.8543,3.8543,3.8543,3.8543,3.8529,3.8353,3.8046,3.7724,3.7373,3.7051,3.6744,3.6626,3.6656,3.6861,3.7036,3.7183,3.7592,3.7856,3.7753,3.809,3.8119,3.7549,3.6612,3.5007,3.2533,3.0539,2.8529,2.6853,2.5296,2.4026,2.3165,2.2614,2.2217,2.1877,2.1801,2.1584,2.1253,2.1168,2.1168,2.1168,2.1168,2.1168,2.1168,2.1168,2.1168,2.1168,2.1168,2.1168,2.1168,2.1168,2.1168,2.1168,2.1168,2.1168,2.1168,2.1168,2.1168,2.1287,2.1125,2.0991,2.0724,2.0459,2.0223,2.0091,2.0053,1.9968,1.9746,1.9563,1.9204,1.8681,1.7981,1.692,1.569,1.4278,1.2863,1.1025,0.9926,0.8996,0.8602,0.837,0.7815,0.7281,0.6901,0.6531,0.5989,0.5623,0.5594,0.5417,0.5401,0.5384,0.536,0.5319,0.5267,0.5218,0.5172,0.5104,0.5036,0.4557,0.4086,3.6612,3.6612,3.6612,3.6685,3.6831,3.7007,3.7168,3.7344,3.7651,3.7782,3.7812,3.7929,3.809,3.8236,3.8265,3.8382,3.85,3.8543,3.8543,3.8543,3.85,3.8265,3.7856,3.7622,3.7358,3.689,3.67,3.6612,3.67,3.6919,3.7168,3.7417,3.7812,3.8119,3.8046,3.8382,3.8353,3.7722,3.6477,3.4774,3.2853,3.0744,2.8882,2.7327,2.5669,2.4468,2.3517,2.2812,2.2274,2.1981,2.1877,2.166,2.1385,2.1244,2.1168,2.1168,2.1168,2.1168,2.1168,2.1168,2.1168,2.1168,2.1168,2.1168,2.1168,2.1168,2.1168,2.1168,2.1168,2.1168,2.1168,2.1168,2.1168,2.1306,2.1191,2.1115,2.0818,2.0592,2.0374,2.0261,2.0148,1.9887,1.9637,1.925,1.8707,1.7981,1.7104,1.6042,1.4455,1.2863,1.1449,1.0021,0.9286,0.8728,0.8694,0.8473,0.7903,0.7352,0.6952,0.6579,0.5868,0.5499,0.5474,0.5439,0.5412,0.5398,0.5387,0.536,0.5316,0.5262,0.5204,0.5145,0.4926,0.4564,0.3778,3.6612,3.6612,3.6612,3.6612,3.6626,3.6875,3.6963,3.7007,3.7314,3.7461,3.7475,3.7563,3.7739,3.7929,3.8046,3.8207,3.8412,3.85,3.8529,3.8543,3.8456,3.8163,3.7782,3.7534,3.7241,3.6612,3.6626,3.6612,3.67,3.6934,3.7256,3.7578,3.7885,3.8207,3.8441,3.8529,3.8485,3.8011,3.6533,3.5034,3.3394,3.1154,2.9302,2.7636,2.5913,2.4628,2.3757,2.2812,2.2293,2.2094,2.1896,2.1688,2.1461,2.1272,2.1178,2.1168,2.1168,2.1168,2.1168,2.1168,2.1168,2.1168,2.1168,2.1168,2.1168,2.1168,2.1168,2.1168,2.1168,2.1168,2.1168,2.1168,2.1168,2.113,2.1239,2.1163,2.0885,2.0724,2.0592,2.0516,2.0205,1.9664,1.9405,1.8972,1.8392,1.7296,1.6225,1.4985,1.3394,1.1804,1.0738,0.9317,0.8956,0.8587,0.857,0.8365,0.7802,0.7424,0.702,0.6466,0.5929,0.5553,0.5526,0.5485,0.5436,0.5409,0.5395,0.5382,0.5365,0.53,0.5237,0.5037,0.4826,0.4457,0.3803,3.6612,3.6612,3.6597,3.6583,3.6612,3.6626,3.6656,3.6714,3.6992,3.7124,3.7168,3.7402,3.7519,3.7665,3.7856,3.8017,3.8134,3.8412,3.85,3.8529,3.8485,3.8119,3.7739,3.7461,3.7226,3.67,3.6612,3.6612,3.667,3.6861,3.7212,3.7578,3.7885,3.8207,3.8441,3.8543,3.8292,3.7789,3.6603,3.5281,3.3612,3.1868,2.9998,2.8088,2.6307,2.5029,2.3796,2.301,2.2516,2.2326,2.1943,2.1745,2.1537,2.1329,2.1234,2.1178,2.1168,2.1168,2.1168,2.1168,2.1168,2.1168,2.1168,2.1168,2.1168,2.1168,2.1168,2.1168,2.1168,2.1168,2.1168,2.1168,2.1168,2.1149,2.1296,2.1102,2.1026,2.0922,2.0818,2.0762,2.0449,1.9894,1.9178,1.8743,1.7714,1.6601,1.4815,1.3755,1.216,1.0743,1.003,0.9143,0.8786,0.8603,0.8603,0.8226,0.7847,0.7307,0.6928,0.6372,0.5825,0.5619,0.5575,0.5518,0.5466,0.5433,0.5401,0.5387,0.5363,0.5316,0.5273,0.5068,0.455,0.4029,0.3383,3.6305,3.629,3.61,3.6246,3.6612,3.6612,3.6612,3.6626,3.6729,3.6787,3.6817,3.6934,3.7095,3.727,3.7402,3.7709,3.8031,3.8163,3.8353,3.8412,3.8309,3.7987,3.7636,3.7329,3.7036,3.6685,3.6612,3.6612,3.6626,3.6773,3.6978,3.7314,3.7768,3.8207,3.8441,3.8514,3.8233,3.7779,3.6697,3.5349,3.4232,3.2124,3.0298,2.8959,2.6868,2.565,2.4757,2.3592,2.2984,2.2635,2.2259,2.1867,2.166,2.1461,2.13,2.1196,2.1187,2.1168,2.1168,2.1168,2.1168,2.1168,2.1168,2.1168,2.1168,2.1168,2.1168,2.1168,2.1168,2.1168,2.1168,2.1168,2.1168,2.1168,2.1168,2.1168,2.113,2.1036,2.096,2.0885,2.0608,2.0278,1.9384,1.8509,1.7283,1.5911,1.4122,1.2337,1.1099,1.003,0.9322,0.8964,0.8786,0.8607,0.8607,0.825,0.771,0.7352,0.6815,0.6255,0.5867,0.5657,0.561,0.5551,0.5491,0.545,0.5417,0.5392,0.5368,0.5341,0.514,0.4936,0.442,0.3589,0.3103,3.5983,3.5953,3.5734,3.5953,3.6422,3.6363,3.6422,3.6583,3.6495,3.6524,3.6597,3.6612,3.6729,3.6919,3.7095,3.73,3.7724,3.7958,3.8119,3.8163,3.8075,3.7812,3.749,3.7197,3.6963,3.667,3.6612,3.6612,3.6612,3.6612,3.6831,3.7168,3.7534,3.7914,3.8324,3.8485,3.8382,3.7855,3.6922,3.5591,3.4476,3.2781,3.1024,2.9712,2.7872,2.6439,2.5503,2.4214,2.3395,2.3092,2.2577,2.2221,2.1839,2.1631,2.1423,2.1291,2.1206,2.1178,2.1168,2.1168,2.1168,2.1168,2.1168,2.1168,2.1168,2.1168,2.1168,2.1168,2.1168,2.1168,2.1168,2.1168,2.1168,2.1168,2.1168,2.1168,2.1168,2.1111,2.1055,2.0989,2.073,2.0491,1.8975,1.7894,1.6062,1.4694,1.3053,1.1627,1.0565,0.9678,0.9143,0.8786,0.8607,0.8607,0.8607,0.8071,0.7531,0.7173,0.6637,0.6099,0.5717,0.5687,0.5638,0.5567,0.551,0.5466,0.5425,0.5392,0.5384,0.5382,0.501,0.4643,0.3982,0.3311,0.2974,3.5661,3.5646,3.5617,3.5807,3.6056,3.5807,3.6012,3.6436,3.629,3.6334,3.6597,3.6612,3.6612,3.6714,3.6919,3.7124,3.7329,3.7739,3.79,3.7782,3.7826,3.7607,3.7314,3.7036,3.6861,3.667,3.6612,3.6612,3.6612,3.6612,3.6802,3.6978,3.7226,3.7563,3.8061,3.8382,3.8353,3.8046,3.7098,3.5942,3.4812,3.3721,3.2021,3.0399,2.8649,2.7412,2.6244,2.496,2.3971,2.3336,2.3013,2.25,2.2019,2.1697,2.1499,2.1433,2.1253,2.1178,2.1168,2.1168,2.1168,2.1168,2.1168,2.1168,2.1168,2.1168,2.1168,2.1168,2.1168,2.1168,2.1168,2.1168,2.1168,2.1168,2.1168,2.1168,2.1168,2.1168,2.1111,2.1074,2.1102,2.0686,1.8766,1.7073,1.504,1.3483,1.1827,1.0743,1.003,0.9322,0.8786,0.8607,0.8607,0.8429,0.825,0.7713,0.7173,0.6994,0.6637,0.6099,0.5741,0.5722,0.5662,0.5583,0.5537,0.5496,0.5439,0.5384,0.5216,0.5046,0.4542,0.4021,0.3524,0.3186,0.2839,3.5324,3.531,3.5105,3.5207,3.547,3.5617,3.5986,3.6192,3.6309,3.653,3.6568,3.6612,3.6612,3.6656,3.6714,3.689,3.7124,3.7197,3.7344,3.7563,3.7519,3.7329,3.708,3.6875,3.6729,3.6641,3.6612,3.6612,3.6612,3.6612,3.6641,3.6773,3.7036,3.7461,3.7914,3.8178,3.8061,3.7739,3.7012,3.6077,3.5393,3.4055,3.292,3.1539,2.9772,2.8334,2.7187,2.5669,2.4751,2.3766,2.3451,2.281,2.2297,2.1801,2.1622,2.1489,2.1291,2.1178,2.1168,2.1168,2.1168,2.1168,2.1168,2.1168,2.1168,2.1168,2.1168,2.1168,2.1168,2.1168,2.1168,2.1168,2.1168,2.1168,2.1168,2.1168,2.1168,2.1168,2.1149,2.114,2.1159,1.9948,1.8467,1.6682,1.4665,1.2861,1.1368,1.0406,0.9678,0.9143,0.8607,0.8607,0.8607,0.8429,0.8071,0.7531,0.6994,0.6815,0.6279,0.592,0.5741,0.5741,0.5673,0.5583,0.5556,0.5526,0.5447,0.5216,0.471,0.4372,0.4036,0.37,0.3362,0.3026,0.2855,3.5002,3.4988,3.4783,3.4812,3.5017,3.5236,3.5633,3.5883,3.6221,3.653,3.6568,3.6612,3.6612,3.6612,3.6626,3.667,3.6934,3.7065,3.7007,3.7256,3.7183,3.7036,3.6875,3.6729,3.6656,3.6597,3.6597,3.6612,3.6612,3.6612,3.6626,3.6714,3.6934,3.727,3.7636,3.7739,3.7739,3.7446,3.6766,3.6363,3.5735,3.477,3.3665,3.2405,3.0922,2.9469,2.8031,2.6838,2.5507,2.474,2.3931,2.3111,2.2558,2.2192,2.1801,2.1593,2.1329,2.1206,2.1168,2.1168,2.1168,2.1168,2.1168,2.1168,2.1168,2.1168,2.1168,2.1168,2.1168,2.1168,2.1168,2.1168,2.1168,2.1168,2.1168,2.1168,2.1168,2.1168,2.1168,2.1168,2.0779,1.956,1.8005,1.6243,1.4474,1.2665,1.1082,1.0116,0.9335,0.8969,0.8611,0.8607,0.8607,0.825,0.8067,0.7531,0.6994,0.6633,0.6097,0.5741,0.5741,0.5736,0.566,0.5594,0.5561,0.5515,0.5261,0.5046,0.4542,0.4206,0.387,0.3533,0.3197,0.3029,0.2692,3.471,3.471,3.471,3.471,3.4724,3.4768,3.509,3.5661,3.5968,3.6275,3.6597,3.6612,3.6612,3.6612,3.6612,3.6626,3.6685,3.6934,3.6875,3.6817,3.6919,3.6817,3.67,3.6583,3.6509,3.6539,3.6509,3.6392,3.6553,3.6612,3.6612,3.6656,3.6861,3.7051,3.7212,3.7314,3.7344,3.7197,3.7036,3.6448,3.5848,3.5593,3.4589,3.3327,3.2051,3.0594,2.9153,2.7763,2.6509,2.5518,2.4535,2.3756,2.3101,2.2586,2.2192,2.1726,2.1357,2.1225,2.1168,2.1168,2.1168,2.1168,2.1168,2.1168,2.1168,2.1168,2.1168,2.1168,2.1168,2.1168,2.1168,2.1168,2.1168,2.1168,2.1168,2.1168,2.1168,2.1168,2.1168,2.0983,2.0417,1.9427,1.7739,1.5989,1.4222,1.2633,1.1028,1.0006,0.9401,0.8969,0.8611,0.8607,0.8429,0.825,0.7889,0.7352,0.6815,0.6276,0.6097,0.5741,0.5741,0.5728,0.5665,0.5608,0.5564,0.5501,0.5245,0.4878,0.4539,0.4038,0.3533,0.3365,0.3029,0.2861,0.2692,3.471,3.471,3.471,3.471,3.471,3.471,3.5061,3.5617,3.5971,3.6295,3.6612,3.6612,3.6612,3.6612,3.6612,3.6612,3.6641,3.667,3.667,3.6685,3.67,3.667,3.6553,3.6378,3.629,3.6187,3.6114,3.6114,3.629,3.6451,3.6612,3.6641,3.6744,3.6773,3.6802,3.6846,3.6963,3.6992,3.6875,3.6545,3.6245,3.6004,3.5111,3.4158,3.3003,3.1516,2.9972,2.8488,2.7067,2.5712,2.4546,2.3766,2.316,2.2577,2.1962,2.1584,2.1319,2.1168,2.1168,2.1168,2.1168,2.1168,2.1168,2.1168,2.1168,2.1168,2.1168,2.1168,2.1168,2.1168,2.1168,2.1168,2.1168,2.1168,2.1168,2.1168,2.1168,2.1168,2.1168,2.0797,2.0223,1.8913,1.7227,1.5709,1.3939,1.2371,1.1161,1.0114,0.9282,0.8853,0.8615,0.8611,0.825,0.8067,0.7531,0.6994,0.6458,0.6099,0.592,0.5741,0.5741,0.5719,0.5668,0.5608,0.554,0.5298,0.4893,0.4542,0.4204,0.3701,0.3197,0.3029,0.2692,0.2692,0.2692,3.471,3.471,3.471,3.471,3.471,3.471,3.5002,3.5427,3.5794,3.6162,3.6392,3.6539,3.6612,3.6612,3.6612,3.6612,3.6612,3.6626,3.6612,3.6583,3.648,3.6407,3.6305,3.6114,3.5953,3.5836,3.5822,3.5866,3.6114,3.6407,3.6612,3.6612,3.6612,3.6612,3.6626,3.667,3.6729,3.6773,3.6729,3.6626,3.64,3.6187,3.5601,3.481,3.3713,3.2198,3.0599,2.9004,2.7646,2.61,2.5119,2.4156,2.3336,2.2586,2.2056,2.1716,2.1461,2.1348,2.13,2.1206,2.1187,2.1178,2.1187,2.1168,2.1168,2.1168,2.1168,2.1168,2.1168,2.1168,2.1168,2.1168,2.1168,2.1168,2.1168,2.1168,2.1168,2.1168,2.0797,2.0417,1.948,1.8176,1.6673,1.5362,1.3839,1.2267,1.1061,1.0023,0.9364,0.8911,0.8656,0.8615,0.825,0.7889,0.717,0.6815,0.6279,0.592,0.5741,0.5741,0.5741,0.5719,0.5679,0.5591,0.5496,0.5104,0.4734,0.4376,0.3868,0.3369,0.3036,0.2866,0.2697,0.2692,0.2692,3.471,3.471,3.471,3.471,3.471,3.471,3.4871,3.5149,3.5441,3.5807,3.6144,3.6466,3.6612,3.6612,3.6612,3.6612,3.6612,3.6612,3.6612,3.6583,3.6305,3.6202,3.6085,3.5792,3.5631,3.5602,3.5588,3.5573,3.6027,3.6319,3.6509,3.6597,3.6612,3.6612,3.6612,3.6612,3.6641,3.6656,3.6656,3.6612,3.6612,3.6524,3.6108,3.5183,3.421,3.3051,3.1264,2.9758,2.8608,2.7056,2.5701,2.4341,2.3501,2.279,2.2287,2.1962,2.1669,2.1556,2.1471,2.1395,2.1319,2.1272,2.1225,2.1291,2.1338,2.1206,2.1178,2.1168,2.1168,2.1168,2.1168,2.1168,2.1168,2.1168,2.1168,2.1168,2.1168,2.0983,2.0603,2.0046,1.893,1.7616,1.6306,1.4805,1.3299,1.1752,1.0771,0.9924,0.9451,0.8799,0.8525,0.8453,0.8075,0.7531,0.6991,0.6633,0.6276,0.5918,0.5741,0.5741,0.5741,0.5719,0.5692,0.5435,0.5186,0.4964,0.459,0.4076,0.3737,0.3398,0.3058,0.2877,0.2703,0.2707,0.2706,3.471,3.471,3.471,3.471,3.471,3.471,3.4739,3.4841,3.5149,3.5588,3.61,3.6422,3.6583,3.6568,3.6597,3.6612,3.6612,3.6612,3.6612,3.6466,3.6231,3.6012,3.5953,3.5514,3.5324,3.5207,3.5178,3.5295,3.5719,3.607,3.6378,3.6568,3.6597,3.6612,3.6612,3.6612,3.6612,3.6612,3.6612,3.6612,3.6612,3.6524,3.6123,3.5463,3.461,3.3175,3.1468,2.9746,2.8404,2.7056,2.5119,2.3756,2.2769,2.2392,2.2104,2.2038,2.1867,2.1754,2.1688,2.1631,2.1584,2.1603,2.1612,2.1631,2.1556,2.1319,2.1187,2.1187,2.1187,2.1187,2.1168,2.1168,2.1168,2.1168,2.1168,2.1168,2.1168,2.0788,2.0417,1.948,1.8363,1.7055,1.5931,1.4429,1.2922,1.16,1.0645,0.9826,0.9351,0.8877,0.8383,0.8129,0.7721,0.7173,0.6812,0.6454,0.6097,0.592,0.5741,0.5741,0.5741,0.5538,0.5512,0.5117,0.4889,0.4671,0.4306,0.3799,0.3452,0.3095,0.2919,0.274,0.2748,0.2755,0.2744,3.4578,3.4695,3.471,3.471,3.471,3.471,3.471,3.4768,3.5031,3.5353,3.5734,3.6144,3.6392,3.6436,3.6524,3.6568,3.6583,3.6612,3.648,3.6319,3.607,3.5807,3.5529,3.5222,3.5046,3.4914,3.4988,3.5178,3.5485,3.5909,3.6261,3.6407,3.6495,3.6612,3.6612,3.6612,3.6612,3.6612,3.6612,3.6612,3.6568,3.6436,3.6173,3.5555,3.4482,3.3242,3.1673,2.9937,2.8404,2.6863,2.5119,2.3561,2.2769,2.2293,2.2236,2.2179,2.2056,2.1924,2.1905,2.1867,2.183,2.183,2.1801,2.1754,2.1735,2.1518,2.1423,2.1404,2.1348,2.1338,2.1206,2.1168,2.1168,2.1168,2.1168,2.1168,2.0983,2.0417,2.0037,1.9285,1.7981,1.6494,1.5368,1.4052,1.2544,1.1227,1.0275,0.9677,0.9211,0.895,0.8453,0.799,0.7405,0.7004,0.6633,0.6276,0.5741,0.5741,0.5741,0.5741,0.5739,0.5536,0.5329,0.4951,0.4573,0.4197,0.3838,0.3495,0.3309,0.2945,0.2946,0.2777,0.2788,0.2971,0.2963,3.4417,3.4695,3.471,3.471,3.471,3.471,3.471,3.4753,3.4988,3.509,3.5192,3.5734,3.5983,3.6158,3.6319,3.6422,3.6436,3.6319,3.6217,3.6027,3.5719,3.5529,3.5251,3.4914,3.4812,3.4827,3.4914,3.5031,3.5236,3.5705,3.6041,3.6158,3.6378,3.6612,3.6612,3.6612,3.6612,3.6612,3.6612,3.6612,3.648,3.629,3.5983,3.5275,3.4368,3.3104,3.1757,3.014,2.8596,2.6863,2.5119,2.3756,2.2779,2.2359,2.2359,2.2302,2.2217,2.2141,2.2104,2.2019,2.1952,2.1896,2.1858,2.1858,2.1867,2.182,2.1726,2.1622,2.1565,2.1423,2.1291,2.1168,2.1168,2.1168,2.1168,2.1168,2.0797,2.0232,1.9666,1.8913,1.7608,1.6119,1.4805,1.3487,1.2167,1.1037,1.0262,0.9651,0.9232,0.88,0.8528,0.7882,0.7457,0.7054,0.6467,0.6097,0.5741,0.5741,0.5741,0.5741,0.5736,0.5544,0.5172,0.462,0.4244,0.3879,0.3696,0.3344,0.3155,0.2974,0.281,0.2818,0.2994,0.3179,0.3185,3.4417,3.471,3.471,3.471,3.471,3.471,3.471,3.471,3.4768,3.4797,3.49,3.5163,3.547,3.5734,3.5778,3.5866,3.5983,3.5939,3.5851,3.569,3.5441,3.5266,3.5075,3.4827,3.4739,3.4753,3.4827,3.4929,3.5075,3.55,3.588,3.6085,3.6422,3.6583,3.6612,3.6612,3.6612,3.6612,3.6612,3.6612,3.6495,3.6275,3.5968,3.5261,3.4368,3.3104,3.1553,2.9758,2.8404,2.6863,2.5119,2.3561,2.2779,2.2387,2.2387,2.2387,2.2312,2.2302,2.2245,2.2217,2.217,2.2179,2.2179,2.2189,2.2198,2.2198,2.2075,2.1924,2.1792,2.1546,2.1385,2.1225,2.1178,2.1168,2.1168,2.1168,2.0983,2.0232,1.948,1.8549,1.7242,1.5931,1.4617,1.311,1.1789,1.0659,0.9901,0.9299,0.9097,0.8848,0.859,0.7962,0.7333,0.6709,0.6111,0.592,0.5741,0.5741,0.5741,0.5741,0.5741,0.5741,0.5368,0.4459,0.4107,0.3748,0.3383,0.3193,0.3201,0.3021,0.2855,0.3039,0.3211,0.3383,0.3563]}]]